<?xml version="1.0" encoding="UTF-8" standalone="no" ?>
<gpx xmlns="http://www.topografix.com/GPX/1/1" xmlns:xsi="http://www.w3.org/2001/XMLSchema-instance" xsi:schemaLocation="http://www.topografix.com/GPX/1/1 http://www.topografix.com/GPX/1/1/gpx.xsd" version="1.1" creator="VisuGPX - https://www.visugpx.com">
  <metadata>
    <name>Saint-Régis-du-Coin Gimel</name>
  </metadata>
  <trk>
    <name><![CDATA[Saint-Régis-du-Coin Randonnée]]></name>
    <extensions>
      <line xmlns="http://www.topografix.com/GPX/gpx_style/0/2">
        <color>0000FF</color>
        <width>4</width>
      </line>
    </extensions>
    <trkseg>
      <trkpt lat="45.30687" lon="4.47609">
        <ele>1173.5</ele>
        <time>2022-01-27T12:58:21Z</time>
      </trkpt>
      <trkpt lat="45.30678" lon="4.47659">
        <ele>1172.2</ele>
      </trkpt>
      <trkpt lat="45.30617" lon="4.47719">
        <ele>1171.2</ele>
      </trkpt>
      <trkpt lat="45.30492" lon="4.47802">
        <ele>1168.7</ele>
      </trkpt>
      <trkpt lat="45.30432" lon="4.47867">
        <ele>1169</ele>
      </trkpt>
      <trkpt lat="45.30251" lon="4.4788">
        <ele>1175.9</ele>
      </trkpt>
      <trkpt lat="45.30154" lon="4.47854">
        <ele>1175.5</ele>
      </trkpt>
      <trkpt lat="45.30052" lon="4.47882">
        <ele>1178</ele>
        <time>2022-01-27T12:58:22Z</time>
      </trkpt>
      <trkpt lat="45.29952" lon="4.47957">
        <ele>1177.9</ele>
      </trkpt>
      <trkpt lat="45.29852" lon="4.48064">
        <ele>1181.6</ele>
      </trkpt>
      <trkpt lat="45.29817" lon="4.48088">
        <ele>1184.6</ele>
        <time>2022-01-27T12:58:29Z</time>
      </trkpt>
      <trkpt lat="45.29767" lon="4.48032">
        <ele>1189.4</ele>
      </trkpt>
      <trkpt lat="45.29722" lon="4.47963">
        <ele>1187.7</ele>
        <time>2022-01-27T12:58:31Z</time>
      </trkpt>
      <trkpt lat="45.2965" lon="4.4784">
        <ele>1195.5</ele>
        <time>2022-01-27T12:58:33Z</time>
      </trkpt>
      <trkpt lat="45.29641" lon="4.47736">
        <ele>1203.6</ele>
      </trkpt>
      <trkpt lat="45.2966" lon="4.47661">
        <ele>1207.5</ele>
      </trkpt>
      <trkpt lat="45.29689" lon="4.4757">
        <ele>1217</ele>
        <time>2022-01-27T12:58:35Z</time>
      </trkpt>
      <trkpt lat="45.29689" lon="4.47569">
        <ele>1217</ele>
        <time>2022-01-27T12:58:36Z</time>
      </trkpt>
      <trkpt lat="45.29689" lon="4.47568">
        <ele>1217</ele>
        <time>2022-01-27T12:58:37Z</time>
      </trkpt>
      <trkpt lat="45.29689" lon="4.47567">
        <ele>1217.4</ele>
        <time>2022-01-27T12:58:39Z</time>
      </trkpt>
      <trkpt lat="45.2969" lon="4.47566">
        <ele>1217.4</ele>
        <time>2022-01-27T12:58:40Z</time>
      </trkpt>
      <trkpt lat="45.2969" lon="4.47565">
        <ele>1217.6</ele>
        <time>2022-01-27T12:58:41Z</time>
      </trkpt>
      <trkpt lat="45.2969" lon="4.47564">
        <ele>1217.6</ele>
        <time>2022-01-27T12:58:42Z</time>
      </trkpt>
      <trkpt lat="45.29691" lon="4.47562">
        <ele>1217.8</ele>
        <time>2022-01-27T12:58:43Z</time>
      </trkpt>
      <trkpt lat="45.29692" lon="4.47559">
        <ele>1218</ele>
        <time>2022-01-27T12:58:45Z</time>
      </trkpt>
      <trkpt lat="45.29691" lon="4.47557">
        <ele>1218.2</ele>
        <time>2022-01-27T12:58:47Z</time>
      </trkpt>
      <trkpt lat="45.29692" lon="4.47551">
        <ele>1218.4</ele>
        <time>2022-01-27T12:58:51Z</time>
      </trkpt>
      <trkpt lat="45.29693" lon="4.4755">
        <ele>1218.8</ele>
        <time>2022-01-27T12:58:52Z</time>
      </trkpt>
      <trkpt lat="45.29693" lon="4.47549">
        <ele>1219</ele>
        <time>2022-01-27T12:58:53Z</time>
      </trkpt>
      <trkpt lat="45.29693" lon="4.47548">
        <ele>1219.2</ele>
        <time>2022-01-27T12:58:54Z</time>
      </trkpt>
      <trkpt lat="45.29693" lon="4.4754">
        <ele>1219.4</ele>
        <time>2022-01-27T12:58:59Z</time>
      </trkpt>
      <trkpt lat="45.29694" lon="4.47537">
        <ele>1219.6</ele>
        <time>2022-01-27T12:59:02Z</time>
      </trkpt>
      <trkpt lat="45.29694" lon="4.47535">
        <ele>1219.6</ele>
        <time>2022-01-27T12:59:03Z</time>
      </trkpt>
      <trkpt lat="45.29693" lon="4.47533">
        <ele>1219.8</ele>
        <time>2022-01-27T12:59:05Z</time>
      </trkpt>
      <trkpt lat="45.29694" lon="4.47527">
        <ele>1220.2</ele>
        <time>2022-01-27T12:59:09Z</time>
      </trkpt>
      <trkpt lat="45.29693" lon="4.47523">
        <ele>1220.4</ele>
        <time>2022-01-27T12:59:12Z</time>
      </trkpt>
      <trkpt lat="45.29693" lon="4.47521">
        <ele>1220.4</ele>
        <time>2022-01-27T12:59:13Z</time>
      </trkpt>
      <trkpt lat="45.29694" lon="4.47516">
        <ele>1220.8</ele>
        <time>2022-01-27T12:59:16Z</time>
      </trkpt>
      <trkpt lat="45.29695" lon="4.47513">
        <ele>1221</ele>
        <time>2022-01-27T12:59:18Z</time>
      </trkpt>
      <trkpt lat="45.29696" lon="4.47506">
        <ele>1221.4</ele>
        <time>2022-01-27T12:59:22Z</time>
      </trkpt>
      <trkpt lat="45.29696" lon="4.47505">
        <ele>1221.6</ele>
        <time>2022-01-27T12:59:23Z</time>
      </trkpt>
      <trkpt lat="45.29696" lon="4.47503">
        <ele>1221.8</ele>
        <time>2022-01-27T12:59:24Z</time>
      </trkpt>
      <trkpt lat="45.29696" lon="4.47497">
        <ele>1222.4</ele>
        <time>2022-01-27T12:59:28Z</time>
      </trkpt>
      <trkpt lat="45.29699" lon="4.47487">
        <ele>1222.8</ele>
        <time>2022-01-27T12:59:33Z</time>
      </trkpt>
      <trkpt lat="45.29699" lon="4.47485">
        <ele>1222.8</ele>
        <time>2022-01-27T12:59:34Z</time>
      </trkpt>
      <trkpt lat="45.297" lon="4.47483">
        <ele>1222.8</ele>
        <time>2022-01-27T12:59:35Z</time>
      </trkpt>
      <trkpt lat="45.29701" lon="4.47475">
        <ele>1223.4</ele>
        <time>2022-01-27T12:59:39Z</time>
      </trkpt>
      <trkpt lat="45.29702" lon="4.47469">
        <ele>1223.8</ele>
        <time>2022-01-27T12:59:43Z</time>
      </trkpt>
      <trkpt lat="45.29704" lon="4.47464">
        <ele>1223.8</ele>
        <time>2022-01-27T12:59:46Z</time>
      </trkpt>
      <trkpt lat="45.29706" lon="4.47456">
        <ele>1224.4</ele>
        <time>2022-01-27T12:59:51Z</time>
      </trkpt>
      <trkpt lat="45.29707" lon="4.47454">
        <ele>1224.6</ele>
        <time>2022-01-27T12:59:53Z</time>
      </trkpt>
      <trkpt lat="45.29708" lon="4.47451">
        <ele>1225</ele>
        <time>2022-01-27T12:59:55Z</time>
      </trkpt>
      <trkpt lat="45.29709" lon="4.47447">
        <ele>1225.4</ele>
        <time>2022-01-27T12:59:57Z</time>
      </trkpt>
      <trkpt lat="45.29709" lon="4.47444">
        <ele>1225.6</ele>
        <time>2022-01-27T12:59:59Z</time>
      </trkpt>
      <trkpt lat="45.29711" lon="4.4744">
        <ele>1225.8</ele>
        <time>2022-01-27T13:00:01Z</time>
      </trkpt>
      <trkpt lat="45.29712" lon="4.47437">
        <ele>1226</ele>
        <time>2022-01-27T13:00:03Z</time>
      </trkpt>
      <trkpt lat="45.29712" lon="4.47435">
        <ele>1226.2</ele>
        <time>2022-01-27T13:00:04Z</time>
      </trkpt>
      <trkpt lat="45.29713" lon="4.47432">
        <ele>1226.6</ele>
        <time>2022-01-27T13:00:06Z</time>
      </trkpt>
      <trkpt lat="45.29715" lon="4.47429">
        <ele>1227.2</ele>
        <time>2022-01-27T13:00:09Z</time>
      </trkpt>
      <trkpt lat="45.29715" lon="4.47427">
        <ele>1227.4</ele>
        <time>2022-01-27T13:00:11Z</time>
      </trkpt>
      <trkpt lat="45.29717" lon="4.47424">
        <ele>1227.4</ele>
        <time>2022-01-27T13:00:13Z</time>
      </trkpt>
      <trkpt lat="45.29719" lon="4.47422">
        <ele>1227.6</ele>
        <time>2022-01-27T13:00:15Z</time>
      </trkpt>
      <trkpt lat="45.29723" lon="4.47415">
        <ele>1228.2</ele>
        <time>2022-01-27T13:00:22Z</time>
      </trkpt>
      <trkpt lat="45.29723" lon="4.47414">
        <ele>1228.4</ele>
        <time>2022-01-27T13:00:23Z</time>
      </trkpt>
      <trkpt lat="45.29724" lon="4.47409">
        <ele>1228.8</ele>
        <time>2022-01-27T13:00:25Z</time>
      </trkpt>
      <trkpt lat="45.29725" lon="4.47405">
        <ele>1229.2</ele>
        <time>2022-01-27T13:00:28Z</time>
      </trkpt>
      <trkpt lat="45.29724" lon="4.47403">
        <ele>1229.4</ele>
        <time>2022-01-27T13:00:29Z</time>
      </trkpt>
      <trkpt lat="45.29726" lon="4.47398">
        <ele>1229.8</ele>
        <time>2022-01-27T13:00:32Z</time>
      </trkpt>
      <trkpt lat="45.29725" lon="4.47397">
        <ele>1230</ele>
        <time>2022-01-27T13:00:33Z</time>
      </trkpt>
      <trkpt lat="45.29725" lon="4.47394">
        <ele>1230.2</ele>
        <time>2022-01-27T13:00:36Z</time>
      </trkpt>
      <trkpt lat="45.29726" lon="4.47389">
        <ele>1230.4</ele>
        <time>2022-01-27T13:00:39Z</time>
      </trkpt>
      <trkpt lat="45.29724" lon="4.47385">
        <ele>1231</ele>
        <time>2022-01-27T13:00:43Z</time>
      </trkpt>
      <trkpt lat="45.29721" lon="4.47384">
        <ele>1231.4</ele>
        <time>2022-01-27T13:00:48Z</time>
      </trkpt>
      <trkpt lat="45.2972" lon="4.47384">
        <ele>1231.6</ele>
        <time>2022-01-27T13:00:49Z</time>
      </trkpt>
      <trkpt lat="45.29719" lon="4.47385">
        <ele>1231.8</ele>
        <time>2022-01-27T13:00:51Z</time>
      </trkpt>
      <trkpt lat="45.29717" lon="4.47386">
        <ele>1231.8</ele>
        <time>2022-01-27T13:00:53Z</time>
      </trkpt>
      <trkpt lat="45.29714" lon="4.47387">
        <ele>1232.4</ele>
        <time>2022-01-27T13:00:59Z</time>
      </trkpt>
      <trkpt lat="45.29713" lon="4.47388">
        <ele>1232.6</ele>
        <time>2022-01-27T13:01:00Z</time>
      </trkpt>
      <trkpt lat="45.29711" lon="4.47389">
        <ele>1232.8</ele>
        <time>2022-01-27T13:01:02Z</time>
      </trkpt>
      <trkpt lat="45.2971" lon="4.4739">
        <ele>1232.8</ele>
        <time>2022-01-27T13:01:03Z</time>
      </trkpt>
      <trkpt lat="45.29709" lon="4.47391">
        <ele>1233</ele>
        <time>2022-01-27T13:01:04Z</time>
      </trkpt>
      <trkpt lat="45.29707" lon="4.47391">
        <ele>1233</ele>
        <time>2022-01-27T13:01:06Z</time>
      </trkpt>
      <trkpt lat="45.29703" lon="4.47392">
        <ele>1233.4</ele>
        <time>2022-01-27T13:01:09Z</time>
      </trkpt>
      <trkpt lat="45.297" lon="4.47393">
        <ele>1233.4</ele>
        <time>2022-01-27T13:01:11Z</time>
      </trkpt>
      <trkpt lat="45.29699" lon="4.47393">
        <ele>1233.6</ele>
        <time>2022-01-27T13:01:12Z</time>
      </trkpt>
      <trkpt lat="45.29699" lon="4.47394">
        <ele>1233.6</ele>
        <time>2022-01-27T13:01:13Z</time>
      </trkpt>
      <trkpt lat="45.29695" lon="4.47397">
        <ele>1233.4</ele>
        <time>2022-01-27T13:01:16Z</time>
      </trkpt>
      <trkpt lat="45.29689" lon="4.47403">
        <ele>1233.2</ele>
        <time>2022-01-27T13:01:23Z</time>
      </trkpt>
      <trkpt lat="45.29679" lon="4.47406">
        <ele>1232.8</ele>
        <time>2022-01-27T13:01:33Z</time>
      </trkpt>
      <trkpt lat="45.29677" lon="4.47407">
        <ele>1232.6</ele>
        <time>2022-01-27T13:01:34Z</time>
      </trkpt>
      <trkpt lat="45.29674" lon="4.47408">
        <ele>1232.6</ele>
        <time>2022-01-27T13:01:36Z</time>
      </trkpt>
      <trkpt lat="45.29667" lon="4.47411">
        <ele>1232.4</ele>
        <time>2022-01-27T13:01:42Z</time>
      </trkpt>
      <trkpt lat="45.29665" lon="4.47412">
        <ele>1232.2</ele>
        <time>2022-01-27T13:01:43Z</time>
      </trkpt>
      <trkpt lat="45.2966" lon="4.47413">
        <ele>1232</ele>
        <time>2022-01-27T13:01:47Z</time>
      </trkpt>
      <trkpt lat="45.29658" lon="4.47414">
        <ele>1231.8</ele>
        <time>2022-01-27T13:01:48Z</time>
      </trkpt>
      <trkpt lat="45.29655" lon="4.47415">
        <ele>1231.4</ele>
        <time>2022-01-27T13:01:50Z</time>
      </trkpt>
      <trkpt lat="45.29651" lon="4.47415">
        <ele>1231.2</ele>
        <time>2022-01-27T13:01:53Z</time>
      </trkpt>
      <trkpt lat="45.29646" lon="4.47415">
        <ele>1231.2</ele>
        <time>2022-01-27T13:01:56Z</time>
      </trkpt>
      <trkpt lat="45.29638" lon="4.47416">
        <ele>1231</ele>
        <time>2022-01-27T13:02:03Z</time>
      </trkpt>
      <trkpt lat="45.29632" lon="4.47414">
        <ele>1231.2</ele>
        <time>2022-01-27T13:02:08Z</time>
      </trkpt>
      <trkpt lat="45.29626" lon="4.47414">
        <ele>1231.2</ele>
        <time>2022-01-27T13:02:13Z</time>
      </trkpt>
      <trkpt lat="45.29612" lon="4.4741">
        <ele>1231</ele>
        <time>2022-01-27T13:02:23Z</time>
      </trkpt>
      <trkpt lat="45.29611" lon="4.4741">
        <ele>1231</ele>
        <time>2022-01-27T13:02:24Z</time>
      </trkpt>
      <trkpt lat="45.29609" lon="4.4741">
        <ele>1231</ele>
        <time>2022-01-27T13:02:26Z</time>
      </trkpt>
      <trkpt lat="45.29606" lon="4.47409">
        <ele>1231.2</ele>
        <time>2022-01-27T13:02:29Z</time>
      </trkpt>
      <trkpt lat="45.29604" lon="4.47409">
        <ele>1231.4</ele>
        <time>2022-01-27T13:02:31Z</time>
      </trkpt>
      <trkpt lat="45.29602" lon="4.47409">
        <ele>1231.6</ele>
        <time>2022-01-27T13:02:33Z</time>
      </trkpt>
      <trkpt lat="45.29592" lon="4.47407">
        <ele>1232</ele>
        <time>2022-01-27T13:02:42Z</time>
      </trkpt>
      <trkpt lat="45.29591" lon="4.47406">
        <ele>1232</ele>
        <time>2022-01-27T13:02:43Z</time>
      </trkpt>
      <trkpt lat="45.29587" lon="4.47404">
        <ele>1232.2</ele>
        <time>2022-01-27T13:02:46Z</time>
      </trkpt>
      <trkpt lat="45.29583" lon="4.47401">
        <ele>1232.6</ele>
        <time>2022-01-27T13:02:50Z</time>
      </trkpt>
      <trkpt lat="45.29581" lon="4.47401">
        <ele>1232.6</ele>
        <time>2022-01-27T13:02:53Z</time>
      </trkpt>
      <trkpt lat="45.29579" lon="4.47399">
        <ele>1233</ele>
        <time>2022-01-27T13:02:55Z</time>
      </trkpt>
      <trkpt lat="45.29572" lon="4.47398">
        <ele>1233.6</ele>
        <time>2022-01-27T13:03:00Z</time>
      </trkpt>
      <trkpt lat="45.2957" lon="4.47398">
        <ele>1233.6</ele>
        <time>2022-01-27T13:03:01Z</time>
      </trkpt>
      <trkpt lat="45.29568" lon="4.47397">
        <ele>1233.8</ele>
        <time>2022-01-27T13:03:03Z</time>
      </trkpt>
      <trkpt lat="45.29567" lon="4.47397">
        <ele>1234</ele>
        <time>2022-01-27T13:03:05Z</time>
      </trkpt>
      <trkpt lat="45.29557" lon="4.47394">
        <ele>1234.6</ele>
        <time>2022-01-27T13:03:13Z</time>
      </trkpt>
      <trkpt lat="45.29554" lon="4.47391">
        <ele>1234.8</ele>
        <time>2022-01-27T13:03:17Z</time>
      </trkpt>
      <trkpt lat="45.29552" lon="4.4739">
        <ele>1235</ele>
        <time>2022-01-27T13:03:19Z</time>
      </trkpt>
      <trkpt lat="45.2955" lon="4.47391">
        <ele>1235.4</ele>
        <time>2022-01-27T13:03:22Z</time>
      </trkpt>
      <trkpt lat="45.29548" lon="4.47391">
        <ele>1235.4</ele>
        <time>2022-01-27T13:03:23Z</time>
      </trkpt>
      <trkpt lat="45.29544" lon="4.4739">
        <ele>1235.6</ele>
        <time>2022-01-27T13:03:26Z</time>
      </trkpt>
      <trkpt lat="45.29538" lon="4.47387">
        <ele>1236.8</ele>
        <time>2022-01-27T13:03:32Z</time>
      </trkpt>
      <trkpt lat="45.29537" lon="4.47387">
        <ele>1236.8</ele>
        <time>2022-01-27T13:03:33Z</time>
      </trkpt>
      <trkpt lat="45.2953" lon="4.47377">
        <ele>1237.6</ele>
        <time>2022-01-27T13:03:42Z</time>
      </trkpt>
      <trkpt lat="45.29529" lon="4.47376">
        <ele>1237.8</ele>
        <time>2022-01-27T13:03:43Z</time>
      </trkpt>
      <trkpt lat="45.29522" lon="4.47376">
        <ele>1238.2</ele>
        <time>2022-01-27T13:03:48Z</time>
      </trkpt>
      <trkpt lat="45.29519" lon="4.47372">
        <ele>1238.4</ele>
        <time>2022-01-27T13:03:53Z</time>
      </trkpt>
      <trkpt lat="45.29514" lon="4.47366">
        <ele>1238.8</ele>
        <time>2022-01-27T13:03:59Z</time>
      </trkpt>
      <trkpt lat="45.29513" lon="4.47364">
        <ele>1239</ele>
        <time>2022-01-27T13:04:01Z</time>
      </trkpt>
      <trkpt lat="45.29512" lon="4.47363">
        <ele>1239.2</ele>
        <time>2022-01-27T13:04:03Z</time>
      </trkpt>
      <trkpt lat="45.29507" lon="4.47362">
        <ele>1239.4</ele>
        <time>2022-01-27T13:04:07Z</time>
      </trkpt>
      <trkpt lat="45.29506" lon="4.47362">
        <ele>1239.6</ele>
        <time>2022-01-27T13:04:08Z</time>
      </trkpt>
      <trkpt lat="45.29504" lon="4.47359">
        <ele>1239.8</ele>
        <time>2022-01-27T13:04:10Z</time>
      </trkpt>
      <trkpt lat="45.29502" lon="4.47358">
        <ele>1240</ele>
        <time>2022-01-27T13:04:12Z</time>
      </trkpt>
      <trkpt lat="45.295" lon="4.47357">
        <ele>1240</ele>
        <time>2022-01-27T13:04:13Z</time>
      </trkpt>
      <trkpt lat="45.29494" lon="4.47355">
        <ele>1240.8</ele>
        <time>2022-01-27T13:04:18Z</time>
      </trkpt>
      <trkpt lat="45.29492" lon="4.47353">
        <ele>1241</ele>
        <time>2022-01-27T13:04:20Z</time>
      </trkpt>
      <trkpt lat="45.29489" lon="4.47351">
        <ele>1241.4</ele>
        <time>2022-01-27T13:04:23Z</time>
      </trkpt>
      <trkpt lat="45.29485" lon="4.4735">
        <ele>1241.8</ele>
        <time>2022-01-27T13:04:28Z</time>
      </trkpt>
      <trkpt lat="45.29484" lon="4.4735">
        <ele>1242</ele>
        <time>2022-01-27T13:04:30Z</time>
      </trkpt>
      <trkpt lat="45.29483" lon="4.4735">
        <ele>1242.2</ele>
        <time>2022-01-27T13:04:31Z</time>
      </trkpt>
      <trkpt lat="45.29481" lon="4.47349">
        <ele>1242.4</ele>
        <time>2022-01-27T13:04:33Z</time>
      </trkpt>
      <trkpt lat="45.2948" lon="4.47349">
        <ele>1242.6</ele>
        <time>2022-01-27T13:04:35Z</time>
      </trkpt>
      <trkpt lat="45.29476" lon="4.47349">
        <ele>1242.8</ele>
        <time>2022-01-27T13:04:38Z</time>
      </trkpt>
      <trkpt lat="45.29474" lon="4.47347">
        <ele>1243</ele>
        <time>2022-01-27T13:04:40Z</time>
      </trkpt>
      <trkpt lat="45.29473" lon="4.47346">
        <ele>1243.2</ele>
        <time>2022-01-27T13:04:41Z</time>
      </trkpt>
      <trkpt lat="45.29472" lon="4.47346">
        <ele>1243.6</ele>
        <time>2022-01-27T13:04:43Z</time>
      </trkpt>
      <trkpt lat="45.29467" lon="4.47342">
        <ele>1244.2</ele>
        <time>2022-01-27T13:04:48Z</time>
      </trkpt>
      <trkpt lat="45.29465" lon="4.47341">
        <ele>1244.8</ele>
        <time>2022-01-27T13:04:53Z</time>
      </trkpt>
      <trkpt lat="45.29461" lon="4.47343">
        <ele>1245.4</ele>
        <time>2022-01-27T13:04:59Z</time>
      </trkpt>
      <trkpt lat="45.29457" lon="4.47345">
        <ele>1245.6</ele>
        <time>2022-01-27T13:05:03Z</time>
      </trkpt>
      <trkpt lat="45.29455" lon="4.47346">
        <ele>1245.8</ele>
        <time>2022-01-27T13:05:06Z</time>
      </trkpt>
      <trkpt lat="45.29447" lon="4.47352">
        <ele>1246.2</ele>
        <time>2022-01-27T13:05:13Z</time>
      </trkpt>
      <trkpt lat="45.29446" lon="4.47352">
        <ele>1246.2</ele>
        <time>2022-01-27T13:05:14Z</time>
      </trkpt>
      <trkpt lat="45.29444" lon="4.47354">
        <ele>1246.2</ele>
        <time>2022-01-27T13:05:16Z</time>
      </trkpt>
      <trkpt lat="45.29443" lon="4.47355">
        <ele>1246.4</ele>
        <time>2022-01-27T13:05:18Z</time>
      </trkpt>
      <trkpt lat="45.29441" lon="4.47358">
        <ele>1246.8</ele>
        <time>2022-01-27T13:05:21Z</time>
      </trkpt>
      <trkpt lat="45.29438" lon="4.47359">
        <ele>1246.8</ele>
        <time>2022-01-27T13:05:23Z</time>
      </trkpt>
      <trkpt lat="45.29434" lon="4.47362">
        <ele>1247.6</ele>
        <time>2022-01-27T13:05:29Z</time>
      </trkpt>
      <trkpt lat="45.29431" lon="4.47365">
        <ele>1247.8</ele>
        <time>2022-01-27T13:05:33Z</time>
      </trkpt>
      <trkpt lat="45.2943" lon="4.47365">
        <ele>1247.8</ele>
        <time>2022-01-27T13:05:34Z</time>
      </trkpt>
      <trkpt lat="45.29429" lon="4.47367">
        <ele>1247.8</ele>
        <time>2022-01-27T13:05:36Z</time>
      </trkpt>
      <trkpt lat="45.29426" lon="4.47371">
        <ele>1247.8</ele>
        <time>2022-01-27T13:05:40Z</time>
      </trkpt>
      <trkpt lat="45.29425" lon="4.47373">
        <ele>1248</ele>
        <time>2022-01-27T13:05:42Z</time>
      </trkpt>
      <trkpt lat="45.29424" lon="4.47375">
        <ele>1248</ele>
        <time>2022-01-27T13:05:43Z</time>
      </trkpt>
      <trkpt lat="45.29424" lon="4.47376">
        <ele>1248</ele>
        <time>2022-01-27T13:05:44Z</time>
      </trkpt>
      <trkpt lat="45.2942" lon="4.47385">
        <ele>1248</ele>
        <time>2022-01-27T13:05:49Z</time>
      </trkpt>
      <trkpt lat="45.29415" lon="4.47391">
        <ele>1248.2</ele>
        <time>2022-01-27T13:05:53Z</time>
      </trkpt>
      <trkpt lat="45.2941" lon="4.47401">
        <ele>1248</ele>
        <time>2022-01-27T13:06:01Z</time>
      </trkpt>
      <trkpt lat="45.29408" lon="4.47403">
        <ele>1248</ele>
        <time>2022-01-27T13:06:03Z</time>
      </trkpt>
      <trkpt lat="45.29405" lon="4.47408">
        <ele>1247.8</ele>
        <time>2022-01-27T13:06:07Z</time>
      </trkpt>
      <trkpt lat="45.29403" lon="4.47413">
        <ele>1247.8</ele>
        <time>2022-01-27T13:06:10Z</time>
      </trkpt>
      <trkpt lat="45.29402" lon="4.47418">
        <ele>1248</ele>
        <time>2022-01-27T13:06:13Z</time>
      </trkpt>
      <trkpt lat="45.29396" lon="4.4743">
        <ele>1248.4</ele>
        <time>2022-01-27T13:06:23Z</time>
      </trkpt>
      <trkpt lat="45.29388" lon="4.47449">
        <ele>1248.2</ele>
        <time>2022-01-27T13:06:33Z</time>
      </trkpt>
      <trkpt lat="45.29379" lon="4.47463">
        <ele>1247.8</ele>
        <time>2022-01-27T13:06:42Z</time>
      </trkpt>
      <trkpt lat="45.29378" lon="4.47465">
        <ele>1247.8</ele>
        <time>2022-01-27T13:06:43Z</time>
      </trkpt>
      <trkpt lat="45.29375" lon="4.4747">
        <ele>1247.6</ele>
        <time>2022-01-27T13:06:47Z</time>
      </trkpt>
      <trkpt lat="45.29372" lon="4.47475">
        <ele>1247.6</ele>
        <time>2022-01-27T13:06:50Z</time>
      </trkpt>
      <trkpt lat="45.29371" lon="4.47477">
        <ele>1247.6</ele>
        <time>2022-01-27T13:06:51Z</time>
      </trkpt>
      <trkpt lat="45.29369" lon="4.4748">
        <ele>1247.4</ele>
        <time>2022-01-27T13:06:53Z</time>
      </trkpt>
      <trkpt lat="45.29368" lon="4.47481">
        <ele>1247.4</ele>
        <time>2022-01-27T13:06:54Z</time>
      </trkpt>
      <trkpt lat="45.29366" lon="4.47482">
        <ele>1247.4</ele>
        <time>2022-01-27T13:06:55Z</time>
      </trkpt>
      <trkpt lat="45.29363" lon="4.47487">
        <ele>1247.2</ele>
        <time>2022-01-27T13:06:59Z</time>
      </trkpt>
      <trkpt lat="45.2936" lon="4.4749">
        <ele>1247.2</ele>
        <time>2022-01-27T13:07:02Z</time>
      </trkpt>
      <trkpt lat="45.29359" lon="4.47492">
        <ele>1247.2</ele>
        <time>2022-01-27T13:07:03Z</time>
      </trkpt>
      <trkpt lat="45.29357" lon="4.47494">
        <ele>1247</ele>
        <time>2022-01-27T13:07:05Z</time>
      </trkpt>
      <trkpt lat="45.29355" lon="4.47496">
        <ele>1246.8</ele>
        <time>2022-01-27T13:07:08Z</time>
      </trkpt>
      <trkpt lat="45.29352" lon="4.47503">
        <ele>1246.6</ele>
        <time>2022-01-27T13:07:13Z</time>
      </trkpt>
      <trkpt lat="45.29351" lon="4.47503">
        <ele>1246.6</ele>
        <time>2022-01-27T13:07:14Z</time>
      </trkpt>
      <trkpt lat="45.2935" lon="4.47505">
        <ele>1246.6</ele>
        <time>2022-01-27T13:07:16Z</time>
      </trkpt>
      <trkpt lat="45.29349" lon="4.47506">
        <ele>1246.4</ele>
        <time>2022-01-27T13:07:17Z</time>
      </trkpt>
      <trkpt lat="45.29348" lon="4.47507">
        <ele>1246.4</ele>
        <time>2022-01-27T13:07:18Z</time>
      </trkpt>
      <trkpt lat="45.29342" lon="4.47513">
        <ele>1245.8</ele>
        <time>2022-01-27T13:07:23Z</time>
      </trkpt>
      <trkpt lat="45.29335" lon="4.47522">
        <ele>1245.8</ele>
        <time>2022-01-27T13:07:29Z</time>
      </trkpt>
      <trkpt lat="45.2933" lon="4.47528">
        <ele>1245.6</ele>
        <time>2022-01-27T13:07:33Z</time>
      </trkpt>
      <trkpt lat="45.29322" lon="4.47541">
        <ele>1245.6</ele>
        <time>2022-01-27T13:07:42Z</time>
      </trkpt>
      <trkpt lat="45.29321" lon="4.47543">
        <ele>1245.6</ele>
        <time>2022-01-27T13:07:43Z</time>
      </trkpt>
      <trkpt lat="45.29319" lon="4.47546">
        <ele>1245.4</ele>
        <time>2022-01-27T13:07:46Z</time>
      </trkpt>
      <trkpt lat="45.29315" lon="4.4755">
        <ele>1245.6</ele>
        <time>2022-01-27T13:07:51Z</time>
      </trkpt>
      <trkpt lat="45.29314" lon="4.47553">
        <ele>1245.6</ele>
        <time>2022-01-27T13:07:53Z</time>
      </trkpt>
      <trkpt lat="45.29312" lon="4.47556">
        <ele>1245.4</ele>
        <time>2022-01-27T13:07:56Z</time>
      </trkpt>
      <trkpt lat="45.29306" lon="4.47567">
        <ele>1245.4</ele>
        <time>2022-01-27T13:08:03Z</time>
      </trkpt>
      <trkpt lat="45.29302" lon="4.47573">
        <ele>1245.2</ele>
        <time>2022-01-27T13:08:08Z</time>
      </trkpt>
      <trkpt lat="45.29298" lon="4.47579">
        <ele>1245</ele>
        <time>2022-01-27T13:08:13Z</time>
      </trkpt>
      <trkpt lat="45.29294" lon="4.47588">
        <ele>1245.4</ele>
        <time>2022-01-27T13:08:18Z</time>
      </trkpt>
      <trkpt lat="45.29289" lon="4.47594">
        <ele>1245.4</ele>
        <time>2022-01-27T13:08:23Z</time>
      </trkpt>
      <trkpt lat="45.29287" lon="4.47596">
        <ele>1245.4</ele>
        <time>2022-01-27T13:08:25Z</time>
      </trkpt>
      <trkpt lat="45.29284" lon="4.47599">
        <ele>1245.4</ele>
        <time>2022-01-27T13:08:28Z</time>
      </trkpt>
      <trkpt lat="45.2928" lon="4.47603">
        <ele>1245.4</ele>
        <time>2022-01-27T13:08:33Z</time>
      </trkpt>
      <trkpt lat="45.29278" lon="4.47604">
        <ele>1245.6</ele>
        <time>2022-01-27T13:08:35Z</time>
      </trkpt>
      <trkpt lat="45.29278" lon="4.47606">
        <ele>1245.4</ele>
        <time>2022-01-27T13:08:40Z</time>
      </trkpt>
      <trkpt lat="45.29278" lon="4.47607">
        <ele>1245.2</ele>
        <time>2022-01-27T13:08:43Z</time>
      </trkpt>
      <trkpt lat="45.29279" lon="4.47605">
        <ele>1245.2</ele>
        <time>2022-01-27T13:08:53Z</time>
      </trkpt>
      <trkpt lat="45.29282" lon="4.47605">
        <ele>1245.6</ele>
        <time>2022-01-27T13:09:03Z</time>
      </trkpt>
      <trkpt lat="45.29274" lon="4.47605">
        <ele>1246</ele>
        <time>2022-01-27T13:09:20Z</time>
      </trkpt>
      <trkpt lat="45.2927" lon="4.47603">
        <ele>1246.2</ele>
        <time>2022-01-27T13:09:23Z</time>
      </trkpt>
      <trkpt lat="45.29263" lon="4.47596">
        <ele>1246.4</ele>
        <time>2022-01-27T13:09:31Z</time>
      </trkpt>
      <trkpt lat="45.29261" lon="4.47596">
        <ele>1246.4</ele>
        <time>2022-01-27T13:09:32Z</time>
      </trkpt>
      <trkpt lat="45.2926" lon="4.47596">
        <ele>1246.6</ele>
        <time>2022-01-27T13:09:33Z</time>
      </trkpt>
      <trkpt lat="45.29257" lon="4.47593">
        <ele>1246.8</ele>
        <time>2022-01-27T13:09:36Z</time>
      </trkpt>
      <trkpt lat="45.29256" lon="4.47591">
        <ele>1246.8</ele>
        <time>2022-01-27T13:09:38Z</time>
      </trkpt>
      <trkpt lat="45.29255" lon="4.47589">
        <ele>1247</ele>
        <time>2022-01-27T13:09:40Z</time>
      </trkpt>
      <trkpt lat="45.29253" lon="4.47585">
        <ele>1247.2</ele>
        <time>2022-01-27T13:09:43Z</time>
      </trkpt>
      <trkpt lat="45.2925" lon="4.47581">
        <ele>1247.6</ele>
        <time>2022-01-27T13:09:47Z</time>
      </trkpt>
      <trkpt lat="45.29247" lon="4.47572">
        <ele>1248</ele>
        <time>2022-01-27T13:09:53Z</time>
      </trkpt>
      <trkpt lat="45.29242" lon="4.47566">
        <ele>1248.6</ele>
        <time>2022-01-27T13:09:58Z</time>
      </trkpt>
      <trkpt lat="45.29239" lon="4.4756">
        <ele>1249.4</ele>
        <time>2022-01-27T13:10:03Z</time>
      </trkpt>
      <trkpt lat="45.29233" lon="4.47544">
        <ele>1249.8</ele>
        <time>2022-01-27T13:10:13Z</time>
      </trkpt>
      <trkpt lat="45.29232" lon="4.47538">
        <ele>1250.6</ele>
        <time>2022-01-27T13:10:17Z</time>
      </trkpt>
      <trkpt lat="45.29231" lon="4.47535">
        <ele>1251</ele>
        <time>2022-01-27T13:10:18Z</time>
      </trkpt>
      <trkpt lat="45.29231" lon="4.47533">
        <ele>1251.2</ele>
        <time>2022-01-27T13:10:19Z</time>
      </trkpt>
      <trkpt lat="45.2923" lon="4.47531">
        <ele>1251.4</ele>
        <time>2022-01-27T13:10:20Z</time>
      </trkpt>
      <trkpt lat="45.2923" lon="4.4753">
        <ele>1251.6</ele>
        <time>2022-01-27T13:10:21Z</time>
      </trkpt>
      <trkpt lat="45.29229" lon="4.4753">
        <ele>1251.8</ele>
        <time>2022-01-27T13:10:22Z</time>
      </trkpt>
      <trkpt lat="45.29228" lon="4.47529">
        <ele>1252</ele>
        <time>2022-01-27T13:10:23Z</time>
      </trkpt>
      <trkpt lat="45.29225" lon="4.47525">
        <ele>1252.6</ele>
        <time>2022-01-27T13:10:26Z</time>
      </trkpt>
      <trkpt lat="45.29221" lon="4.47525">
        <ele>1253.2</ele>
        <time>2022-01-27T13:10:29Z</time>
      </trkpt>
      <trkpt lat="45.29219" lon="4.47523">
        <ele>1253.8</ele>
        <time>2022-01-27T13:10:32Z</time>
      </trkpt>
      <trkpt lat="45.29218" lon="4.47523">
        <ele>1254</ele>
        <time>2022-01-27T13:10:33Z</time>
      </trkpt>
      <trkpt lat="45.29217" lon="4.47521">
        <ele>1254.2</ele>
        <time>2022-01-27T13:10:34Z</time>
      </trkpt>
      <trkpt lat="45.29216" lon="4.47517">
        <ele>1254.6</ele>
        <time>2022-01-27T13:10:36Z</time>
      </trkpt>
      <trkpt lat="45.29211" lon="4.47516">
        <ele>1255.4</ele>
        <time>2022-01-27T13:10:40Z</time>
      </trkpt>
      <trkpt lat="45.29209" lon="4.47511">
        <ele>1255.8</ele>
        <time>2022-01-27T13:10:43Z</time>
      </trkpt>
      <trkpt lat="45.29207" lon="4.47508">
        <ele>1256.4</ele>
        <time>2022-01-27T13:10:46Z</time>
      </trkpt>
      <trkpt lat="45.29207" lon="4.47506">
        <ele>1256.8</ele>
        <time>2022-01-27T13:10:47Z</time>
      </trkpt>
      <trkpt lat="45.29205" lon="4.47501">
        <ele>1257.6</ele>
        <time>2022-01-27T13:10:51Z</time>
      </trkpt>
      <trkpt lat="45.29204" lon="4.475">
        <ele>1257.8</ele>
        <time>2022-01-27T13:10:52Z</time>
      </trkpt>
      <trkpt lat="45.29203" lon="4.475">
        <ele>1257.8</ele>
        <time>2022-01-27T13:10:53Z</time>
      </trkpt>
      <trkpt lat="45.29201" lon="4.47495">
        <ele>1258.4</ele>
        <time>2022-01-27T13:10:56Z</time>
      </trkpt>
      <trkpt lat="45.292" lon="4.47495">
        <ele>1258.6</ele>
        <time>2022-01-27T13:10:57Z</time>
      </trkpt>
      <trkpt lat="45.29199" lon="4.47495">
        <ele>1258.8</ele>
        <time>2022-01-27T13:10:58Z</time>
      </trkpt>
      <trkpt lat="45.29197" lon="4.47489">
        <ele>1259.4</ele>
        <time>2022-01-27T13:11:02Z</time>
      </trkpt>
      <trkpt lat="45.29196" lon="4.47488">
        <ele>1259.6</ele>
        <time>2022-01-27T13:11:03Z</time>
      </trkpt>
      <trkpt lat="45.29195" lon="4.47487">
        <ele>1259.6</ele>
        <time>2022-01-27T13:11:04Z</time>
      </trkpt>
      <trkpt lat="45.29193" lon="4.47482">
        <ele>1260.4</ele>
        <time>2022-01-27T13:11:09Z</time>
      </trkpt>
      <trkpt lat="45.29191" lon="4.47477">
        <ele>1260.6</ele>
        <time>2022-01-27T13:11:12Z</time>
      </trkpt>
      <trkpt lat="45.2919" lon="4.47476">
        <ele>1260.8</ele>
        <time>2022-01-27T13:11:13Z</time>
      </trkpt>
      <trkpt lat="45.29189" lon="4.47469">
        <ele>1261.6</ele>
        <time>2022-01-27T13:11:18Z</time>
      </trkpt>
      <trkpt lat="45.29188" lon="4.47468">
        <ele>1261.8</ele>
        <time>2022-01-27T13:11:19Z</time>
      </trkpt>
      <trkpt lat="45.29188" lon="4.47466">
        <ele>1262</ele>
        <time>2022-01-27T13:11:20Z</time>
      </trkpt>
      <trkpt lat="45.29187" lon="4.47465">
        <ele>1262.2</ele>
        <time>2022-01-27T13:11:21Z</time>
      </trkpt>
      <trkpt lat="45.29186" lon="4.47463">
        <ele>1262.4</ele>
        <time>2022-01-27T13:11:23Z</time>
      </trkpt>
      <trkpt lat="45.29184" lon="4.47461">
        <ele>1262.6</ele>
        <time>2022-01-27T13:11:25Z</time>
      </trkpt>
      <trkpt lat="45.29182" lon="4.47459">
        <ele>1262.8</ele>
        <time>2022-01-27T13:11:27Z</time>
      </trkpt>
      <trkpt lat="45.29178" lon="4.47454">
        <ele>1263.6</ele>
        <time>2022-01-27T13:11:33Z</time>
      </trkpt>
      <trkpt lat="45.29177" lon="4.4745">
        <ele>1264</ele>
        <time>2022-01-27T13:11:36Z</time>
      </trkpt>
      <trkpt lat="45.29176" lon="4.4745">
        <ele>1264</ele>
        <time>2022-01-27T13:11:37Z</time>
      </trkpt>
      <trkpt lat="45.29172" lon="4.47446">
        <ele>1264.6</ele>
        <time>2022-01-27T13:11:42Z</time>
      </trkpt>
      <trkpt lat="45.29172" lon="4.47444">
        <ele>1264.8</ele>
        <time>2022-01-27T13:11:43Z</time>
      </trkpt>
      <trkpt lat="45.2917" lon="4.4744">
        <ele>1265</ele>
        <time>2022-01-27T13:11:46Z</time>
      </trkpt>
      <trkpt lat="45.29167" lon="4.47434">
        <ele>1265.8</ele>
        <time>2022-01-27T13:11:51Z</time>
      </trkpt>
      <trkpt lat="45.29165" lon="4.47431">
        <ele>1266</ele>
        <time>2022-01-27T13:11:53Z</time>
      </trkpt>
      <trkpt lat="45.29161" lon="4.47425">
        <ele>1267</ele>
        <time>2022-01-27T13:12:00Z</time>
      </trkpt>
      <trkpt lat="45.2916" lon="4.47423">
        <ele>1267.2</ele>
        <time>2022-01-27T13:12:02Z</time>
      </trkpt>
      <trkpt lat="45.29159" lon="4.47422">
        <ele>1267.2</ele>
        <time>2022-01-27T13:12:03Z</time>
      </trkpt>
      <trkpt lat="45.29155" lon="4.47415">
        <ele>1268</ele>
        <time>2022-01-27T13:12:08Z</time>
      </trkpt>
      <trkpt lat="45.29154" lon="4.47412">
        <ele>1268.2</ele>
        <time>2022-01-27T13:12:10Z</time>
      </trkpt>
      <trkpt lat="45.29154" lon="4.4741">
        <ele>1268.4</ele>
        <time>2022-01-27T13:12:12Z</time>
      </trkpt>
      <trkpt lat="45.29153" lon="4.4741">
        <ele>1268.6</ele>
        <time>2022-01-27T13:12:13Z</time>
      </trkpt>
      <trkpt lat="45.29151" lon="4.47407">
        <ele>1269.2</ele>
        <time>2022-01-27T13:12:16Z</time>
      </trkpt>
      <trkpt lat="45.29151" lon="4.47405">
        <ele>1269.2</ele>
        <time>2022-01-27T13:12:18Z</time>
      </trkpt>
      <trkpt lat="45.2915" lon="4.47403">
        <ele>1269.2</ele>
        <time>2022-01-27T13:12:19Z</time>
      </trkpt>
      <trkpt lat="45.29149" lon="4.474">
        <ele>1269.4</ele>
        <time>2022-01-27T13:12:21Z</time>
      </trkpt>
      <trkpt lat="45.29148" lon="4.47398">
        <ele>1269.8</ele>
        <time>2022-01-27T13:12:23Z</time>
      </trkpt>
      <trkpt lat="45.29145" lon="4.47396">
        <ele>1270.2</ele>
        <time>2022-01-27T13:12:26Z</time>
      </trkpt>
      <trkpt lat="45.29144" lon="4.47395">
        <ele>1270.2</ele>
        <time>2022-01-27T13:12:27Z</time>
      </trkpt>
      <trkpt lat="45.29141" lon="4.47392">
        <ele>1270.8</ele>
        <time>2022-01-27T13:12:30Z</time>
      </trkpt>
      <trkpt lat="45.2914" lon="4.47388">
        <ele>1271</ele>
        <time>2022-01-27T13:12:33Z</time>
      </trkpt>
      <trkpt lat="45.29137" lon="4.47383">
        <ele>1271.4</ele>
        <time>2022-01-27T13:12:37Z</time>
      </trkpt>
      <trkpt lat="45.29136" lon="4.47382">
        <ele>1271.6</ele>
        <time>2022-01-27T13:12:38Z</time>
      </trkpt>
      <trkpt lat="45.29133" lon="4.47376">
        <ele>1272.2</ele>
        <time>2022-01-27T13:12:43Z</time>
      </trkpt>
      <trkpt lat="45.29133" lon="4.47375">
        <ele>1272.4</ele>
        <time>2022-01-27T13:12:44Z</time>
      </trkpt>
      <trkpt lat="45.29132" lon="4.47373">
        <ele>1272.8</ele>
        <time>2022-01-27T13:12:46Z</time>
      </trkpt>
      <trkpt lat="45.29129" lon="4.47368">
        <ele>1273.4</ele>
        <time>2022-01-27T13:12:50Z</time>
      </trkpt>
      <trkpt lat="45.29127" lon="4.47366">
        <ele>1273.6</ele>
        <time>2022-01-27T13:12:52Z</time>
      </trkpt>
      <trkpt lat="45.29127" lon="4.47365">
        <ele>1273.8</ele>
        <time>2022-01-27T13:12:53Z</time>
      </trkpt>
      <trkpt lat="45.29124" lon="4.47361">
        <ele>1274.2</ele>
        <time>2022-01-27T13:12:56Z</time>
      </trkpt>
      <trkpt lat="45.29122" lon="4.4736">
        <ele>1274.4</ele>
        <time>2022-01-27T13:12:58Z</time>
      </trkpt>
      <trkpt lat="45.29118" lon="4.47354">
        <ele>1275.2</ele>
        <time>2022-01-27T13:13:03Z</time>
      </trkpt>
      <trkpt lat="45.29114" lon="4.47345">
        <ele>1275.6</ele>
        <time>2022-01-27T13:13:10Z</time>
      </trkpt>
      <trkpt lat="45.29113" lon="4.47341">
        <ele>1275.8</ele>
        <time>2022-01-27T13:13:13Z</time>
      </trkpt>
      <trkpt lat="45.29107" lon="4.47332">
        <ele>1276.6</ele>
        <time>2022-01-27T13:13:20Z</time>
      </trkpt>
      <trkpt lat="45.29105" lon="4.47329">
        <ele>1277</ele>
        <time>2022-01-27T13:13:23Z</time>
      </trkpt>
      <trkpt lat="45.29097" lon="4.47315">
        <ele>1277.2</ele>
        <time>2022-01-27T13:13:33Z</time>
      </trkpt>
      <trkpt lat="45.29095" lon="4.47311">
        <ele>1277.8</ele>
        <time>2022-01-27T13:13:38Z</time>
      </trkpt>
      <trkpt lat="45.29093" lon="4.4731">
        <ele>1278.2</ele>
        <time>2022-01-27T13:13:40Z</time>
      </trkpt>
      <trkpt lat="45.29091" lon="4.47307">
        <ele>1278.4</ele>
        <time>2022-01-27T13:13:43Z</time>
      </trkpt>
      <trkpt lat="45.2909" lon="4.47304">
        <ele>1278.8</ele>
        <time>2022-01-27T13:13:45Z</time>
      </trkpt>
      <trkpt lat="45.29084" lon="4.47293">
        <ele>1279.2</ele>
        <time>2022-01-27T13:13:53Z</time>
      </trkpt>
      <trkpt lat="45.2908" lon="4.47286">
        <ele>1279.4</ele>
        <time>2022-01-27T13:13:59Z</time>
      </trkpt>
      <trkpt lat="45.29076" lon="4.47282">
        <ele>1279.8</ele>
        <time>2022-01-27T13:14:03Z</time>
      </trkpt>
      <trkpt lat="45.29075" lon="4.47279">
        <ele>1279.8</ele>
        <time>2022-01-27T13:14:05Z</time>
      </trkpt>
      <trkpt lat="45.29067" lon="4.4727">
        <ele>1280.6</ele>
        <time>2022-01-27T13:14:13Z</time>
      </trkpt>
      <trkpt lat="45.29066" lon="4.47267">
        <ele>1281</ele>
        <time>2022-01-27T13:14:15Z</time>
      </trkpt>
      <trkpt lat="45.29064" lon="4.47263">
        <ele>1281.2</ele>
        <time>2022-01-27T13:14:18Z</time>
      </trkpt>
      <trkpt lat="45.29059" lon="4.47257">
        <ele>1281</ele>
        <time>2022-01-27T13:14:23Z</time>
      </trkpt>
      <trkpt lat="45.29057" lon="4.47251">
        <ele>1281.4</ele>
        <time>2022-01-27T13:14:27Z</time>
      </trkpt>
      <trkpt lat="45.29052" lon="4.47242">
        <ele>1281.6</ele>
        <time>2022-01-27T13:14:33Z</time>
      </trkpt>
      <trkpt lat="45.2905" lon="4.47238">
        <ele>1282</ele>
        <time>2022-01-27T13:14:36Z</time>
      </trkpt>
      <trkpt lat="45.29045" lon="4.47228">
        <ele>1282.6</ele>
        <time>2022-01-27T13:14:43Z</time>
      </trkpt>
      <trkpt lat="45.29043" lon="4.47223">
        <ele>1283</ele>
        <time>2022-01-27T13:14:47Z</time>
      </trkpt>
      <trkpt lat="45.29041" lon="4.47218">
        <ele>1283.2</ele>
        <time>2022-01-27T13:14:51Z</time>
      </trkpt>
      <trkpt lat="45.2904" lon="4.47214">
        <ele>1283.4</ele>
        <time>2022-01-27T13:14:53Z</time>
      </trkpt>
      <trkpt lat="45.29037" lon="4.47206">
        <ele>1284.2</ele>
        <time>2022-01-27T13:14:57Z</time>
      </trkpt>
      <trkpt lat="45.29035" lon="4.47203">
        <ele>1284.6</ele>
        <time>2022-01-27T13:15:00Z</time>
      </trkpt>
      <trkpt lat="45.29033" lon="4.47198">
        <ele>1285</ele>
        <time>2022-01-27T13:15:03Z</time>
      </trkpt>
      <trkpt lat="45.29031" lon="4.47199">
        <ele>1285</ele>
        <time>2022-01-27T13:15:05Z</time>
      </trkpt>
      <trkpt lat="45.2903" lon="4.47198">
        <ele>1285.2</ele>
        <time>2022-01-27T13:15:06Z</time>
      </trkpt>
      <trkpt lat="45.29028" lon="4.47192">
        <ele>1285.6</ele>
        <time>2022-01-27T13:15:10Z</time>
      </trkpt>
      <trkpt lat="45.29026" lon="4.47188">
        <ele>1286</ele>
        <time>2022-01-27T13:15:13Z</time>
      </trkpt>
      <trkpt lat="45.29024" lon="4.47182">
        <ele>1286.2</ele>
        <time>2022-01-27T13:15:16Z</time>
      </trkpt>
      <trkpt lat="45.29022" lon="4.47183">
        <ele>1286.6</ele>
        <time>2022-01-27T13:15:18Z</time>
      </trkpt>
      <trkpt lat="45.2902" lon="4.47183">
        <ele>1286.6</ele>
        <time>2022-01-27T13:15:19Z</time>
      </trkpt>
      <trkpt lat="45.29019" lon="4.4718">
        <ele>1286.8</ele>
        <time>2022-01-27T13:15:21Z</time>
      </trkpt>
      <trkpt lat="45.29017" lon="4.47178">
        <ele>1287.2</ele>
        <time>2022-01-27T13:15:23Z</time>
      </trkpt>
      <trkpt lat="45.29016" lon="4.47177">
        <ele>1287.4</ele>
        <time>2022-01-27T13:15:24Z</time>
      </trkpt>
      <trkpt lat="45.29013" lon="4.47173">
        <ele>1287.6</ele>
        <time>2022-01-27T13:15:26Z</time>
      </trkpt>
      <trkpt lat="45.29012" lon="4.47171">
        <ele>1288</ele>
        <time>2022-01-27T13:15:28Z</time>
      </trkpt>
      <trkpt lat="45.29009" lon="4.47169">
        <ele>1288.6</ele>
        <time>2022-01-27T13:15:32Z</time>
      </trkpt>
      <trkpt lat="45.29008" lon="4.47168">
        <ele>1288.8</ele>
        <time>2022-01-27T13:15:33Z</time>
      </trkpt>
      <trkpt lat="45.29006" lon="4.47165">
        <ele>1289.2</ele>
        <time>2022-01-27T13:15:36Z</time>
      </trkpt>
      <trkpt lat="45.29006" lon="4.47159">
        <ele>1289.6</ele>
        <time>2022-01-27T13:15:39Z</time>
      </trkpt>
      <trkpt lat="45.29005" lon="4.47158">
        <ele>1289.6</ele>
        <time>2022-01-27T13:15:40Z</time>
      </trkpt>
      <trkpt lat="45.29003" lon="4.47156">
        <ele>1289.8</ele>
        <time>2022-01-27T13:15:42Z</time>
      </trkpt>
      <trkpt lat="45.29003" lon="4.47153">
        <ele>1290</ele>
        <time>2022-01-27T13:15:43Z</time>
      </trkpt>
      <trkpt lat="45.29001" lon="4.47148">
        <ele>1290.4</ele>
        <time>2022-01-27T13:15:47Z</time>
      </trkpt>
      <trkpt lat="45.29" lon="4.47145">
        <ele>1290.6</ele>
        <time>2022-01-27T13:15:49Z</time>
      </trkpt>
      <trkpt lat="45.29" lon="4.47143">
        <ele>1290.8</ele>
        <time>2022-01-27T13:15:50Z</time>
      </trkpt>
      <trkpt lat="45.28998" lon="4.47141">
        <ele>1291.2</ele>
        <time>2022-01-27T13:15:53Z</time>
      </trkpt>
      <trkpt lat="45.28998" lon="4.47139">
        <ele>1291.4</ele>
        <time>2022-01-27T13:15:54Z</time>
      </trkpt>
      <trkpt lat="45.28996" lon="4.47135">
        <ele>1291.8</ele>
        <time>2022-01-27T13:15:57Z</time>
      </trkpt>
      <trkpt lat="45.28995" lon="4.47134">
        <ele>1292</ele>
        <time>2022-01-27T13:15:58Z</time>
      </trkpt>
      <trkpt lat="45.28993" lon="4.47127">
        <ele>1292.6</ele>
        <time>2022-01-27T13:16:02Z</time>
      </trkpt>
      <trkpt lat="45.28992" lon="4.47126">
        <ele>1292.6</ele>
        <time>2022-01-27T13:16:03Z</time>
      </trkpt>
      <trkpt lat="45.28989" lon="4.47123">
        <ele>1293</ele>
        <time>2022-01-27T13:16:06Z</time>
      </trkpt>
      <trkpt lat="45.28986" lon="4.47119">
        <ele>1293.4</ele>
        <time>2022-01-27T13:16:09Z</time>
      </trkpt>
      <trkpt lat="45.28984" lon="4.47117">
        <ele>1293.8</ele>
        <time>2022-01-27T13:16:12Z</time>
      </trkpt>
      <trkpt lat="45.28983" lon="4.47114">
        <ele>1294</ele>
        <time>2022-01-27T13:16:13Z</time>
      </trkpt>
      <trkpt lat="45.28982" lon="4.47111">
        <ele>1294.4</ele>
        <time>2022-01-27T13:16:15Z</time>
      </trkpt>
      <trkpt lat="45.28981" lon="4.4711">
        <ele>1294.8</ele>
        <time>2022-01-27T13:16:17Z</time>
      </trkpt>
      <trkpt lat="45.2898" lon="4.47106">
        <ele>1295</ele>
        <time>2022-01-27T13:16:19Z</time>
      </trkpt>
      <trkpt lat="45.28978" lon="4.47103">
        <ele>1295.6</ele>
        <time>2022-01-27T13:16:22Z</time>
      </trkpt>
      <trkpt lat="45.28977" lon="4.47102">
        <ele>1295.8</ele>
        <time>2022-01-27T13:16:23Z</time>
      </trkpt>
      <trkpt lat="45.28976" lon="4.47101">
        <ele>1295.8</ele>
        <time>2022-01-27T13:16:24Z</time>
      </trkpt>
      <trkpt lat="45.28973" lon="4.47096">
        <ele>1296.2</ele>
        <time>2022-01-27T13:16:27Z</time>
      </trkpt>
      <trkpt lat="45.28972" lon="4.47096">
        <ele>1296.4</ele>
        <time>2022-01-27T13:16:28Z</time>
      </trkpt>
      <trkpt lat="45.2897" lon="4.47094">
        <ele>1296.6</ele>
        <time>2022-01-27T13:16:30Z</time>
      </trkpt>
      <trkpt lat="45.2897" lon="4.47093">
        <ele>1296.6</ele>
        <time>2022-01-27T13:16:31Z</time>
      </trkpt>
      <trkpt lat="45.28969" lon="4.47091">
        <ele>1296.8</ele>
        <time>2022-01-27T13:16:32Z</time>
      </trkpt>
      <trkpt lat="45.28968" lon="4.4709">
        <ele>1297</ele>
        <time>2022-01-27T13:16:33Z</time>
      </trkpt>
      <trkpt lat="45.28967" lon="4.47089">
        <ele>1297.2</ele>
        <time>2022-01-27T13:16:34Z</time>
      </trkpt>
      <trkpt lat="45.28965" lon="4.47088">
        <ele>1297.4</ele>
        <time>2022-01-27T13:16:36Z</time>
      </trkpt>
      <trkpt lat="45.28964" lon="4.47086">
        <ele>1297.6</ele>
        <time>2022-01-27T13:16:38Z</time>
      </trkpt>
      <trkpt lat="45.28962" lon="4.47084">
        <ele>1297.8</ele>
        <time>2022-01-27T13:16:40Z</time>
      </trkpt>
      <trkpt lat="45.2896" lon="4.47081">
        <ele>1297.8</ele>
        <time>2022-01-27T13:16:43Z</time>
      </trkpt>
      <trkpt lat="45.28957" lon="4.47078">
        <ele>1298.2</ele>
        <time>2022-01-27T13:16:46Z</time>
      </trkpt>
      <trkpt lat="45.28954" lon="4.47078">
        <ele>1298.2</ele>
        <time>2022-01-27T13:16:48Z</time>
      </trkpt>
      <trkpt lat="45.2895" lon="4.47072">
        <ele>1298.4</ele>
        <time>2022-01-27T13:16:53Z</time>
      </trkpt>
      <trkpt lat="45.28942" lon="4.47062">
        <ele>1298.6</ele>
        <time>2022-01-27T13:17:03Z</time>
      </trkpt>
      <trkpt lat="45.28936" lon="4.47054">
        <ele>1299</ele>
        <time>2022-01-27T13:17:11Z</time>
      </trkpt>
      <trkpt lat="45.28934" lon="4.47053">
        <ele>1299</ele>
        <time>2022-01-27T13:17:13Z</time>
      </trkpt>
      <trkpt lat="45.28932" lon="4.47049">
        <ele>1299</ele>
        <time>2022-01-27T13:17:16Z</time>
      </trkpt>
      <trkpt lat="45.28934" lon="4.47044">
        <ele>1299.2</ele>
        <time>2022-01-27T13:17:20Z</time>
      </trkpt>
      <trkpt lat="45.28934" lon="4.47041">
        <ele>1299.6</ele>
        <time>2022-01-27T13:17:23Z</time>
      </trkpt>
      <trkpt lat="45.28936" lon="4.47039">
        <ele>1300.2</ele>
        <time>2022-01-27T13:17:26Z</time>
      </trkpt>
      <trkpt lat="45.28937" lon="4.47039">
        <ele>1300.2</ele>
        <time>2022-01-27T13:17:27Z</time>
      </trkpt>
      <trkpt lat="45.28937" lon="4.47038">
        <ele>1300.4</ele>
        <time>2022-01-27T13:17:28Z</time>
      </trkpt>
      <trkpt lat="45.2894" lon="4.47039">
        <ele>1300.4</ele>
        <time>2022-01-27T13:17:33Z</time>
      </trkpt>
      <trkpt lat="45.28941" lon="4.47038">
        <ele>1300.8</ele>
        <time>2022-01-27T13:17:43Z</time>
      </trkpt>
      <trkpt lat="45.28941" lon="4.47039">
        <ele>1301</ele>
        <time>2022-01-27T13:18:03Z</time>
      </trkpt>
      <trkpt lat="45.28942" lon="4.47039">
        <ele>1301</ele>
        <time>2022-01-27T13:18:28Z</time>
      </trkpt>
      <trkpt lat="45.28941" lon="4.47039">
        <ele>1300.6</ele>
        <time>2022-01-27T13:19:23Z</time>
      </trkpt>
      <trkpt lat="45.28941" lon="4.4704">
        <ele>1300.6</ele>
        <time>2022-01-27T13:19:33Z</time>
      </trkpt>
      <trkpt lat="45.28943" lon="4.47042">
        <ele>1300.6</ele>
        <time>2022-01-27T13:19:43Z</time>
      </trkpt>
      <trkpt lat="45.28942" lon="4.47042">
        <ele>1300.6</ele>
        <time>2022-01-27T13:19:53Z</time>
      </trkpt>
      <trkpt lat="45.2894" lon="4.47042">
        <ele>1300.6</ele>
        <time>2022-01-27T13:20:23Z</time>
      </trkpt>
      <trkpt lat="45.28938" lon="4.47043">
        <ele>1300.6</ele>
        <time>2022-01-27T13:20:32Z</time>
      </trkpt>
      <trkpt lat="45.28937" lon="4.47043">
        <ele>1300.6</ele>
        <time>2022-01-27T13:20:33Z</time>
      </trkpt>
      <trkpt lat="45.28937" lon="4.47042">
        <ele>1300.6</ele>
        <time>2022-01-27T13:20:43Z</time>
      </trkpt>
      <trkpt lat="45.28938" lon="4.47041">
        <ele>1300.6</ele>
        <time>2022-01-27T13:20:53Z</time>
      </trkpt>
      <trkpt lat="45.28942" lon="4.47038">
        <ele>1300.6</ele>
        <time>2022-01-27T13:21:03Z</time>
      </trkpt>
      <trkpt lat="45.28943" lon="4.47036">
        <ele>1300.6</ele>
        <time>2022-01-27T13:21:13Z</time>
      </trkpt>
      <trkpt lat="45.28943" lon="4.47037">
        <ele>1300.6</ele>
        <time>2022-01-27T13:21:23Z</time>
      </trkpt>
      <trkpt lat="45.28942" lon="4.47037">
        <ele>1300.6</ele>
        <time>2022-01-27T13:21:29Z</time>
      </trkpt>
      <trkpt lat="45.28942" lon="4.47036">
        <ele>1300.6</ele>
        <time>2022-01-27T13:21:33Z</time>
      </trkpt>
      <trkpt lat="45.28943" lon="4.47036">
        <ele>1300.6</ele>
        <time>2022-01-27T13:21:41Z</time>
      </trkpt>
      <trkpt lat="45.28942" lon="4.47037">
        <ele>1300.6</ele>
        <time>2022-01-27T13:21:43Z</time>
      </trkpt>
      <trkpt lat="45.28942" lon="4.47038">
        <ele>1300.6</ele>
        <time>2022-01-27T13:21:53Z</time>
      </trkpt>
      <trkpt lat="45.28941" lon="4.47039">
        <ele>1300.6</ele>
        <time>2022-01-27T13:21:58Z</time>
      </trkpt>
      <trkpt lat="45.28854" lon="4.46866">
        <ele>1290.4</ele>
        <time>2022-01-27T13:27:58Z</time>
      </trkpt>
      <trkpt lat="45.28852" lon="4.46865">
        <ele>1290</ele>
        <time>2022-01-27T13:28:01Z</time>
      </trkpt>
      <trkpt lat="45.28851" lon="4.46862">
        <ele>1290</ele>
        <time>2022-01-27T13:28:03Z</time>
      </trkpt>
      <trkpt lat="45.28844" lon="4.46849">
        <ele>1289.4</ele>
        <time>2022-01-27T13:28:13Z</time>
      </trkpt>
      <trkpt lat="45.28842" lon="4.46847">
        <ele>1289</ele>
        <time>2022-01-27T13:28:16Z</time>
      </trkpt>
      <trkpt lat="45.28836" lon="4.46839">
        <ele>1288.4</ele>
        <time>2022-01-27T13:28:23Z</time>
      </trkpt>
      <trkpt lat="45.28832" lon="4.4683">
        <ele>1288</ele>
        <time>2022-01-27T13:28:28Z</time>
      </trkpt>
      <trkpt lat="45.28832" lon="4.46828">
        <ele>1287.6</ele>
        <time>2022-01-27T13:28:30Z</time>
      </trkpt>
      <trkpt lat="45.28831" lon="4.46822">
        <ele>1287.4</ele>
        <time>2022-01-27T13:28:33Z</time>
      </trkpt>
      <trkpt lat="45.28829" lon="4.46819">
        <ele>1287.2</ele>
        <time>2022-01-27T13:28:35Z</time>
      </trkpt>
      <trkpt lat="45.28828" lon="4.46818">
        <ele>1287</ele>
        <time>2022-01-27T13:28:36Z</time>
      </trkpt>
      <trkpt lat="45.28822" lon="4.46811">
        <ele>1286.2</ele>
        <time>2022-01-27T13:28:43Z</time>
      </trkpt>
      <trkpt lat="45.2882" lon="4.46806">
        <ele>1285.8</ele>
        <time>2022-01-27T13:28:46Z</time>
      </trkpt>
      <trkpt lat="45.28816" lon="4.46796">
        <ele>1285</ele>
        <time>2022-01-27T13:28:53Z</time>
      </trkpt>
      <trkpt lat="45.28816" lon="4.46794">
        <ele>1284.8</ele>
        <time>2022-01-27T13:28:54Z</time>
      </trkpt>
      <trkpt lat="45.2881" lon="4.46783">
        <ele>1284.2</ele>
        <time>2022-01-27T13:29:03Z</time>
      </trkpt>
      <trkpt lat="45.28803" lon="4.4677">
        <ele>1283.8</ele>
        <time>2022-01-27T13:29:13Z</time>
      </trkpt>
      <trkpt lat="45.28797" lon="4.46756">
        <ele>1283.4</ele>
        <time>2022-01-27T13:29:23Z</time>
      </trkpt>
      <trkpt lat="45.2879" lon="4.46744">
        <ele>1283</ele>
        <time>2022-01-27T13:29:33Z</time>
      </trkpt>
      <trkpt lat="45.28782" lon="4.46732">
        <ele>1283</ele>
        <time>2022-01-27T13:29:43Z</time>
      </trkpt>
      <trkpt lat="45.28775" lon="4.46723">
        <ele>1283.2</ele>
        <time>2022-01-27T13:29:53Z</time>
      </trkpt>
      <trkpt lat="45.2877" lon="4.46719">
        <ele>1283</ele>
        <time>2022-01-27T13:30:00Z</time>
      </trkpt>
      <trkpt lat="45.2877" lon="4.4672">
        <ele>1283</ele>
        <time>2022-01-27T13:30:02Z</time>
      </trkpt>
      <trkpt lat="45.28769" lon="4.46719">
        <ele>1283</ele>
        <time>2022-01-27T13:30:23Z</time>
      </trkpt>
      <trkpt lat="45.2877" lon="4.46719">
        <ele>1283</ele>
        <time>2022-01-27T13:30:29Z</time>
      </trkpt>
      <trkpt lat="45.2877" lon="4.4672">
        <ele>1283.6</ele>
        <time>2022-01-27T13:31:13Z</time>
      </trkpt>
      <trkpt lat="45.2877" lon="4.46721">
        <ele>1284.4</ele>
        <time>2022-01-27T13:31:43Z</time>
      </trkpt>
      <trkpt lat="45.28768" lon="4.46723">
        <ele>1284.8</ele>
        <time>2022-01-27T13:32:00Z</time>
      </trkpt>
      <trkpt lat="45.28766" lon="4.46723">
        <ele>1285</ele>
        <time>2022-01-27T13:32:03Z</time>
      </trkpt>
      <trkpt lat="45.28764" lon="4.46723">
        <ele>1285.2</ele>
        <time>2022-01-27T13:32:05Z</time>
      </trkpt>
      <trkpt lat="45.28762" lon="4.46724">
        <ele>1285.2</ele>
        <time>2022-01-27T13:32:09Z</time>
      </trkpt>
      <trkpt lat="45.28761" lon="4.46723">
        <ele>1285.2</ele>
        <time>2022-01-27T13:32:10Z</time>
      </trkpt>
      <trkpt lat="45.2876" lon="4.46723">
        <ele>1285.2</ele>
        <time>2022-01-27T13:32:11Z</time>
      </trkpt>
      <trkpt lat="45.2876" lon="4.46724">
        <ele>1285.4</ele>
        <time>2022-01-27T13:32:12Z</time>
      </trkpt>
      <trkpt lat="45.28759" lon="4.46724">
        <ele>1285.4</ele>
        <time>2022-01-27T13:32:13Z</time>
      </trkpt>
      <trkpt lat="45.28758" lon="4.46724">
        <ele>1285.6</ele>
        <time>2022-01-27T13:32:15Z</time>
      </trkpt>
      <trkpt lat="45.28756" lon="4.46725">
        <ele>1285.8</ele>
        <time>2022-01-27T13:32:17Z</time>
      </trkpt>
      <trkpt lat="45.28756" lon="4.46726">
        <ele>1286</ele>
        <time>2022-01-27T13:32:18Z</time>
      </trkpt>
      <trkpt lat="45.28755" lon="4.46727">
        <ele>1286.2</ele>
        <time>2022-01-27T13:32:19Z</time>
      </trkpt>
      <trkpt lat="45.28754" lon="4.46727">
        <ele>1286.2</ele>
        <time>2022-01-27T13:32:20Z</time>
      </trkpt>
      <trkpt lat="45.28753" lon="4.46728">
        <ele>1286.2</ele>
        <time>2022-01-27T13:32:22Z</time>
      </trkpt>
      <trkpt lat="45.28752" lon="4.46729">
        <ele>1286.4</ele>
        <time>2022-01-27T13:32:24Z</time>
      </trkpt>
      <trkpt lat="45.28749" lon="4.46734">
        <ele>1286.8</ele>
        <time>2022-01-27T13:32:29Z</time>
      </trkpt>
      <trkpt lat="45.28749" lon="4.46736">
        <ele>1287</ele>
        <time>2022-01-27T13:32:30Z</time>
      </trkpt>
      <trkpt lat="45.28748" lon="4.46737">
        <ele>1287</ele>
        <time>2022-01-27T13:32:31Z</time>
      </trkpt>
      <trkpt lat="45.28747" lon="4.46738">
        <ele>1287.2</ele>
        <time>2022-01-27T13:32:32Z</time>
      </trkpt>
      <trkpt lat="45.28747" lon="4.46739">
        <ele>1287.2</ele>
        <time>2022-01-27T13:32:33Z</time>
      </trkpt>
      <trkpt lat="45.28745" lon="4.46742">
        <ele>1287.6</ele>
        <time>2022-01-27T13:32:35Z</time>
      </trkpt>
      <trkpt lat="45.28744" lon="4.46744">
        <ele>1287.8</ele>
        <time>2022-01-27T13:32:37Z</time>
      </trkpt>
      <trkpt lat="45.28743" lon="4.46746">
        <ele>1288</ele>
        <time>2022-01-27T13:32:39Z</time>
      </trkpt>
      <trkpt lat="45.28743" lon="4.46747">
        <ele>1288.2</ele>
        <time>2022-01-27T13:32:40Z</time>
      </trkpt>
      <trkpt lat="45.28742" lon="4.46749">
        <ele>1288.4</ele>
        <time>2022-01-27T13:32:42Z</time>
      </trkpt>
      <trkpt lat="45.28741" lon="4.46749">
        <ele>1288.6</ele>
        <time>2022-01-27T13:32:43Z</time>
      </trkpt>
      <trkpt lat="45.28737" lon="4.46755">
        <ele>1288.8</ele>
        <time>2022-01-27T13:32:49Z</time>
      </trkpt>
      <trkpt lat="45.28735" lon="4.46758">
        <ele>1289.2</ele>
        <time>2022-01-27T13:32:52Z</time>
      </trkpt>
      <trkpt lat="45.28735" lon="4.46759">
        <ele>1289.2</ele>
        <time>2022-01-27T13:32:53Z</time>
      </trkpt>
      <trkpt lat="45.28731" lon="4.46765">
        <ele>1289.6</ele>
        <time>2022-01-27T13:32:59Z</time>
      </trkpt>
      <trkpt lat="45.28728" lon="4.4677">
        <ele>1290</ele>
        <time>2022-01-27T13:33:03Z</time>
      </trkpt>
      <trkpt lat="45.28728" lon="4.46772">
        <ele>1290</ele>
        <time>2022-01-27T13:33:04Z</time>
      </trkpt>
      <trkpt lat="45.28728" lon="4.46773">
        <ele>1290</ele>
        <time>2022-01-27T13:33:05Z</time>
      </trkpt>
      <trkpt lat="45.28726" lon="4.46775">
        <ele>1290</ele>
        <time>2022-01-27T13:33:07Z</time>
      </trkpt>
      <trkpt lat="45.28724" lon="4.4678">
        <ele>1290.2</ele>
        <time>2022-01-27T13:33:11Z</time>
      </trkpt>
      <trkpt lat="45.28723" lon="4.46782">
        <ele>1290.4</ele>
        <time>2022-01-27T13:33:13Z</time>
      </trkpt>
      <trkpt lat="45.28716" lon="4.46796">
        <ele>1291</ele>
        <time>2022-01-27T13:33:23Z</time>
      </trkpt>
      <trkpt lat="45.28713" lon="4.46802">
        <ele>1291.2</ele>
        <time>2022-01-27T13:33:28Z</time>
      </trkpt>
      <trkpt lat="45.28709" lon="4.46808">
        <ele>1291.4</ele>
        <time>2022-01-27T13:33:33Z</time>
      </trkpt>
      <trkpt lat="45.28705" lon="4.46813">
        <ele>1291.4</ele>
        <time>2022-01-27T13:33:38Z</time>
      </trkpt>
      <trkpt lat="45.28701" lon="4.4682">
        <ele>1291.4</ele>
        <time>2022-01-27T13:33:43Z</time>
      </trkpt>
      <trkpt lat="45.28697" lon="4.4683">
        <ele>1291.4</ele>
        <time>2022-01-27T13:33:50Z</time>
      </trkpt>
      <trkpt lat="45.28695" lon="4.46834">
        <ele>1291.4</ele>
        <time>2022-01-27T13:33:53Z</time>
      </trkpt>
      <trkpt lat="45.28692" lon="4.46841">
        <ele>1291.4</ele>
        <time>2022-01-27T13:33:58Z</time>
      </trkpt>
      <trkpt lat="45.2869" lon="4.46849">
        <ele>1291.4</ele>
        <time>2022-01-27T13:34:03Z</time>
      </trkpt>
      <trkpt lat="45.28688" lon="4.46854">
        <ele>1291.2</ele>
        <time>2022-01-27T13:34:07Z</time>
      </trkpt>
      <trkpt lat="45.28685" lon="4.46863">
        <ele>1291.2</ele>
        <time>2022-01-27T13:34:13Z</time>
      </trkpt>
      <trkpt lat="45.2868" lon="4.46878">
        <ele>1291</ele>
        <time>2022-01-27T13:34:22Z</time>
      </trkpt>
      <trkpt lat="45.28679" lon="4.46879">
        <ele>1291</ele>
        <time>2022-01-27T13:34:23Z</time>
      </trkpt>
      <trkpt lat="45.28675" lon="4.46891">
        <ele>1290.8</ele>
        <time>2022-01-27T13:34:31Z</time>
      </trkpt>
      <trkpt lat="45.28674" lon="4.46894">
        <ele>1290.8</ele>
        <time>2022-01-27T13:34:33Z</time>
      </trkpt>
      <trkpt lat="45.28668" lon="4.46909">
        <ele>1290.4</ele>
        <time>2022-01-27T13:34:43Z</time>
      </trkpt>
      <trkpt lat="45.28664" lon="4.46919">
        <ele>1290.2</ele>
        <time>2022-01-27T13:34:49Z</time>
      </trkpt>
      <trkpt lat="45.28664" lon="4.4692">
        <ele>1290.2</ele>
        <time>2022-01-27T13:34:50Z</time>
      </trkpt>
      <trkpt lat="45.28662" lon="4.46925">
        <ele>1290</ele>
        <time>2022-01-27T13:34:53Z</time>
      </trkpt>
      <trkpt lat="45.28656" lon="4.46941">
        <ele>1289.6</ele>
        <time>2022-01-27T13:35:03Z</time>
      </trkpt>
      <trkpt lat="45.28655" lon="4.46947">
        <ele>1289.4</ele>
        <time>2022-01-27T13:35:06Z</time>
      </trkpt>
      <trkpt lat="45.28654" lon="4.46952">
        <ele>1289</ele>
        <time>2022-01-27T13:35:09Z</time>
      </trkpt>
      <trkpt lat="45.28651" lon="4.4696">
        <ele>1288.4</ele>
        <time>2022-01-27T13:35:13Z</time>
      </trkpt>
      <trkpt lat="45.28649" lon="4.46966">
        <ele>1288</ele>
        <time>2022-01-27T13:35:17Z</time>
      </trkpt>
      <trkpt lat="45.28645" lon="4.46976">
        <ele>1287.6</ele>
        <time>2022-01-27T13:35:23Z</time>
      </trkpt>
      <trkpt lat="45.28639" lon="4.46992">
        <ele>1287</ele>
        <time>2022-01-27T13:35:33Z</time>
      </trkpt>
      <trkpt lat="45.28637" lon="4.46997">
        <ele>1286.8</ele>
        <time>2022-01-27T13:35:36Z</time>
      </trkpt>
      <trkpt lat="45.28633" lon="4.47008">
        <ele>1286.2</ele>
        <time>2022-01-27T13:35:43Z</time>
      </trkpt>
      <trkpt lat="45.28632" lon="4.47014">
        <ele>1286</ele>
        <time>2022-01-27T13:35:46Z</time>
      </trkpt>
      <trkpt lat="45.28628" lon="4.47027">
        <ele>1284.8</ele>
        <time>2022-01-27T13:35:53Z</time>
      </trkpt>
      <trkpt lat="45.28624" lon="4.47045">
        <ele>1284.2</ele>
        <time>2022-01-27T13:36:03Z</time>
      </trkpt>
      <trkpt lat="45.28623" lon="4.47051">
        <ele>1283.8</ele>
        <time>2022-01-27T13:36:06Z</time>
      </trkpt>
      <trkpt lat="45.2862" lon="4.47064">
        <ele>1283.2</ele>
        <time>2022-01-27T13:36:13Z</time>
      </trkpt>
      <trkpt lat="45.28619" lon="4.47071">
        <ele>1282.8</ele>
        <time>2022-01-27T13:36:17Z</time>
      </trkpt>
      <trkpt lat="45.28618" lon="4.47082">
        <ele>1282</ele>
        <time>2022-01-27T13:36:23Z</time>
      </trkpt>
      <trkpt lat="45.28617" lon="4.47093">
        <ele>1281.6</ele>
        <time>2022-01-27T13:36:29Z</time>
      </trkpt>
      <trkpt lat="45.28616" lon="4.47101">
        <ele>1281</ele>
        <time>2022-01-27T13:36:33Z</time>
      </trkpt>
      <trkpt lat="45.28616" lon="4.47106">
        <ele>1280.8</ele>
        <time>2022-01-27T13:36:36Z</time>
      </trkpt>
      <trkpt lat="45.28615" lon="4.4711">
        <ele>1280.6</ele>
        <time>2022-01-27T13:36:38Z</time>
      </trkpt>
      <trkpt lat="45.28614" lon="4.47118">
        <ele>1280.4</ele>
        <time>2022-01-27T13:36:43Z</time>
      </trkpt>
      <trkpt lat="45.28613" lon="4.47129">
        <ele>1279.4</ele>
        <time>2022-01-27T13:36:49Z</time>
      </trkpt>
      <trkpt lat="45.28613" lon="4.47136">
        <ele>1279</ele>
        <time>2022-01-27T13:36:53Z</time>
      </trkpt>
      <trkpt lat="45.28613" lon="4.47151">
        <ele>1278.2</ele>
        <time>2022-01-27T13:37:01Z</time>
      </trkpt>
      <trkpt lat="45.28612" lon="4.47155">
        <ele>1278</ele>
        <time>2022-01-27T13:37:03Z</time>
      </trkpt>
      <trkpt lat="45.28612" lon="4.47167">
        <ele>1277.2</ele>
        <time>2022-01-27T13:37:10Z</time>
      </trkpt>
      <trkpt lat="45.28611" lon="4.47173">
        <ele>1276.8</ele>
        <time>2022-01-27T13:37:13Z</time>
      </trkpt>
      <trkpt lat="45.28614" lon="4.47189">
        <ele>1276.6</ele>
        <time>2022-01-27T13:37:23Z</time>
      </trkpt>
      <trkpt lat="45.28615" lon="4.47195">
        <ele>1276.6</ele>
        <time>2022-01-27T13:37:27Z</time>
      </trkpt>
      <trkpt lat="45.28616" lon="4.47198">
        <ele>1276.6</ele>
        <time>2022-01-27T13:37:30Z</time>
      </trkpt>
      <trkpt lat="45.28617" lon="4.47203">
        <ele>1276.6</ele>
        <time>2022-01-27T13:37:33Z</time>
      </trkpt>
      <trkpt lat="45.28628" lon="4.47218">
        <ele>1276.4</ele>
        <time>2022-01-27T13:37:42Z</time>
      </trkpt>
      <trkpt lat="45.28629" lon="4.47219">
        <ele>1276.4</ele>
        <time>2022-01-27T13:37:43Z</time>
      </trkpt>
      <trkpt lat="45.28635" lon="4.47233">
        <ele>1276.6</ele>
        <time>2022-01-27T13:37:53Z</time>
      </trkpt>
      <trkpt lat="45.28642" lon="4.47247">
        <ele>1276.4</ele>
        <time>2022-01-27T13:38:03Z</time>
      </trkpt>
      <trkpt lat="45.28643" lon="4.47251">
        <ele>1276.6</ele>
        <time>2022-01-27T13:38:06Z</time>
      </trkpt>
      <trkpt lat="45.2865" lon="4.4726">
        <ele>1276.4</ele>
        <time>2022-01-27T13:38:13Z</time>
      </trkpt>
      <trkpt lat="45.28659" lon="4.47274">
        <ele>1276.8</ele>
        <time>2022-01-27T13:38:23Z</time>
      </trkpt>
      <trkpt lat="45.28665" lon="4.47284">
        <ele>1276.6</ele>
        <time>2022-01-27T13:38:33Z</time>
      </trkpt>
      <trkpt lat="45.28668" lon="4.47288">
        <ele>1276.6</ele>
        <time>2022-01-27T13:38:36Z</time>
      </trkpt>
      <trkpt lat="45.28675" lon="4.47296">
        <ele>1277.2</ele>
        <time>2022-01-27T13:38:43Z</time>
      </trkpt>
      <trkpt lat="45.28677" lon="4.47299">
        <ele>1277</ele>
        <time>2022-01-27T13:38:46Z</time>
      </trkpt>
      <trkpt lat="45.2868" lon="4.47303">
        <ele>1276.8</ele>
        <time>2022-01-27T13:38:49Z</time>
      </trkpt>
      <trkpt lat="45.28683" lon="4.47307">
        <ele>1276.8</ele>
        <time>2022-01-27T13:38:52Z</time>
      </trkpt>
      <trkpt lat="45.28684" lon="4.47308">
        <ele>1276.8</ele>
        <time>2022-01-27T13:38:53Z</time>
      </trkpt>
      <trkpt lat="45.28695" lon="4.47318">
        <ele>1276.2</ele>
        <time>2022-01-27T13:39:02Z</time>
      </trkpt>
      <trkpt lat="45.28696" lon="4.47319">
        <ele>1276.2</ele>
        <time>2022-01-27T13:39:03Z</time>
      </trkpt>
      <trkpt lat="45.28705" lon="4.47326">
        <ele>1275.8</ele>
        <time>2022-01-27T13:39:13Z</time>
      </trkpt>
      <trkpt lat="45.28708" lon="4.47329">
        <ele>1275</ele>
        <time>2022-01-27T13:39:16Z</time>
      </trkpt>
      <trkpt lat="45.28715" lon="4.47334">
        <ele>1274</ele>
        <time>2022-01-27T13:39:23Z</time>
      </trkpt>
      <trkpt lat="45.28721" lon="4.47337">
        <ele>1273</ele>
        <time>2022-01-27T13:39:29Z</time>
      </trkpt>
      <trkpt lat="45.28726" lon="4.4734">
        <ele>1272.4</ele>
        <time>2022-01-27T13:39:33Z</time>
      </trkpt>
      <trkpt lat="45.28736" lon="4.47346">
        <ele>1271.8</ele>
        <time>2022-01-27T13:39:41Z</time>
      </trkpt>
      <trkpt lat="45.28738" lon="4.47346">
        <ele>1271.6</ele>
        <time>2022-01-27T13:39:43Z</time>
      </trkpt>
      <trkpt lat="45.28744" lon="4.47348">
        <ele>1271.2</ele>
        <time>2022-01-27T13:39:47Z</time>
      </trkpt>
      <trkpt lat="45.28751" lon="4.47351">
        <ele>1270.6</ele>
        <time>2022-01-27T13:39:52Z</time>
      </trkpt>
      <trkpt lat="45.28753" lon="4.47351">
        <ele>1270.6</ele>
        <time>2022-01-27T13:39:53Z</time>
      </trkpt>
      <trkpt lat="45.28762" lon="4.47356">
        <ele>1269.8</ele>
        <time>2022-01-27T13:40:01Z</time>
      </trkpt>
      <trkpt lat="45.28763" lon="4.47356">
        <ele>1269.6</ele>
        <time>2022-01-27T13:40:02Z</time>
      </trkpt>
      <trkpt lat="45.28764" lon="4.47357">
        <ele>1269.6</ele>
        <time>2022-01-27T13:40:03Z</time>
      </trkpt>
      <trkpt lat="45.28776" lon="4.47363">
        <ele>1269</ele>
        <time>2022-01-27T13:40:13Z</time>
      </trkpt>
      <trkpt lat="45.28782" lon="4.47366">
        <ele>1268.4</ele>
        <time>2022-01-27T13:40:19Z</time>
      </trkpt>
      <trkpt lat="45.28788" lon="4.47369">
        <ele>1268</ele>
        <time>2022-01-27T13:40:23Z</time>
      </trkpt>
      <trkpt lat="45.28802" lon="4.47374">
        <ele>1267.4</ele>
        <time>2022-01-27T13:40:33Z</time>
      </trkpt>
      <trkpt lat="45.28805" lon="4.47376">
        <ele>1267.4</ele>
        <time>2022-01-27T13:40:35Z</time>
      </trkpt>
      <trkpt lat="45.28815" lon="4.4738">
        <ele>1267.6</ele>
        <time>2022-01-27T13:40:43Z</time>
      </trkpt>
      <trkpt lat="45.28828" lon="4.47384">
        <ele>1266.8</ele>
        <time>2022-01-27T13:40:53Z</time>
      </trkpt>
      <trkpt lat="45.28836" lon="4.47394">
        <ele>1266.4</ele>
        <time>2022-01-27T13:41:01Z</time>
      </trkpt>
      <trkpt lat="45.28838" lon="4.47396">
        <ele>1266.4</ele>
        <time>2022-01-27T13:41:03Z</time>
      </trkpt>
      <trkpt lat="45.28841" lon="4.474">
        <ele>1266.4</ele>
        <time>2022-01-27T13:41:07Z</time>
      </trkpt>
      <trkpt lat="45.28846" lon="4.47405">
        <ele>1265.6</ele>
        <time>2022-01-27T13:41:13Z</time>
      </trkpt>
      <trkpt lat="45.28852" lon="4.47411">
        <ele>1265.2</ele>
        <time>2022-01-27T13:41:18Z</time>
      </trkpt>
      <trkpt lat="45.28857" lon="4.47418">
        <ele>1264.8</ele>
        <time>2022-01-27T13:41:23Z</time>
      </trkpt>
      <trkpt lat="45.28866" lon="4.47432">
        <ele>1264.6</ele>
        <time>2022-01-27T13:41:33Z</time>
      </trkpt>
      <trkpt lat="45.2887" lon="4.47438">
        <ele>1264.2</ele>
        <time>2022-01-27T13:41:37Z</time>
      </trkpt>
      <trkpt lat="45.28872" lon="4.47442">
        <ele>1263.8</ele>
        <time>2022-01-27T13:41:41Z</time>
      </trkpt>
      <trkpt lat="45.28872" lon="4.47443">
        <ele>1263.8</ele>
        <time>2022-01-27T13:41:43Z</time>
      </trkpt>
      <trkpt lat="45.28875" lon="4.47447">
        <ele>1263.6</ele>
        <time>2022-01-27T13:41:47Z</time>
      </trkpt>
      <trkpt lat="45.28879" lon="4.47455">
        <ele>1263.4</ele>
        <time>2022-01-27T13:41:53Z</time>
      </trkpt>
      <trkpt lat="45.28886" lon="4.47468">
        <ele>1263.2</ele>
        <time>2022-01-27T13:42:03Z</time>
      </trkpt>
      <trkpt lat="45.28888" lon="4.47471">
        <ele>1263</ele>
        <time>2022-01-27T13:42:05Z</time>
      </trkpt>
      <trkpt lat="45.28891" lon="4.47481">
        <ele>1263.2</ele>
        <time>2022-01-27T13:42:13Z</time>
      </trkpt>
      <trkpt lat="45.28895" lon="4.47495">
        <ele>1262.8</ele>
        <time>2022-01-27T13:42:23Z</time>
      </trkpt>
      <trkpt lat="45.28897" lon="4.475">
        <ele>1262.6</ele>
        <time>2022-01-27T13:42:27Z</time>
      </trkpt>
      <trkpt lat="45.28896" lon="4.47502">
        <ele>1262.6</ele>
        <time>2022-01-27T13:42:29Z</time>
      </trkpt>
      <trkpt lat="45.28898" lon="4.47506">
        <ele>1262.2</ele>
        <time>2022-01-27T13:42:33Z</time>
      </trkpt>
      <trkpt lat="45.28899" lon="4.47507">
        <ele>1262.2</ele>
        <time>2022-01-27T13:42:34Z</time>
      </trkpt>
      <trkpt lat="45.28902" lon="4.47514">
        <ele>1262</ele>
        <time>2022-01-27T13:42:38Z</time>
      </trkpt>
      <trkpt lat="45.28905" lon="4.4752">
        <ele>1261.6</ele>
        <time>2022-01-27T13:42:43Z</time>
      </trkpt>
      <trkpt lat="45.28911" lon="4.47532">
        <ele>1261.2</ele>
        <time>2022-01-27T13:42:53Z</time>
      </trkpt>
      <trkpt lat="45.28916" lon="4.47544">
        <ele>1261.2</ele>
        <time>2022-01-27T13:43:03Z</time>
      </trkpt>
      <trkpt lat="45.28922" lon="4.47558">
        <ele>1261</ele>
        <time>2022-01-27T13:43:13Z</time>
      </trkpt>
      <trkpt lat="45.28923" lon="4.47561">
        <ele>1261</ele>
        <time>2022-01-27T13:43:15Z</time>
      </trkpt>
      <trkpt lat="45.28928" lon="4.47571">
        <ele>1260.8</ele>
        <time>2022-01-27T13:43:23Z</time>
      </trkpt>
      <trkpt lat="45.28935" lon="4.47585">
        <ele>1260.8</ele>
        <time>2022-01-27T13:43:33Z</time>
      </trkpt>
      <trkpt lat="45.28942" lon="4.47597">
        <ele>1261</ele>
        <time>2022-01-27T13:43:43Z</time>
      </trkpt>
      <trkpt lat="45.28946" lon="4.47609">
        <ele>1260.6</ele>
        <time>2022-01-27T13:43:53Z</time>
      </trkpt>
      <trkpt lat="45.28947" lon="4.4762">
        <ele>1260.4</ele>
        <time>2022-01-27T13:44:00Z</time>
      </trkpt>
      <trkpt lat="45.28948" lon="4.47624">
        <ele>1260.2</ele>
        <time>2022-01-27T13:44:02Z</time>
      </trkpt>
      <trkpt lat="45.28948" lon="4.47625">
        <ele>1260.2</ele>
        <time>2022-01-27T13:44:03Z</time>
      </trkpt>
      <trkpt lat="45.28948" lon="4.47627">
        <ele>1260.2</ele>
        <time>2022-01-27T13:44:04Z</time>
      </trkpt>
      <trkpt lat="45.28949" lon="4.47628">
        <ele>1260</ele>
        <time>2022-01-27T13:44:05Z</time>
      </trkpt>
      <trkpt lat="45.28949" lon="4.47633">
        <ele>1260</ele>
        <time>2022-01-27T13:44:08Z</time>
      </trkpt>
      <trkpt lat="45.28951" lon="4.47641">
        <ele>1259.6</ele>
        <time>2022-01-27T13:44:13Z</time>
      </trkpt>
      <trkpt lat="45.28952" lon="4.47644">
        <ele>1259.6</ele>
        <time>2022-01-27T13:44:15Z</time>
      </trkpt>
      <trkpt lat="45.28953" lon="4.47645">
        <ele>1259.4</ele>
        <time>2022-01-27T13:44:16Z</time>
      </trkpt>
      <trkpt lat="45.28958" lon="4.47654">
        <ele>1259.2</ele>
        <time>2022-01-27T13:44:23Z</time>
      </trkpt>
      <trkpt lat="45.2896" lon="4.4766">
        <ele>1259</ele>
        <time>2022-01-27T13:44:28Z</time>
      </trkpt>
      <trkpt lat="45.28963" lon="4.47663">
        <ele>1259</ele>
        <time>2022-01-27T13:44:31Z</time>
      </trkpt>
      <trkpt lat="45.28966" lon="4.47665">
        <ele>1259.2</ele>
        <time>2022-01-27T13:44:33Z</time>
      </trkpt>
      <trkpt lat="45.28977" lon="4.47672">
        <ele>1258.6</ele>
        <time>2022-01-27T13:44:43Z</time>
      </trkpt>
      <trkpt lat="45.28988" lon="4.4768">
        <ele>1258.4</ele>
        <time>2022-01-27T13:44:53Z</time>
      </trkpt>
      <trkpt lat="45.28994" lon="4.47686">
        <ele>1258</ele>
        <time>2022-01-27T13:45:00Z</time>
      </trkpt>
      <trkpt lat="45.28997" lon="4.47689">
        <ele>1257.6</ele>
        <time>2022-01-27T13:45:03Z</time>
      </trkpt>
      <trkpt lat="45.28998" lon="4.4769">
        <ele>1257.6</ele>
        <time>2022-01-27T13:45:05Z</time>
      </trkpt>
      <trkpt lat="45.29006" lon="4.47697">
        <ele>1257.2</ele>
        <time>2022-01-27T13:45:13Z</time>
      </trkpt>
      <trkpt lat="45.2901" lon="4.477">
        <ele>1257</ele>
        <time>2022-01-27T13:45:17Z</time>
      </trkpt>
      <trkpt lat="45.29017" lon="4.47707">
        <ele>1256.6</ele>
        <time>2022-01-27T13:45:23Z</time>
      </trkpt>
      <trkpt lat="45.29027" lon="4.4772">
        <ele>1256.2</ele>
        <time>2022-01-27T13:45:33Z</time>
      </trkpt>
      <trkpt lat="45.2903" lon="4.47727">
        <ele>1255.8</ele>
        <time>2022-01-27T13:45:38Z</time>
      </trkpt>
      <trkpt lat="45.29033" lon="4.47735">
        <ele>1255.8</ele>
        <time>2022-01-27T13:45:43Z</time>
      </trkpt>
      <trkpt lat="45.29039" lon="4.47747">
        <ele>1255.4</ele>
        <time>2022-01-27T13:45:53Z</time>
      </trkpt>
      <trkpt lat="45.29052" lon="4.47759">
        <ele>1255</ele>
        <time>2022-01-27T13:46:03Z</time>
      </trkpt>
      <trkpt lat="45.29061" lon="4.47771">
        <ele>1255.2</ele>
        <time>2022-01-27T13:46:13Z</time>
      </trkpt>
      <trkpt lat="45.29066" lon="4.47777">
        <ele>1254.8</ele>
        <time>2022-01-27T13:46:18Z</time>
      </trkpt>
      <trkpt lat="45.29071" lon="4.47782">
        <ele>1254.4</ele>
        <time>2022-01-27T13:46:23Z</time>
      </trkpt>
      <trkpt lat="45.2908" lon="4.47794">
        <ele>1254.6</ele>
        <time>2022-01-27T13:46:33Z</time>
      </trkpt>
      <trkpt lat="45.2909" lon="4.47806">
        <ele>1254.6</ele>
        <time>2022-01-27T13:46:43Z</time>
      </trkpt>
      <trkpt lat="45.29098" lon="4.47819">
        <ele>1254.2</ele>
        <time>2022-01-27T13:46:53Z</time>
      </trkpt>
      <trkpt lat="45.29104" lon="4.47824">
        <ele>1254.2</ele>
        <time>2022-01-27T13:47:00Z</time>
      </trkpt>
      <trkpt lat="45.29107" lon="4.47824">
        <ele>1254.2</ele>
        <time>2022-01-27T13:47:03Z</time>
      </trkpt>
      <trkpt lat="45.29108" lon="4.47824">
        <ele>1254.2</ele>
        <time>2022-01-27T13:47:04Z</time>
      </trkpt>
      <trkpt lat="45.29113" lon="4.47818">
        <ele>1254.8</ele>
        <time>2022-01-27T13:47:13Z</time>
      </trkpt>
      <trkpt lat="45.29117" lon="4.47806">
        <ele>1255.2</ele>
        <time>2022-01-27T13:47:23Z</time>
      </trkpt>
      <trkpt lat="45.2912" lon="4.47798">
        <ele>1255.8</ele>
        <time>2022-01-27T13:47:29Z</time>
      </trkpt>
      <trkpt lat="45.29122" lon="4.47792">
        <ele>1256.2</ele>
        <time>2022-01-27T13:47:33Z</time>
      </trkpt>
      <trkpt lat="45.2913" lon="4.4778">
        <ele>1256.4</ele>
        <time>2022-01-27T13:47:43Z</time>
      </trkpt>
      <trkpt lat="45.29138" lon="4.4777">
        <ele>1256.8</ele>
        <time>2022-01-27T13:47:53Z</time>
      </trkpt>
      <trkpt lat="45.29139" lon="4.47769">
        <ele>1257</ele>
        <time>2022-01-27T13:47:54Z</time>
      </trkpt>
      <trkpt lat="45.29146" lon="4.47758">
        <ele>1257.6</ele>
        <time>2022-01-27T13:48:03Z</time>
      </trkpt>
      <trkpt lat="45.29153" lon="4.47748">
        <ele>1257.4</ele>
        <time>2022-01-27T13:48:11Z</time>
      </trkpt>
      <trkpt lat="45.29155" lon="4.47747">
        <ele>1257.6</ele>
        <time>2022-01-27T13:48:13Z</time>
      </trkpt>
      <trkpt lat="45.29162" lon="4.47737">
        <ele>1257.6</ele>
        <time>2022-01-27T13:48:22Z</time>
      </trkpt>
      <trkpt lat="45.29163" lon="4.47736">
        <ele>1257.4</ele>
        <time>2022-01-27T13:48:23Z</time>
      </trkpt>
      <trkpt lat="45.29171" lon="4.47722">
        <ele>1257.4</ele>
        <time>2022-01-27T13:48:33Z</time>
      </trkpt>
      <trkpt lat="45.2918" lon="4.47711">
        <ele>1257</ele>
        <time>2022-01-27T13:48:43Z</time>
      </trkpt>
      <trkpt lat="45.29189" lon="4.47701">
        <ele>1256.8</ele>
        <time>2022-01-27T13:48:53Z</time>
      </trkpt>
      <trkpt lat="45.29198" lon="4.4769">
        <ele>1257</ele>
        <time>2022-01-27T13:49:03Z</time>
      </trkpt>
      <trkpt lat="45.29204" lon="4.47681">
        <ele>1256.4</ele>
        <time>2022-01-27T13:49:10Z</time>
      </trkpt>
      <trkpt lat="45.29207" lon="4.47678">
        <ele>1256.4</ele>
        <time>2022-01-27T13:49:13Z</time>
      </trkpt>
      <trkpt lat="45.29212" lon="4.47673">
        <ele>1256</ele>
        <time>2022-01-27T13:49:19Z</time>
      </trkpt>
      <trkpt lat="45.29216" lon="4.47669">
        <ele>1256</ele>
        <time>2022-01-27T13:49:23Z</time>
      </trkpt>
      <trkpt lat="45.29226" lon="4.47658">
        <ele>1255.2</ele>
        <time>2022-01-27T13:49:33Z</time>
      </trkpt>
      <trkpt lat="45.29235" lon="4.47648">
        <ele>1255</ele>
        <time>2022-01-27T13:49:42Z</time>
      </trkpt>
      <trkpt lat="45.29236" lon="4.47647">
        <ele>1254.8</ele>
        <time>2022-01-27T13:49:43Z</time>
      </trkpt>
      <trkpt lat="45.29246" lon="4.47637">
        <ele>1254.4</ele>
        <time>2022-01-27T13:49:53Z</time>
      </trkpt>
      <trkpt lat="45.29253" lon="4.4763">
        <ele>1253.8</ele>
        <time>2022-01-27T13:50:00Z</time>
      </trkpt>
      <trkpt lat="45.29256" lon="4.47626">
        <ele>1253.6</ele>
        <time>2022-01-27T13:50:03Z</time>
      </trkpt>
      <trkpt lat="45.29266" lon="4.47618">
        <ele>1252.8</ele>
        <time>2022-01-27T13:50:13Z</time>
      </trkpt>
      <trkpt lat="45.29276" lon="4.4763">
        <ele>1252</ele>
        <time>2022-01-27T13:50:23Z</time>
      </trkpt>
      <trkpt lat="45.2928" lon="4.47638">
        <ele>1251.6</ele>
        <time>2022-01-27T13:50:28Z</time>
      </trkpt>
      <trkpt lat="45.29281" lon="4.47641">
        <ele>1251.4</ele>
        <time>2022-01-27T13:50:30Z</time>
      </trkpt>
      <trkpt lat="45.29284" lon="4.47645">
        <ele>1251.2</ele>
        <time>2022-01-27T13:50:33Z</time>
      </trkpt>
      <trkpt lat="45.29287" lon="4.47651">
        <ele>1250.6</ele>
        <time>2022-01-27T13:50:37Z</time>
      </trkpt>
      <trkpt lat="45.2929" lon="4.4766">
        <ele>1249.8</ele>
        <time>2022-01-27T13:50:43Z</time>
      </trkpt>
      <trkpt lat="45.2929" lon="4.47661">
        <ele>1249.8</ele>
        <time>2022-01-27T13:50:44Z</time>
      </trkpt>
      <trkpt lat="45.29291" lon="4.47663">
        <ele>1249.6</ele>
        <time>2022-01-27T13:50:46Z</time>
      </trkpt>
      <trkpt lat="45.29292" lon="4.47664">
        <ele>1249.4</ele>
        <time>2022-01-27T13:50:47Z</time>
      </trkpt>
      <trkpt lat="45.29295" lon="4.47669">
        <ele>1248.4</ele>
        <time>2022-01-27T13:50:52Z</time>
      </trkpt>
      <trkpt lat="45.29296" lon="4.4767">
        <ele>1248.4</ele>
        <time>2022-01-27T13:50:53Z</time>
      </trkpt>
      <trkpt lat="45.293" lon="4.47678">
        <ele>1247.4</ele>
        <time>2022-01-27T13:50:59Z</time>
      </trkpt>
      <trkpt lat="45.29303" lon="4.47683">
        <ele>1247.2</ele>
        <time>2022-01-27T13:51:03Z</time>
      </trkpt>
      <trkpt lat="45.29308" lon="4.47689">
        <ele>1246.2</ele>
        <time>2022-01-27T13:51:09Z</time>
      </trkpt>
      <trkpt lat="45.29311" lon="4.47692">
        <ele>1246</ele>
        <time>2022-01-27T13:51:13Z</time>
      </trkpt>
      <trkpt lat="45.29313" lon="4.47698">
        <ele>1245.4</ele>
        <time>2022-01-27T13:51:18Z</time>
      </trkpt>
      <trkpt lat="45.29314" lon="4.47699">
        <ele>1245.2</ele>
        <time>2022-01-27T13:51:19Z</time>
      </trkpt>
      <trkpt lat="45.29316" lon="4.47702">
        <ele>1245.2</ele>
        <time>2022-01-27T13:51:21Z</time>
      </trkpt>
      <trkpt lat="45.29319" lon="4.47705">
        <ele>1245</ele>
        <time>2022-01-27T13:51:23Z</time>
      </trkpt>
      <trkpt lat="45.29321" lon="4.47706">
        <ele>1245</ele>
        <time>2022-01-27T13:51:24Z</time>
      </trkpt>
      <trkpt lat="45.29326" lon="4.47714">
        <ele>1244.4</ele>
        <time>2022-01-27T13:51:33Z</time>
      </trkpt>
      <trkpt lat="45.29326" lon="4.47716">
        <ele>1244.2</ele>
        <time>2022-01-27T13:51:34Z</time>
      </trkpt>
      <trkpt lat="45.29329" lon="4.47723">
        <ele>1243.4</ele>
        <time>2022-01-27T13:51:41Z</time>
      </trkpt>
      <trkpt lat="45.29329" lon="4.47726">
        <ele>1243.2</ele>
        <time>2022-01-27T13:51:43Z</time>
      </trkpt>
      <trkpt lat="45.2933" lon="4.47729">
        <ele>1243.2</ele>
        <time>2022-01-27T13:51:45Z</time>
      </trkpt>
      <trkpt lat="45.2933" lon="4.47731">
        <ele>1243</ele>
        <time>2022-01-27T13:51:46Z</time>
      </trkpt>
      <trkpt lat="45.29332" lon="4.47732">
        <ele>1242.8</ele>
        <time>2022-01-27T13:51:48Z</time>
      </trkpt>
      <trkpt lat="45.29336" lon="4.47737">
        <ele>1242.2</ele>
        <time>2022-01-27T13:51:53Z</time>
      </trkpt>
      <trkpt lat="45.29338" lon="4.47739">
        <ele>1242.2</ele>
        <time>2022-01-27T13:51:55Z</time>
      </trkpt>
      <trkpt lat="45.2934" lon="4.47743">
        <ele>1242.2</ele>
        <time>2022-01-27T13:51:58Z</time>
      </trkpt>
      <trkpt lat="45.29342" lon="4.47744">
        <ele>1242</ele>
        <time>2022-01-27T13:52:00Z</time>
      </trkpt>
      <trkpt lat="45.29345" lon="4.47747">
        <ele>1241.6</ele>
        <time>2022-01-27T13:52:03Z</time>
      </trkpt>
      <trkpt lat="45.29347" lon="4.47754">
        <ele>1241</ele>
        <time>2022-01-27T13:52:08Z</time>
      </trkpt>
      <trkpt lat="45.2935" lon="4.47759">
        <ele>1240.4</ele>
        <time>2022-01-27T13:52:13Z</time>
      </trkpt>
      <trkpt lat="45.29355" lon="4.47764">
        <ele>1240</ele>
        <time>2022-01-27T13:52:19Z</time>
      </trkpt>
      <trkpt lat="45.29356" lon="4.47765">
        <ele>1240</ele>
        <time>2022-01-27T13:52:20Z</time>
      </trkpt>
      <trkpt lat="45.29358" lon="4.47768">
        <ele>1239.8</ele>
        <time>2022-01-27T13:52:23Z</time>
      </trkpt>
      <trkpt lat="45.29363" lon="4.47773">
        <ele>1238.8</ele>
        <time>2022-01-27T13:52:29Z</time>
      </trkpt>
      <trkpt lat="45.29363" lon="4.47774">
        <ele>1238.4</ele>
        <time>2022-01-27T13:52:31Z</time>
      </trkpt>
      <trkpt lat="45.29364" lon="4.47775">
        <ele>1238.2</ele>
        <time>2022-01-27T13:52:33Z</time>
      </trkpt>
      <trkpt lat="45.29365" lon="4.47777">
        <ele>1238</ele>
        <time>2022-01-27T13:52:35Z</time>
      </trkpt>
      <trkpt lat="45.29368" lon="4.47781">
        <ele>1237.8</ele>
        <time>2022-01-27T13:52:38Z</time>
      </trkpt>
      <trkpt lat="45.29368" lon="4.47782">
        <ele>1237.6</ele>
        <time>2022-01-27T13:52:39Z</time>
      </trkpt>
      <trkpt lat="45.29369" lon="4.47782">
        <ele>1237.4</ele>
        <time>2022-01-27T13:52:40Z</time>
      </trkpt>
      <trkpt lat="45.29371" lon="4.47784">
        <ele>1237</ele>
        <time>2022-01-27T13:52:43Z</time>
      </trkpt>
      <trkpt lat="45.29372" lon="4.47786">
        <ele>1236.6</ele>
        <time>2022-01-27T13:52:47Z</time>
      </trkpt>
      <trkpt lat="45.29373" lon="4.47787">
        <ele>1236.6</ele>
        <time>2022-01-27T13:52:48Z</time>
      </trkpt>
      <trkpt lat="45.29375" lon="4.47792">
        <ele>1235.6</ele>
        <time>2022-01-27T13:52:53Z</time>
      </trkpt>
      <trkpt lat="45.29377" lon="4.47793">
        <ele>1235.6</ele>
        <time>2022-01-27T13:52:54Z</time>
      </trkpt>
      <trkpt lat="45.2938" lon="4.47796">
        <ele>1235.4</ele>
        <time>2022-01-27T13:52:57Z</time>
      </trkpt>
      <trkpt lat="45.29381" lon="4.47798">
        <ele>1235.2</ele>
        <time>2022-01-27T13:52:59Z</time>
      </trkpt>
      <trkpt lat="45.29382" lon="4.478">
        <ele>1235</ele>
        <time>2022-01-27T13:53:01Z</time>
      </trkpt>
      <trkpt lat="45.29383" lon="4.47802">
        <ele>1234.8</ele>
        <time>2022-01-27T13:53:03Z</time>
      </trkpt>
      <trkpt lat="45.29384" lon="4.47804">
        <ele>1234.4</ele>
        <time>2022-01-27T13:53:05Z</time>
      </trkpt>
      <trkpt lat="45.29386" lon="4.47808">
        <ele>1234</ele>
        <time>2022-01-27T13:53:08Z</time>
      </trkpt>
      <trkpt lat="45.29387" lon="4.4781">
        <ele>1233.6</ele>
        <time>2022-01-27T13:53:10Z</time>
      </trkpt>
      <trkpt lat="45.29388" lon="4.47811">
        <ele>1233.4</ele>
        <time>2022-01-27T13:53:11Z</time>
      </trkpt>
      <trkpt lat="45.29387" lon="4.47812">
        <ele>1233</ele>
        <time>2022-01-27T13:53:13Z</time>
      </trkpt>
      <trkpt lat="45.29388" lon="4.47814">
        <ele>1232.8</ele>
        <time>2022-01-27T13:53:15Z</time>
      </trkpt>
      <trkpt lat="45.29389" lon="4.47816">
        <ele>1232.2</ele>
        <time>2022-01-27T13:53:18Z</time>
      </trkpt>
      <trkpt lat="45.2939" lon="4.47821">
        <ele>1231.6</ele>
        <time>2022-01-27T13:53:23Z</time>
      </trkpt>
      <trkpt lat="45.2939" lon="4.47824">
        <ele>1231.2</ele>
        <time>2022-01-27T13:53:25Z</time>
      </trkpt>
      <trkpt lat="45.29393" lon="4.47832">
        <ele>1230.2</ele>
        <time>2022-01-27T13:53:31Z</time>
      </trkpt>
      <trkpt lat="45.29395" lon="4.47835">
        <ele>1230</ele>
        <time>2022-01-27T13:53:33Z</time>
      </trkpt>
      <trkpt lat="45.29397" lon="4.4784">
        <ele>1229.6</ele>
        <time>2022-01-27T13:53:36Z</time>
      </trkpt>
      <trkpt lat="45.29398" lon="4.47843">
        <ele>1229.4</ele>
        <time>2022-01-27T13:53:38Z</time>
      </trkpt>
      <trkpt lat="45.29399" lon="4.47847">
        <ele>1229.2</ele>
        <time>2022-01-27T13:53:40Z</time>
      </trkpt>
      <trkpt lat="45.294" lon="4.47852">
        <ele>1228.6</ele>
        <time>2022-01-27T13:53:43Z</time>
      </trkpt>
      <trkpt lat="45.29401" lon="4.47855">
        <ele>1228.2</ele>
        <time>2022-01-27T13:53:45Z</time>
      </trkpt>
      <trkpt lat="45.29401" lon="4.47857">
        <ele>1227.8</ele>
        <time>2022-01-27T13:53:47Z</time>
      </trkpt>
      <trkpt lat="45.29398" lon="4.47858">
        <ele>1227.4</ele>
        <time>2022-01-27T13:53:53Z</time>
      </trkpt>
      <trkpt lat="45.29396" lon="4.47858">
        <ele>1227.4</ele>
        <time>2022-01-27T13:54:03Z</time>
      </trkpt>
      <trkpt lat="45.294" lon="4.4786">
        <ele>1227.2</ele>
        <time>2022-01-27T13:54:12Z</time>
      </trkpt>
      <trkpt lat="45.29401" lon="4.47862">
        <ele>1227</ele>
        <time>2022-01-27T13:54:13Z</time>
      </trkpt>
      <trkpt lat="45.29401" lon="4.47863">
        <ele>1226.8</ele>
        <time>2022-01-27T13:54:14Z</time>
      </trkpt>
      <trkpt lat="45.29402" lon="4.47868">
        <ele>1226.4</ele>
        <time>2022-01-27T13:54:17Z</time>
      </trkpt>
      <trkpt lat="45.29402" lon="4.47871">
        <ele>1226</ele>
        <time>2022-01-27T13:54:19Z</time>
      </trkpt>
      <trkpt lat="45.29404" lon="4.47877">
        <ele>1225.4</ele>
        <time>2022-01-27T13:54:22Z</time>
      </trkpt>
      <trkpt lat="45.29404" lon="4.47878">
        <ele>1225.2</ele>
        <time>2022-01-27T13:54:23Z</time>
      </trkpt>
      <trkpt lat="45.29405" lon="4.47881">
        <ele>1224.8</ele>
        <time>2022-01-27T13:54:25Z</time>
      </trkpt>
      <trkpt lat="45.29405" lon="4.47888">
        <ele>1224</ele>
        <time>2022-01-27T13:54:30Z</time>
      </trkpt>
      <trkpt lat="45.29404" lon="4.4789">
        <ele>1223.8</ele>
        <time>2022-01-27T13:54:31Z</time>
      </trkpt>
      <trkpt lat="45.29404" lon="4.47892">
        <ele>1223.2</ele>
        <time>2022-01-27T13:54:33Z</time>
      </trkpt>
      <trkpt lat="45.29403" lon="4.47896">
        <ele>1222.8</ele>
        <time>2022-01-27T13:54:36Z</time>
      </trkpt>
      <trkpt lat="45.29403" lon="4.47897">
        <ele>1222.8</ele>
        <time>2022-01-27T13:54:37Z</time>
      </trkpt>
      <trkpt lat="45.29402" lon="4.47901">
        <ele>1222.6</ele>
        <time>2022-01-27T13:54:39Z</time>
      </trkpt>
      <trkpt lat="45.29402" lon="4.47905">
        <ele>1222.4</ele>
        <time>2022-01-27T13:54:41Z</time>
      </trkpt>
      <trkpt lat="45.29401" lon="4.47908">
        <ele>1222.2</ele>
        <time>2022-01-27T13:54:42Z</time>
      </trkpt>
      <trkpt lat="45.29401" lon="4.4791">
        <ele>1222.2</ele>
        <time>2022-01-27T13:54:43Z</time>
      </trkpt>
      <trkpt lat="45.294" lon="4.47913">
        <ele>1222.2</ele>
        <time>2022-01-27T13:54:44Z</time>
      </trkpt>
      <trkpt lat="45.29397" lon="4.47924">
        <ele>1221.8</ele>
        <time>2022-01-27T13:54:50Z</time>
      </trkpt>
      <trkpt lat="45.29396" lon="4.47927">
        <ele>1221.6</ele>
        <time>2022-01-27T13:54:52Z</time>
      </trkpt>
      <trkpt lat="45.29396" lon="4.47928">
        <ele>1221.4</ele>
        <time>2022-01-27T13:54:53Z</time>
      </trkpt>
      <trkpt lat="45.29394" lon="4.47931">
        <ele>1221</ele>
        <time>2022-01-27T13:54:55Z</time>
      </trkpt>
      <trkpt lat="45.29391" lon="4.47939">
        <ele>1220.4</ele>
        <time>2022-01-27T13:55:00Z</time>
      </trkpt>
      <trkpt lat="45.29391" lon="4.47945">
        <ele>1220</ele>
        <time>2022-01-27T13:55:03Z</time>
      </trkpt>
      <trkpt lat="45.29389" lon="4.47952">
        <ele>1219.4</ele>
        <time>2022-01-27T13:55:08Z</time>
      </trkpt>
      <trkpt lat="45.29388" lon="4.47953">
        <ele>1219.4</ele>
        <time>2022-01-27T13:55:09Z</time>
      </trkpt>
      <trkpt lat="45.29387" lon="4.4796">
        <ele>1219.2</ele>
        <time>2022-01-27T13:55:13Z</time>
      </trkpt>
      <trkpt lat="45.29385" lon="4.4797">
        <ele>1218.6</ele>
        <time>2022-01-27T13:55:19Z</time>
      </trkpt>
      <trkpt lat="45.29385" lon="4.47972">
        <ele>1218.4</ele>
        <time>2022-01-27T13:55:21Z</time>
      </trkpt>
      <trkpt lat="45.29384" lon="4.47975">
        <ele>1218.2</ele>
        <time>2022-01-27T13:55:23Z</time>
      </trkpt>
      <trkpt lat="45.29382" lon="4.47983">
        <ele>1217.8</ele>
        <time>2022-01-27T13:55:28Z</time>
      </trkpt>
      <trkpt lat="45.29384" lon="4.47992">
        <ele>1217.4</ele>
        <time>2022-01-27T13:55:32Z</time>
      </trkpt>
      <trkpt lat="45.29384" lon="4.47994">
        <ele>1217.2</ele>
        <time>2022-01-27T13:55:33Z</time>
      </trkpt>
      <trkpt lat="45.29388" lon="4.48002">
        <ele>1216.2</ele>
        <time>2022-01-27T13:55:38Z</time>
      </trkpt>
      <trkpt lat="45.29391" lon="4.4801">
        <ele>1215.6</ele>
        <time>2022-01-27T13:55:43Z</time>
      </trkpt>
      <trkpt lat="45.29392" lon="4.48013">
        <ele>1215.2</ele>
        <time>2022-01-27T13:55:46Z</time>
      </trkpt>
      <trkpt lat="45.29393" lon="4.48021">
        <ele>1214</ele>
        <time>2022-01-27T13:55:52Z</time>
      </trkpt>
      <trkpt lat="45.29393" lon="4.48023">
        <ele>1213.6</ele>
        <time>2022-01-27T13:55:53Z</time>
      </trkpt>
      <trkpt lat="45.29392" lon="4.48028">
        <ele>1212.8</ele>
        <time>2022-01-27T13:55:57Z</time>
      </trkpt>
      <trkpt lat="45.29392" lon="4.48036">
        <ele>1212.2</ele>
        <time>2022-01-27T13:56:03Z</time>
      </trkpt>
      <trkpt lat="45.2939" lon="4.48037">
        <ele>1212</ele>
        <time>2022-01-27T13:56:13Z</time>
      </trkpt>
      <trkpt lat="45.2939" lon="4.48036">
        <ele>1211.8</ele>
        <time>2022-01-27T13:56:23Z</time>
      </trkpt>
      <trkpt lat="45.29391" lon="4.48036">
        <ele>1212</ele>
        <time>2022-01-27T13:56:33Z</time>
      </trkpt>
      <trkpt lat="45.29392" lon="4.48027">
        <ele>1213</ele>
        <time>2022-01-27T13:56:43Z</time>
      </trkpt>
      <trkpt lat="45.29393" lon="4.48021">
        <ele>1213.2</ele>
        <time>2022-01-27T13:56:47Z</time>
      </trkpt>
      <trkpt lat="45.29393" lon="4.48017">
        <ele>1213.2</ele>
        <time>2022-01-27T13:56:51Z</time>
      </trkpt>
      <trkpt lat="45.29393" lon="4.48014">
        <ele>1213.2</ele>
        <time>2022-01-27T13:56:53Z</time>
      </trkpt>
      <trkpt lat="45.29395" lon="4.48006">
        <ele>1213.6</ele>
        <time>2022-01-27T13:57:00Z</time>
      </trkpt>
      <trkpt lat="45.29396" lon="4.48004">
        <ele>1213.8</ele>
        <time>2022-01-27T13:57:02Z</time>
      </trkpt>
      <trkpt lat="45.29396" lon="4.48002">
        <ele>1213.8</ele>
        <time>2022-01-27T13:57:03Z</time>
      </trkpt>
      <trkpt lat="45.29397" lon="4.48">
        <ele>1213.8</ele>
        <time>2022-01-27T13:57:05Z</time>
      </trkpt>
      <trkpt lat="45.29398" lon="4.47998">
        <ele>1213.6</ele>
        <time>2022-01-27T13:57:07Z</time>
      </trkpt>
      <trkpt lat="45.29399" lon="4.47994">
        <ele>1213.8</ele>
        <time>2022-01-27T13:57:10Z</time>
      </trkpt>
      <trkpt lat="45.29399" lon="4.47992">
        <ele>1214</ele>
        <time>2022-01-27T13:57:13Z</time>
      </trkpt>
      <trkpt lat="45.294" lon="4.47985">
        <ele>1214.4</ele>
        <time>2022-01-27T13:57:18Z</time>
      </trkpt>
      <trkpt lat="45.294" lon="4.47981">
        <ele>1214.4</ele>
        <time>2022-01-27T13:57:21Z</time>
      </trkpt>
      <trkpt lat="45.294" lon="4.47978">
        <ele>1214.6</ele>
        <time>2022-01-27T13:57:23Z</time>
      </trkpt>
      <trkpt lat="45.29401" lon="4.47977">
        <ele>1214.8</ele>
        <time>2022-01-27T13:57:24Z</time>
      </trkpt>
      <trkpt lat="45.29402" lon="4.47974">
        <ele>1215</ele>
        <time>2022-01-27T13:57:26Z</time>
      </trkpt>
      <trkpt lat="45.29404" lon="4.4797">
        <ele>1215</ele>
        <time>2022-01-27T13:57:30Z</time>
      </trkpt>
      <trkpt lat="45.29405" lon="4.47968">
        <ele>1215</ele>
        <time>2022-01-27T13:57:32Z</time>
      </trkpt>
      <trkpt lat="45.29405" lon="4.47966">
        <ele>1215</ele>
        <time>2022-01-27T13:57:33Z</time>
      </trkpt>
      <trkpt lat="45.29405" lon="4.47964">
        <ele>1215</ele>
        <time>2022-01-27T13:57:34Z</time>
      </trkpt>
      <trkpt lat="45.29407" lon="4.4796">
        <ele>1215.2</ele>
        <time>2022-01-27T13:57:37Z</time>
      </trkpt>
      <trkpt lat="45.29409" lon="4.47951">
        <ele>1215.6</ele>
        <time>2022-01-27T13:57:43Z</time>
      </trkpt>
      <trkpt lat="45.29412" lon="4.4794">
        <ele>1215.8</ele>
        <time>2022-01-27T13:57:50Z</time>
      </trkpt>
      <trkpt lat="45.29413" lon="4.47938">
        <ele>1215.8</ele>
        <time>2022-01-27T13:57:52Z</time>
      </trkpt>
      <trkpt lat="45.29414" lon="4.47937">
        <ele>1215.8</ele>
        <time>2022-01-27T13:57:53Z</time>
      </trkpt>
      <trkpt lat="45.29416" lon="4.47934">
        <ele>1216</ele>
        <time>2022-01-27T13:57:55Z</time>
      </trkpt>
      <trkpt lat="45.29418" lon="4.47925">
        <ele>1216.4</ele>
        <time>2022-01-27T13:58:01Z</time>
      </trkpt>
      <trkpt lat="45.29419" lon="4.47922">
        <ele>1216.6</ele>
        <time>2022-01-27T13:58:03Z</time>
      </trkpt>
      <trkpt lat="45.29419" lon="4.47919">
        <ele>1216.8</ele>
        <time>2022-01-27T13:58:05Z</time>
      </trkpt>
      <trkpt lat="45.2942" lon="4.47916">
        <ele>1217</ele>
        <time>2022-01-27T13:58:07Z</time>
      </trkpt>
      <trkpt lat="45.29422" lon="4.47907">
        <ele>1217.4</ele>
        <time>2022-01-27T13:58:13Z</time>
      </trkpt>
      <trkpt lat="45.29427" lon="4.47898">
        <ele>1218</ele>
        <time>2022-01-27T13:58:21Z</time>
      </trkpt>
      <trkpt lat="45.29428" lon="4.47894">
        <ele>1218.4</ele>
        <time>2022-01-27T13:58:23Z</time>
      </trkpt>
      <trkpt lat="45.2943" lon="4.47885">
        <ele>1218.8</ele>
        <time>2022-01-27T13:58:29Z</time>
      </trkpt>
      <trkpt lat="45.29431" lon="4.4788">
        <ele>1219.2</ele>
        <time>2022-01-27T13:58:32Z</time>
      </trkpt>
      <trkpt lat="45.29431" lon="4.47879">
        <ele>1219.4</ele>
        <time>2022-01-27T13:58:33Z</time>
      </trkpt>
      <trkpt lat="45.29431" lon="4.47871">
        <ele>1219.6</ele>
        <time>2022-01-27T13:58:38Z</time>
      </trkpt>
      <trkpt lat="45.29431" lon="4.47868">
        <ele>1219.8</ele>
        <time>2022-01-27T13:58:40Z</time>
      </trkpt>
      <trkpt lat="45.29431" lon="4.47865">
        <ele>1220</ele>
        <time>2022-01-27T13:58:43Z</time>
      </trkpt>
      <trkpt lat="45.29431" lon="4.47864">
        <ele>1220.2</ele>
        <time>2022-01-27T13:58:44Z</time>
      </trkpt>
      <trkpt lat="45.29432" lon="4.47863">
        <ele>1220.4</ele>
        <time>2022-01-27T13:58:45Z</time>
      </trkpt>
      <trkpt lat="45.29431" lon="4.47859">
        <ele>1220.6</ele>
        <time>2022-01-27T13:58:48Z</time>
      </trkpt>
      <trkpt lat="45.29432" lon="4.4785">
        <ele>1220.8</ele>
        <time>2022-01-27T13:58:53Z</time>
      </trkpt>
      <trkpt lat="45.29433" lon="4.47843">
        <ele>1221.2</ele>
        <time>2022-01-27T13:58:58Z</time>
      </trkpt>
      <trkpt lat="45.29433" lon="4.47842">
        <ele>1221.4</ele>
        <time>2022-01-27T13:58:59Z</time>
      </trkpt>
      <trkpt lat="45.29437" lon="4.47836">
        <ele>1221.8</ele>
        <time>2022-01-27T13:59:03Z</time>
      </trkpt>
      <trkpt lat="45.29437" lon="4.47829">
        <ele>1221.8</ele>
        <time>2022-01-27T13:59:06Z</time>
      </trkpt>
      <trkpt lat="45.29439" lon="4.47818">
        <ele>1222.2</ele>
        <time>2022-01-27T13:59:12Z</time>
      </trkpt>
      <trkpt lat="45.29438" lon="4.47816">
        <ele>1222.4</ele>
        <time>2022-01-27T13:59:13Z</time>
      </trkpt>
      <trkpt lat="45.29446" lon="4.47803">
        <ele>1223.2</ele>
        <time>2022-01-27T13:59:22Z</time>
      </trkpt>
      <trkpt lat="45.29447" lon="4.47802">
        <ele>1223.4</ele>
        <time>2022-01-27T13:59:23Z</time>
      </trkpt>
      <trkpt lat="45.29448" lon="4.47795">
        <ele>1223.8</ele>
        <time>2022-01-27T13:59:28Z</time>
      </trkpt>
      <trkpt lat="45.2945" lon="4.47789">
        <ele>1224.2</ele>
        <time>2022-01-27T13:59:33Z</time>
      </trkpt>
      <trkpt lat="45.29451" lon="4.47787">
        <ele>1224.4</ele>
        <time>2022-01-27T13:59:35Z</time>
      </trkpt>
      <trkpt lat="45.29455" lon="4.47777">
        <ele>1225.2</ele>
        <time>2022-01-27T13:59:43Z</time>
      </trkpt>
      <trkpt lat="45.29456" lon="4.47775">
        <ele>1225.4</ele>
        <time>2022-01-27T13:59:45Z</time>
      </trkpt>
      <trkpt lat="45.29458" lon="4.47774">
        <ele>1225.4</ele>
        <time>2022-01-27T13:59:46Z</time>
      </trkpt>
      <trkpt lat="45.29458" lon="4.47773">
        <ele>1225.6</ele>
        <time>2022-01-27T13:59:47Z</time>
      </trkpt>
      <trkpt lat="45.2946" lon="4.47765">
        <ele>1226</ele>
        <time>2022-01-27T13:59:52Z</time>
      </trkpt>
      <trkpt lat="45.29461" lon="4.47764">
        <ele>1226</ele>
        <time>2022-01-27T13:59:53Z</time>
      </trkpt>
      <trkpt lat="45.29462" lon="4.47762">
        <ele>1226.2</ele>
        <time>2022-01-27T13:59:55Z</time>
      </trkpt>
      <trkpt lat="45.29467" lon="4.47756">
        <ele>1226.6</ele>
        <time>2022-01-27T14:00:00Z</time>
      </trkpt>
      <trkpt lat="45.29468" lon="4.47754">
        <ele>1226.6</ele>
        <time>2022-01-27T14:00:02Z</time>
      </trkpt>
      <trkpt lat="45.29468" lon="4.47753">
        <ele>1226.6</ele>
        <time>2022-01-27T14:00:03Z</time>
      </trkpt>
      <trkpt lat="45.29469" lon="4.47752">
        <ele>1226.6</ele>
        <time>2022-01-27T14:00:04Z</time>
      </trkpt>
      <trkpt lat="45.2947" lon="4.47748">
        <ele>1226.8</ele>
        <time>2022-01-27T14:00:07Z</time>
      </trkpt>
      <trkpt lat="45.2947" lon="4.47742">
        <ele>1227.2</ele>
        <time>2022-01-27T14:00:11Z</time>
      </trkpt>
      <trkpt lat="45.29469" lon="4.4774">
        <ele>1227.2</ele>
        <time>2022-01-27T14:00:13Z</time>
      </trkpt>
      <trkpt lat="45.29472" lon="4.47735">
        <ele>1227.4</ele>
        <time>2022-01-27T14:00:17Z</time>
      </trkpt>
      <trkpt lat="45.29476" lon="4.47728">
        <ele>1227.4</ele>
        <time>2022-01-27T14:00:22Z</time>
      </trkpt>
      <trkpt lat="45.29477" lon="4.47727">
        <ele>1227.4</ele>
        <time>2022-01-27T14:00:23Z</time>
      </trkpt>
      <trkpt lat="45.29477" lon="4.47726">
        <ele>1227.6</ele>
        <time>2022-01-27T14:00:24Z</time>
      </trkpt>
      <trkpt lat="45.2948" lon="4.47723">
        <ele>1227.8</ele>
        <time>2022-01-27T14:00:28Z</time>
      </trkpt>
      <trkpt lat="45.29482" lon="4.47721">
        <ele>1228</ele>
        <time>2022-01-27T14:00:31Z</time>
      </trkpt>
      <trkpt lat="45.29483" lon="4.47718">
        <ele>1228.2</ele>
        <time>2022-01-27T14:00:33Z</time>
      </trkpt>
      <trkpt lat="45.29485" lon="4.47715">
        <ele>1228.2</ele>
        <time>2022-01-27T14:00:36Z</time>
      </trkpt>
      <trkpt lat="45.29486" lon="4.47712">
        <ele>1228.2</ele>
        <time>2022-01-27T14:00:38Z</time>
      </trkpt>
      <trkpt lat="45.2949" lon="4.4771">
        <ele>1228.4</ele>
        <time>2022-01-27T14:00:41Z</time>
      </trkpt>
      <trkpt lat="45.29491" lon="4.47708">
        <ele>1228.4</ele>
        <time>2022-01-27T14:00:43Z</time>
      </trkpt>
      <trkpt lat="45.29492" lon="4.47707">
        <ele>1228.6</ele>
        <time>2022-01-27T14:00:44Z</time>
      </trkpt>
      <trkpt lat="45.29494" lon="4.47702">
        <ele>1228.8</ele>
        <time>2022-01-27T14:00:49Z</time>
      </trkpt>
      <trkpt lat="45.29497" lon="4.477">
        <ele>1228.8</ele>
        <time>2022-01-27T14:00:52Z</time>
      </trkpt>
      <trkpt lat="45.29498" lon="4.47699">
        <ele>1228.8</ele>
        <time>2022-01-27T14:00:53Z</time>
      </trkpt>
      <trkpt lat="45.29499" lon="4.47697">
        <ele>1229</ele>
        <time>2022-01-27T14:00:54Z</time>
      </trkpt>
      <trkpt lat="45.29501" lon="4.47693">
        <ele>1229.2</ele>
        <time>2022-01-27T14:00:58Z</time>
      </trkpt>
      <trkpt lat="45.29502" lon="4.47685">
        <ele>1229.4</ele>
        <time>2022-01-27T14:01:03Z</time>
      </trkpt>
      <trkpt lat="45.29502" lon="4.47684">
        <ele>1229.6</ele>
        <time>2022-01-27T14:01:04Z</time>
      </trkpt>
      <trkpt lat="45.29502" lon="4.47683">
        <ele>1229.6</ele>
        <time>2022-01-27T14:01:05Z</time>
      </trkpt>
      <trkpt lat="45.29503" lon="4.4768">
        <ele>1229.8</ele>
        <time>2022-01-27T14:01:07Z</time>
      </trkpt>
      <trkpt lat="45.29505" lon="4.47673">
        <ele>1230.2</ele>
        <time>2022-01-27T14:01:12Z</time>
      </trkpt>
      <trkpt lat="45.29505" lon="4.47672">
        <ele>1230.2</ele>
        <time>2022-01-27T14:01:13Z</time>
      </trkpt>
      <trkpt lat="45.2951" lon="4.47666">
        <ele>1230.2</ele>
        <time>2022-01-27T14:01:18Z</time>
      </trkpt>
      <trkpt lat="45.29511" lon="4.47664">
        <ele>1230.4</ele>
        <time>2022-01-27T14:01:20Z</time>
      </trkpt>
      <trkpt lat="45.29512" lon="4.47661">
        <ele>1230.6</ele>
        <time>2022-01-27T14:01:22Z</time>
      </trkpt>
      <trkpt lat="45.29513" lon="4.4766">
        <ele>1230.6</ele>
        <time>2022-01-27T14:01:23Z</time>
      </trkpt>
      <trkpt lat="45.29516" lon="4.47655">
        <ele>1230.6</ele>
        <time>2022-01-27T14:01:28Z</time>
      </trkpt>
      <trkpt lat="45.29517" lon="4.47653">
        <ele>1230.6</ele>
        <time>2022-01-27T14:01:30Z</time>
      </trkpt>
      <trkpt lat="45.29518" lon="4.47648">
        <ele>1230.8</ele>
        <time>2022-01-27T14:01:33Z</time>
      </trkpt>
      <trkpt lat="45.2952" lon="4.47646">
        <ele>1230.8</ele>
        <time>2022-01-27T14:01:35Z</time>
      </trkpt>
      <trkpt lat="45.29526" lon="4.47634">
        <ele>1231</ele>
        <time>2022-01-27T14:01:43Z</time>
      </trkpt>
      <trkpt lat="45.29529" lon="4.47628">
        <ele>1231</ele>
        <time>2022-01-27T14:01:48Z</time>
      </trkpt>
      <trkpt lat="45.29531" lon="4.47624">
        <ele>1231.4</ele>
        <time>2022-01-27T14:01:52Z</time>
      </trkpt>
      <trkpt lat="45.29531" lon="4.47622">
        <ele>1231.4</ele>
        <time>2022-01-27T14:01:53Z</time>
      </trkpt>
      <trkpt lat="45.29532" lon="4.4762">
        <ele>1231.4</ele>
        <time>2022-01-27T14:01:55Z</time>
      </trkpt>
      <trkpt lat="45.29533" lon="4.47617">
        <ele>1231.2</ele>
        <time>2022-01-27T14:01:58Z</time>
      </trkpt>
      <trkpt lat="45.29537" lon="4.47615">
        <ele>1231</ele>
        <time>2022-01-27T14:02:03Z</time>
      </trkpt>
      <trkpt lat="45.29543" lon="4.47609">
        <ele>1230.4</ele>
        <time>2022-01-27T14:02:12Z</time>
      </trkpt>
      <trkpt lat="45.29543" lon="4.47608">
        <ele>1230.4</ele>
        <time>2022-01-27T14:02:13Z</time>
      </trkpt>
      <trkpt lat="45.29542" lon="4.47605">
        <ele>1230.2</ele>
        <time>2022-01-27T14:02:19Z</time>
      </trkpt>
      <trkpt lat="45.29542" lon="4.47604">
        <ele>1230</ele>
        <time>2022-01-27T14:02:23Z</time>
      </trkpt>
      <trkpt lat="45.29543" lon="4.47604">
        <ele>1229.8</ele>
        <time>2022-01-27T14:02:29Z</time>
      </trkpt>
      <trkpt lat="45.29544" lon="4.47605">
        <ele>1229.6</ele>
        <time>2022-01-27T14:02:32Z</time>
      </trkpt>
      <trkpt lat="45.29543" lon="4.47606">
        <ele>1229.4</ele>
        <time>2022-01-27T14:02:38Z</time>
      </trkpt>
      <trkpt lat="45.29542" lon="4.47609">
        <ele>1229.4</ele>
        <time>2022-01-27T14:02:43Z</time>
      </trkpt>
      <trkpt lat="45.29541" lon="4.47614">
        <ele>1229.2</ele>
        <time>2022-01-27T14:02:48Z</time>
      </trkpt>
      <trkpt lat="45.2954" lon="4.47618">
        <ele>1229.2</ele>
        <time>2022-01-27T14:02:53Z</time>
      </trkpt>
      <trkpt lat="45.2954" lon="4.4762">
        <ele>1229.2</ele>
        <time>2022-01-27T14:02:55Z</time>
      </trkpt>
      <trkpt lat="45.29541" lon="4.47624">
        <ele>1229.2</ele>
        <time>2022-01-27T14:02:58Z</time>
      </trkpt>
      <trkpt lat="45.2954" lon="4.47627">
        <ele>1229.2</ele>
        <time>2022-01-27T14:03:01Z</time>
      </trkpt>
      <trkpt lat="45.29542" lon="4.47631">
        <ele>1229</ele>
        <time>2022-01-27T14:03:03Z</time>
      </trkpt>
      <trkpt lat="45.2954" lon="4.47637">
        <ele>1228.8</ele>
        <time>2022-01-27T14:03:09Z</time>
      </trkpt>
      <trkpt lat="45.2954" lon="4.47638">
        <ele>1228.8</ele>
        <time>2022-01-27T14:03:10Z</time>
      </trkpt>
      <trkpt lat="45.29538" lon="4.47641">
        <ele>1228.8</ele>
        <time>2022-01-27T14:03:12Z</time>
      </trkpt>
      <trkpt lat="45.29537" lon="4.47642">
        <ele>1228.6</ele>
        <time>2022-01-27T14:03:13Z</time>
      </trkpt>
      <trkpt lat="45.29537" lon="4.47643">
        <ele>1228.6</ele>
        <time>2022-01-27T14:03:14Z</time>
      </trkpt>
      <trkpt lat="45.2953" lon="4.47649">
        <ele>1228.4</ele>
        <time>2022-01-27T14:03:19Z</time>
      </trkpt>
      <trkpt lat="45.29529" lon="4.47651">
        <ele>1228.4</ele>
        <time>2022-01-27T14:03:20Z</time>
      </trkpt>
      <trkpt lat="45.29525" lon="4.47655">
        <ele>1228.4</ele>
        <time>2022-01-27T14:03:23Z</time>
      </trkpt>
      <trkpt lat="45.29523" lon="4.47659">
        <ele>1228.2</ele>
        <time>2022-01-27T14:03:26Z</time>
      </trkpt>
      <trkpt lat="45.29517" lon="4.47668">
        <ele>1228</ele>
        <time>2022-01-27T14:03:33Z</time>
      </trkpt>
      <trkpt lat="45.29517" lon="4.47672">
        <ele>1227.6</ele>
        <time>2022-01-27T14:03:36Z</time>
      </trkpt>
      <trkpt lat="45.29517" lon="4.47684">
        <ele>1227</ele>
        <time>2022-01-27T14:03:43Z</time>
      </trkpt>
      <trkpt lat="45.29515" lon="4.47686">
        <ele>1226.4</ele>
        <time>2022-01-27T14:03:46Z</time>
      </trkpt>
      <trkpt lat="45.29509" lon="4.47696">
        <ele>1226.2</ele>
        <time>2022-01-27T14:03:53Z</time>
      </trkpt>
      <trkpt lat="45.29502" lon="4.47709">
        <ele>1225.4</ele>
        <time>2022-01-27T14:04:02Z</time>
      </trkpt>
      <trkpt lat="45.29501" lon="4.4771">
        <ele>1225.2</ele>
        <time>2022-01-27T14:04:03Z</time>
      </trkpt>
      <trkpt lat="45.29501" lon="4.47711">
        <ele>1225.2</ele>
        <time>2022-01-27T14:04:04Z</time>
      </trkpt>
      <trkpt lat="45.295" lon="4.47712">
        <ele>1225</ele>
        <time>2022-01-27T14:04:07Z</time>
      </trkpt>
      <trkpt lat="45.29497" lon="4.47713">
        <ele>1224.8</ele>
        <time>2022-01-27T14:04:09Z</time>
      </trkpt>
      <trkpt lat="45.29493" lon="4.47716">
        <ele>1224.6</ele>
        <time>2022-01-27T14:04:13Z</time>
      </trkpt>
      <trkpt lat="45.29488" lon="4.47724">
        <ele>1224.4</ele>
        <time>2022-01-27T14:04:19Z</time>
      </trkpt>
      <trkpt lat="45.29487" lon="4.47726">
        <ele>1224.4</ele>
        <time>2022-01-27T14:04:20Z</time>
      </trkpt>
      <trkpt lat="45.29485" lon="4.47729">
        <ele>1224.2</ele>
        <time>2022-01-27T14:04:22Z</time>
      </trkpt>
      <trkpt lat="45.29485" lon="4.4773">
        <ele>1224.2</ele>
        <time>2022-01-27T14:04:23Z</time>
      </trkpt>
      <trkpt lat="45.29483" lon="4.47734">
        <ele>1224.4</ele>
        <time>2022-01-27T14:04:25Z</time>
      </trkpt>
      <trkpt lat="45.29478" lon="4.47746">
        <ele>1223.6</ele>
        <time>2022-01-27T14:04:33Z</time>
      </trkpt>
      <trkpt lat="45.29477" lon="4.4775">
        <ele>1223.2</ele>
        <time>2022-01-27T14:04:35Z</time>
      </trkpt>
      <trkpt lat="45.29476" lon="4.47752">
        <ele>1223.2</ele>
        <time>2022-01-27T14:04:36Z</time>
      </trkpt>
      <trkpt lat="45.29476" lon="4.47754">
        <ele>1223</ele>
        <time>2022-01-27T14:04:38Z</time>
      </trkpt>
      <trkpt lat="45.29473" lon="4.47759">
        <ele>1222.6</ele>
        <time>2022-01-27T14:04:43Z</time>
      </trkpt>
      <trkpt lat="45.29475" lon="4.47767">
        <ele>1222.2</ele>
        <time>2022-01-27T14:04:51Z</time>
      </trkpt>
      <trkpt lat="45.29476" lon="4.47769">
        <ele>1222.4</ele>
        <time>2022-01-27T14:04:53Z</time>
      </trkpt>
      <trkpt lat="45.29477" lon="4.47772">
        <ele>1222.2</ele>
        <time>2022-01-27T14:05:01Z</time>
      </trkpt>
      <trkpt lat="45.29477" lon="4.47773">
        <ele>1222.2</ele>
        <time>2022-01-27T14:05:03Z</time>
      </trkpt>
      <trkpt lat="45.29474" lon="4.47774">
        <ele>1222.2</ele>
        <time>2022-01-27T14:05:11Z</time>
      </trkpt>
      <trkpt lat="45.29473" lon="4.47774">
        <ele>1222.2</ele>
        <time>2022-01-27T14:05:13Z</time>
      </trkpt>
      <trkpt lat="45.29472" lon="4.47774">
        <ele>1222.2</ele>
        <time>2022-01-27T14:05:16Z</time>
      </trkpt>
      <trkpt lat="45.29471" lon="4.47774">
        <ele>1222.2</ele>
        <time>2022-01-27T14:05:19Z</time>
      </trkpt>
      <trkpt lat="45.2947" lon="4.47774">
        <ele>1222.2</ele>
        <time>2022-01-27T14:05:20Z</time>
      </trkpt>
      <trkpt lat="45.29469" lon="4.47774">
        <ele>1222.4</ele>
        <time>2022-01-27T14:05:22Z</time>
      </trkpt>
      <trkpt lat="45.29469" lon="4.47773">
        <ele>1222.4</ele>
        <time>2022-01-27T14:05:23Z</time>
      </trkpt>
      <trkpt lat="45.29471" lon="4.47772">
        <ele>1222.2</ele>
        <time>2022-01-27T14:05:26Z</time>
      </trkpt>
      <trkpt lat="45.2947" lon="4.47772">
        <ele>1222.2</ele>
        <time>2022-01-27T14:05:31Z</time>
      </trkpt>
      <trkpt lat="45.29466" lon="4.47768">
        <ele>1222</ele>
        <time>2022-01-27T14:05:41Z</time>
      </trkpt>
      <trkpt lat="45.2947" lon="4.47771">
        <ele>1222.2</ele>
        <time>2022-01-27T14:05:53Z</time>
      </trkpt>
      <trkpt lat="45.29468" lon="4.47767">
        <ele>1222</ele>
        <time>2022-01-27T14:05:59Z</time>
      </trkpt>
      <trkpt lat="45.29465" lon="4.47772">
        <ele>1221.6</ele>
        <time>2022-01-27T14:06:03Z</time>
      </trkpt>
      <trkpt lat="45.29465" lon="4.47773">
        <ele>1221.6</ele>
        <time>2022-01-27T14:06:04Z</time>
      </trkpt>
      <trkpt lat="45.29465" lon="4.47775">
        <ele>1221.4</ele>
        <time>2022-01-27T14:06:05Z</time>
      </trkpt>
      <trkpt lat="45.29465" lon="4.47776">
        <ele>1221.4</ele>
        <time>2022-01-27T14:06:06Z</time>
      </trkpt>
      <trkpt lat="45.29465" lon="4.47777">
        <ele>1221.2</ele>
        <time>2022-01-27T14:06:07Z</time>
      </trkpt>
      <trkpt lat="45.29462" lon="4.47786">
        <ele>1220.6</ele>
        <time>2022-01-27T14:06:13Z</time>
      </trkpt>
      <trkpt lat="45.29461" lon="4.47788">
        <ele>1220.4</ele>
        <time>2022-01-27T14:06:15Z</time>
      </trkpt>
      <trkpt lat="45.2946" lon="4.47791">
        <ele>1220.2</ele>
        <time>2022-01-27T14:06:17Z</time>
      </trkpt>
      <trkpt lat="45.29461" lon="4.47795">
        <ele>1219.8</ele>
        <time>2022-01-27T14:06:21Z</time>
      </trkpt>
      <trkpt lat="45.29459" lon="4.47797">
        <ele>1219.6</ele>
        <time>2022-01-27T14:06:23Z</time>
      </trkpt>
      <trkpt lat="45.29458" lon="4.47799">
        <ele>1219.6</ele>
        <time>2022-01-27T14:06:25Z</time>
      </trkpt>
      <trkpt lat="45.29457" lon="4.47804">
        <ele>1219.4</ele>
        <time>2022-01-27T14:06:28Z</time>
      </trkpt>
      <trkpt lat="45.29455" lon="4.47805">
        <ele>1219.4</ele>
        <time>2022-01-27T14:06:30Z</time>
      </trkpt>
      <trkpt lat="45.29454" lon="4.47807">
        <ele>1219.2</ele>
        <time>2022-01-27T14:06:32Z</time>
      </trkpt>
      <trkpt lat="45.29453" lon="4.47809">
        <ele>1219.2</ele>
        <time>2022-01-27T14:06:33Z</time>
      </trkpt>
      <trkpt lat="45.29451" lon="4.47811">
        <ele>1218.8</ele>
        <time>2022-01-27T14:06:35Z</time>
      </trkpt>
      <trkpt lat="45.2945" lon="4.47813">
        <ele>1218.6</ele>
        <time>2022-01-27T14:06:37Z</time>
      </trkpt>
      <trkpt lat="45.29448" lon="4.47818">
        <ele>1218.4</ele>
        <time>2022-01-27T14:06:40Z</time>
      </trkpt>
      <trkpt lat="45.29447" lon="4.47821">
        <ele>1218.2</ele>
        <time>2022-01-27T14:06:42Z</time>
      </trkpt>
      <trkpt lat="45.29446" lon="4.47822">
        <ele>1218.2</ele>
        <time>2022-01-27T14:06:43Z</time>
      </trkpt>
      <trkpt lat="45.29446" lon="4.47824">
        <ele>1218.2</ele>
        <time>2022-01-27T14:06:44Z</time>
      </trkpt>
      <trkpt lat="45.29441" lon="4.47836">
        <ele>1217</ele>
        <time>2022-01-27T14:06:53Z</time>
      </trkpt>
      <trkpt lat="45.29438" lon="4.47847">
        <ele>1216.6</ele>
        <time>2022-01-27T14:07:01Z</time>
      </trkpt>
      <trkpt lat="45.29438" lon="4.47851">
        <ele>1216.4</ele>
        <time>2022-01-27T14:07:03Z</time>
      </trkpt>
      <trkpt lat="45.29439" lon="4.47856">
        <ele>1216</ele>
        <time>2022-01-27T14:07:06Z</time>
      </trkpt>
      <trkpt lat="45.29438" lon="4.47857">
        <ele>1216</ele>
        <time>2022-01-27T14:07:07Z</time>
      </trkpt>
      <trkpt lat="45.29438" lon="4.47868">
        <ele>1215</ele>
        <time>2022-01-27T14:07:13Z</time>
      </trkpt>
      <trkpt lat="45.29437" lon="4.47871">
        <ele>1215</ele>
        <time>2022-01-27T14:07:15Z</time>
      </trkpt>
      <trkpt lat="45.29435" lon="4.47873">
        <ele>1214.8</ele>
        <time>2022-01-27T14:07:16Z</time>
      </trkpt>
      <trkpt lat="45.29434" lon="4.47885">
        <ele>1214.2</ele>
        <time>2022-01-27T14:07:22Z</time>
      </trkpt>
      <trkpt lat="45.29433" lon="4.47887">
        <ele>1214</ele>
        <time>2022-01-27T14:07:23Z</time>
      </trkpt>
      <trkpt lat="45.29432" lon="4.47889">
        <ele>1213.8</ele>
        <time>2022-01-27T14:07:24Z</time>
      </trkpt>
      <trkpt lat="45.29433" lon="4.47903">
        <ele>1212.6</ele>
        <time>2022-01-27T14:07:33Z</time>
      </trkpt>
      <trkpt lat="45.29434" lon="4.47905">
        <ele>1212.4</ele>
        <time>2022-01-27T14:07:35Z</time>
      </trkpt>
      <trkpt lat="45.2943" lon="4.47916">
        <ele>1211.6</ele>
        <time>2022-01-27T14:07:43Z</time>
      </trkpt>
      <trkpt lat="45.29429" lon="4.47917">
        <ele>1211.6</ele>
        <time>2022-01-27T14:07:44Z</time>
      </trkpt>
      <trkpt lat="45.29424" lon="4.47924">
        <ele>1211</ele>
        <time>2022-01-27T14:07:51Z</time>
      </trkpt>
      <trkpt lat="45.29422" lon="4.47926">
        <ele>1210.8</ele>
        <time>2022-01-27T14:07:53Z</time>
      </trkpt>
      <trkpt lat="45.29422" lon="4.47927">
        <ele>1210.6</ele>
        <time>2022-01-27T14:07:54Z</time>
      </trkpt>
      <trkpt lat="45.29421" lon="4.4793">
        <ele>1210.2</ele>
        <time>2022-01-27T14:07:56Z</time>
      </trkpt>
      <trkpt lat="45.29419" lon="4.47932">
        <ele>1210.2</ele>
        <time>2022-01-27T14:07:58Z</time>
      </trkpt>
      <trkpt lat="45.29416" lon="4.47938">
        <ele>1209.8</ele>
        <time>2022-01-27T14:08:01Z</time>
      </trkpt>
      <trkpt lat="45.29415" lon="4.47943">
        <ele>1209.6</ele>
        <time>2022-01-27T14:08:03Z</time>
      </trkpt>
      <trkpt lat="45.29413" lon="4.47951">
        <ele>1209.4</ele>
        <time>2022-01-27T14:08:06Z</time>
      </trkpt>
      <trkpt lat="45.29412" lon="4.47961">
        <ele>1209</ele>
        <time>2022-01-27T14:08:13Z</time>
      </trkpt>
      <trkpt lat="45.29407" lon="4.47973">
        <ele>1208.4</ele>
        <time>2022-01-27T14:08:22Z</time>
      </trkpt>
      <trkpt lat="45.29406" lon="4.47975">
        <ele>1208.4</ele>
        <time>2022-01-27T14:08:23Z</time>
      </trkpt>
      <trkpt lat="45.29405" lon="4.47979">
        <ele>1208.4</ele>
        <time>2022-01-27T14:08:27Z</time>
      </trkpt>
      <trkpt lat="45.29403" lon="4.47986">
        <ele>1208</ele>
        <time>2022-01-27T14:08:33Z</time>
      </trkpt>
      <trkpt lat="45.29404" lon="4.47988">
        <ele>1208</ele>
        <time>2022-01-27T14:08:34Z</time>
      </trkpt>
      <trkpt lat="45.29403" lon="4.47991">
        <ele>1208</ele>
        <time>2022-01-27T14:08:36Z</time>
      </trkpt>
      <trkpt lat="45.294" lon="4.47999">
        <ele>1207.6</ele>
        <time>2022-01-27T14:08:43Z</time>
      </trkpt>
      <trkpt lat="45.294" lon="4.48">
        <ele>1207.6</ele>
        <time>2022-01-27T14:08:44Z</time>
      </trkpt>
      <trkpt lat="45.29398" lon="4.48002">
        <ele>1207.6</ele>
        <time>2022-01-27T14:08:47Z</time>
      </trkpt>
      <trkpt lat="45.29396" lon="4.48006">
        <ele>1207.6</ele>
        <time>2022-01-27T14:08:51Z</time>
      </trkpt>
      <trkpt lat="45.29395" lon="4.48007">
        <ele>1207.6</ele>
        <time>2022-01-27T14:08:52Z</time>
      </trkpt>
      <trkpt lat="45.29395" lon="4.48008">
        <ele>1207.4</ele>
        <time>2022-01-27T14:08:53Z</time>
      </trkpt>
      <trkpt lat="45.29394" lon="4.4801">
        <ele>1207.4</ele>
        <time>2022-01-27T14:08:55Z</time>
      </trkpt>
      <trkpt lat="45.29393" lon="4.48018">
        <ele>1207.2</ele>
        <time>2022-01-27T14:09:00Z</time>
      </trkpt>
      <trkpt lat="45.29392" lon="4.48023">
        <ele>1207</ele>
        <time>2022-01-27T14:09:03Z</time>
      </trkpt>
      <trkpt lat="45.29391" lon="4.48025">
        <ele>1207</ele>
        <time>2022-01-27T14:09:04Z</time>
      </trkpt>
      <trkpt lat="45.2939" lon="4.48034">
        <ele>1206.8</ele>
        <time>2022-01-27T14:09:09Z</time>
      </trkpt>
      <trkpt lat="45.29392" lon="4.48038">
        <ele>1206.8</ele>
        <time>2022-01-27T14:09:13Z</time>
      </trkpt>
      <trkpt lat="45.29394" lon="4.48038">
        <ele>1206.4</ele>
        <time>2022-01-27T14:09:17Z</time>
      </trkpt>
      <trkpt lat="45.29395" lon="4.48038">
        <ele>1206.4</ele>
        <time>2022-01-27T14:09:18Z</time>
      </trkpt>
      <trkpt lat="45.29397" lon="4.48034">
        <ele>1206.2</ele>
        <time>2022-01-27T14:09:22Z</time>
      </trkpt>
      <trkpt lat="45.29397" lon="4.48033">
        <ele>1206</ele>
        <time>2022-01-27T14:09:23Z</time>
      </trkpt>
      <trkpt lat="45.294" lon="4.48024">
        <ele>1205.8</ele>
        <time>2022-01-27T14:09:32Z</time>
      </trkpt>
      <trkpt lat="45.29401" lon="4.48023">
        <ele>1205.8</ele>
        <time>2022-01-27T14:09:33Z</time>
      </trkpt>
      <trkpt lat="45.29401" lon="4.4802">
        <ele>1205.8</ele>
        <time>2022-01-27T14:09:35Z</time>
      </trkpt>
      <trkpt lat="45.29405" lon="4.4802">
        <ele>1206.4</ele>
        <time>2022-01-27T14:09:43Z</time>
      </trkpt>
      <trkpt lat="45.2941" lon="4.48014">
        <ele>1206.8</ele>
        <time>2022-01-27T14:09:50Z</time>
      </trkpt>
      <trkpt lat="45.29411" lon="4.4801">
        <ele>1206.8</ele>
        <time>2022-01-27T14:09:53Z</time>
      </trkpt>
      <trkpt lat="45.29413" lon="4.48005">
        <ele>1207.2</ele>
        <time>2022-01-27T14:09:57Z</time>
      </trkpt>
      <trkpt lat="45.29414" lon="4.48004">
        <ele>1207.4</ele>
        <time>2022-01-27T14:09:58Z</time>
      </trkpt>
      <trkpt lat="45.29416" lon="4.47998">
        <ele>1208</ele>
        <time>2022-01-27T14:10:03Z</time>
      </trkpt>
      <trkpt lat="45.29416" lon="4.47996">
        <ele>1208.2</ele>
        <time>2022-01-27T14:10:04Z</time>
      </trkpt>
      <trkpt lat="45.29417" lon="4.47992">
        <ele>1208.4</ele>
        <time>2022-01-27T14:10:07Z</time>
      </trkpt>
      <trkpt lat="45.29418" lon="4.47986">
        <ele>1208.6</ele>
        <time>2022-01-27T14:10:11Z</time>
      </trkpt>
      <trkpt lat="45.2942" lon="4.47984">
        <ele>1208.8</ele>
        <time>2022-01-27T14:10:13Z</time>
      </trkpt>
      <trkpt lat="45.2942" lon="4.47979">
        <ele>1209</ele>
        <time>2022-01-27T14:10:16Z</time>
      </trkpt>
      <trkpt lat="45.29421" lon="4.47971">
        <ele>1209.2</ele>
        <time>2022-01-27T14:10:21Z</time>
      </trkpt>
      <trkpt lat="45.29421" lon="4.47968">
        <ele>1209.2</ele>
        <time>2022-01-27T14:10:23Z</time>
      </trkpt>
      <trkpt lat="45.29421" lon="4.47966">
        <ele>1209.6</ele>
        <time>2022-01-27T14:10:25Z</time>
      </trkpt>
      <trkpt lat="45.29423" lon="4.47956">
        <ele>1210.6</ele>
        <time>2022-01-27T14:10:31Z</time>
      </trkpt>
      <trkpt lat="45.29424" lon="4.47954">
        <ele>1210.8</ele>
        <time>2022-01-27T14:10:33Z</time>
      </trkpt>
      <trkpt lat="45.29429" lon="4.47943">
        <ele>1210.8</ele>
        <time>2022-01-27T14:10:41Z</time>
      </trkpt>
      <trkpt lat="45.2943" lon="4.47939">
        <ele>1210.8</ele>
        <time>2022-01-27T14:10:43Z</time>
      </trkpt>
      <trkpt lat="45.29432" lon="4.47932">
        <ele>1210.8</ele>
        <time>2022-01-27T14:10:48Z</time>
      </trkpt>
      <trkpt lat="45.29435" lon="4.47926">
        <ele>1211</ele>
        <time>2022-01-27T14:10:53Z</time>
      </trkpt>
      <trkpt lat="45.29436" lon="4.4792">
        <ele>1210.8</ele>
        <time>2022-01-27T14:10:57Z</time>
      </trkpt>
      <trkpt lat="45.29439" lon="4.47913">
        <ele>1210.2</ele>
        <time>2022-01-27T14:11:02Z</time>
      </trkpt>
      <trkpt lat="45.2944" lon="4.47911">
        <ele>1210.2</ele>
        <time>2022-01-27T14:11:03Z</time>
      </trkpt>
      <trkpt lat="45.29446" lon="4.47908">
        <ele>1209.6</ele>
        <time>2022-01-27T14:11:10Z</time>
      </trkpt>
      <trkpt lat="45.29449" lon="4.47908">
        <ele>1208.8</ele>
        <time>2022-01-27T14:11:13Z</time>
      </trkpt>
      <trkpt lat="45.2945" lon="4.47908">
        <ele>1208.4</ele>
        <time>2022-01-27T14:11:15Z</time>
      </trkpt>
      <trkpt lat="45.2946" lon="4.47913">
        <ele>1207.6</ele>
        <time>2022-01-27T14:11:20Z</time>
      </trkpt>
      <trkpt lat="45.29463" lon="4.47916">
        <ele>1207.4</ele>
        <time>2022-01-27T14:11:22Z</time>
      </trkpt>
      <trkpt lat="45.29464" lon="4.47916">
        <ele>1207.2</ele>
        <time>2022-01-27T14:11:23Z</time>
      </trkpt>
      <trkpt lat="45.29473" lon="4.47921">
        <ele>1206.2</ele>
        <time>2022-01-27T14:11:28Z</time>
      </trkpt>
      <trkpt lat="45.29478" lon="4.47922">
        <ele>1205.4</ele>
        <time>2022-01-27T14:11:31Z</time>
      </trkpt>
      <trkpt lat="45.29479" lon="4.47922">
        <ele>1205.2</ele>
        <time>2022-01-27T14:11:32Z</time>
      </trkpt>
      <trkpt lat="45.29481" lon="4.47923">
        <ele>1205.2</ele>
        <time>2022-01-27T14:11:33Z</time>
      </trkpt>
      <trkpt lat="45.29482" lon="4.47923">
        <ele>1205</ele>
        <time>2022-01-27T14:11:34Z</time>
      </trkpt>
      <trkpt lat="45.29489" lon="4.47928">
        <ele>1204</ele>
        <time>2022-01-27T14:11:40Z</time>
      </trkpt>
      <trkpt lat="45.29491" lon="4.4793">
        <ele>1203.6</ele>
        <time>2022-01-27T14:11:43Z</time>
      </trkpt>
      <trkpt lat="45.29496" lon="4.47934">
        <ele>1203</ele>
        <time>2022-01-27T14:11:49Z</time>
      </trkpt>
      <trkpt lat="45.29497" lon="4.47935">
        <ele>1203</ele>
        <time>2022-01-27T14:11:51Z</time>
      </trkpt>
      <trkpt lat="45.29498" lon="4.47936">
        <ele>1202.8</ele>
        <time>2022-01-27T14:11:53Z</time>
      </trkpt>
      <trkpt lat="45.295" lon="4.47937">
        <ele>1202.6</ele>
        <time>2022-01-27T14:11:56Z</time>
      </trkpt>
      <trkpt lat="45.29506" lon="4.47942">
        <ele>1202.6</ele>
        <time>2022-01-27T14:12:01Z</time>
      </trkpt>
      <trkpt lat="45.29508" lon="4.47944">
        <ele>1202.4</ele>
        <time>2022-01-27T14:12:03Z</time>
      </trkpt>
      <trkpt lat="45.29516" lon="4.4795">
        <ele>1201.8</ele>
        <time>2022-01-27T14:12:10Z</time>
      </trkpt>
      <trkpt lat="45.29518" lon="4.47951">
        <ele>1201.6</ele>
        <time>2022-01-27T14:12:13Z</time>
      </trkpt>
      <trkpt lat="45.29519" lon="4.47952">
        <ele>1201.4</ele>
        <time>2022-01-27T14:12:19Z</time>
      </trkpt>
      <trkpt lat="45.29518" lon="4.47952">
        <ele>1201.4</ele>
        <time>2022-01-27T14:12:23Z</time>
      </trkpt>
      <trkpt lat="45.29518" lon="4.47953">
        <ele>1201.4</ele>
        <time>2022-01-27T14:12:43Z</time>
      </trkpt>
      <trkpt lat="45.29519" lon="4.47952">
        <ele>1201.2</ele>
        <time>2022-01-27T14:13:03Z</time>
      </trkpt>
      <trkpt lat="45.29519" lon="4.47951">
        <ele>1201</ele>
        <time>2022-01-27T14:13:07Z</time>
      </trkpt>
      <trkpt lat="45.29522" lon="4.47954">
        <ele>1201</ele>
        <time>2022-01-27T14:13:13Z</time>
      </trkpt>
      <trkpt lat="45.29527" lon="4.47958">
        <ele>1200.8</ele>
        <time>2022-01-27T14:13:17Z</time>
      </trkpt>
      <trkpt lat="45.29529" lon="4.4796">
        <ele>1200.8</ele>
        <time>2022-01-27T14:13:19Z</time>
      </trkpt>
      <trkpt lat="45.2953" lon="4.47962">
        <ele>1200.6</ele>
        <time>2022-01-27T14:13:21Z</time>
      </trkpt>
      <trkpt lat="45.2953" lon="4.47963">
        <ele>1200.4</ele>
        <time>2022-01-27T14:13:22Z</time>
      </trkpt>
      <trkpt lat="45.29531" lon="4.47963">
        <ele>1200.4</ele>
        <time>2022-01-27T14:13:23Z</time>
      </trkpt>
      <trkpt lat="45.29532" lon="4.47964">
        <ele>1200.2</ele>
        <time>2022-01-27T14:13:25Z</time>
      </trkpt>
      <trkpt lat="45.2954" lon="4.47966">
        <ele>1200</ele>
        <time>2022-01-27T14:13:32Z</time>
      </trkpt>
      <trkpt lat="45.29542" lon="4.47967">
        <ele>1200</ele>
        <time>2022-01-27T14:13:33Z</time>
      </trkpt>
      <trkpt lat="45.29546" lon="4.47968">
        <ele>1200</ele>
        <time>2022-01-27T14:13:36Z</time>
      </trkpt>
      <trkpt lat="45.2955" lon="4.47965">
        <ele>1199.8</ele>
        <time>2022-01-27T14:13:40Z</time>
      </trkpt>
      <trkpt lat="45.29553" lon="4.47961">
        <ele>1199.8</ele>
        <time>2022-01-27T14:13:43Z</time>
      </trkpt>
      <trkpt lat="45.29555" lon="4.47959">
        <ele>1199.8</ele>
        <time>2022-01-27T14:13:46Z</time>
      </trkpt>
      <trkpt lat="45.2956" lon="4.47961">
        <ele>1199.6</ele>
        <time>2022-01-27T14:13:50Z</time>
      </trkpt>
      <trkpt lat="45.29565" lon="4.47963">
        <ele>1199.6</ele>
        <time>2022-01-27T14:13:53Z</time>
      </trkpt>
      <trkpt lat="45.29575" lon="4.47967">
        <ele>1199.2</ele>
        <time>2022-01-27T14:14:00Z</time>
      </trkpt>
      <trkpt lat="45.29579" lon="4.4797">
        <ele>1199.2</ele>
        <time>2022-01-27T14:14:03Z</time>
      </trkpt>
      <trkpt lat="45.2958" lon="4.47971">
        <ele>1199.2</ele>
        <time>2022-01-27T14:14:05Z</time>
      </trkpt>
      <trkpt lat="45.29581" lon="4.47974">
        <ele>1199.6</ele>
        <time>2022-01-27T14:14:13Z</time>
      </trkpt>
      <trkpt lat="45.29581" lon="4.47975">
        <ele>1199.6</ele>
        <time>2022-01-27T14:14:53Z</time>
      </trkpt>
      <trkpt lat="45.29582" lon="4.47977">
        <ele>1199.4</ele>
        <time>2022-01-27T14:15:13Z</time>
      </trkpt>
      <trkpt lat="45.29586" lon="4.4798">
        <ele>1199.2</ele>
        <time>2022-01-27T14:15:18Z</time>
      </trkpt>
      <trkpt lat="45.29591" lon="4.47981">
        <ele>1198.8</ele>
        <time>2022-01-27T14:15:23Z</time>
      </trkpt>
      <trkpt lat="45.29594" lon="4.47982">
        <ele>1198.6</ele>
        <time>2022-01-27T14:15:25Z</time>
      </trkpt>
      <trkpt lat="45.29596" lon="4.47983">
        <ele>1198.6</ele>
        <time>2022-01-27T14:15:28Z</time>
      </trkpt>
      <trkpt lat="45.29597" lon="4.47984">
        <ele>1198.6</ele>
        <time>2022-01-27T14:15:29Z</time>
      </trkpt>
      <trkpt lat="45.296" lon="4.47987">
        <ele>1198.8</ele>
        <time>2022-01-27T14:15:33Z</time>
      </trkpt>
      <trkpt lat="45.29602" lon="4.47992">
        <ele>1198.8</ele>
        <time>2022-01-27T14:15:38Z</time>
      </trkpt>
      <trkpt lat="45.29603" lon="4.47995">
        <ele>1198.6</ele>
        <time>2022-01-27T14:15:40Z</time>
      </trkpt>
      <trkpt lat="45.29605" lon="4.47998">
        <ele>1198.8</ele>
        <time>2022-01-27T14:15:43Z</time>
      </trkpt>
      <trkpt lat="45.29605" lon="4.48001">
        <ele>1198.8</ele>
        <time>2022-01-27T14:15:45Z</time>
      </trkpt>
      <trkpt lat="45.29606" lon="4.48002">
        <ele>1199</ele>
        <time>2022-01-27T14:15:46Z</time>
      </trkpt>
      <trkpt lat="45.29607" lon="4.48006">
        <ele>1199</ele>
        <time>2022-01-27T14:15:49Z</time>
      </trkpt>
      <trkpt lat="45.29607" lon="4.48008">
        <ele>1199</ele>
        <time>2022-01-27T14:15:50Z</time>
      </trkpt>
      <trkpt lat="45.29607" lon="4.4801">
        <ele>1199.2</ele>
        <time>2022-01-27T14:15:52Z</time>
      </trkpt>
      <trkpt lat="45.29608" lon="4.48012">
        <ele>1199.2</ele>
        <time>2022-01-27T14:15:53Z</time>
      </trkpt>
      <trkpt lat="45.29607" lon="4.48013">
        <ele>1199.4</ele>
        <time>2022-01-27T14:15:54Z</time>
      </trkpt>
      <trkpt lat="45.29607" lon="4.48014">
        <ele>1199.4</ele>
        <time>2022-01-27T14:15:55Z</time>
      </trkpt>
      <trkpt lat="45.29607" lon="4.48017">
        <ele>1199.4</ele>
        <time>2022-01-27T14:15:57Z</time>
      </trkpt>
      <trkpt lat="45.29607" lon="4.48019">
        <ele>1199.4</ele>
        <time>2022-01-27T14:15:59Z</time>
      </trkpt>
      <trkpt lat="45.29606" lon="4.48021">
        <ele>1199.6</ele>
        <time>2022-01-27T14:16:01Z</time>
      </trkpt>
      <trkpt lat="45.29604" lon="4.48024">
        <ele>1199.6</ele>
        <time>2022-01-27T14:16:03Z</time>
      </trkpt>
      <trkpt lat="45.29604" lon="4.48025">
        <ele>1199.8</ele>
        <time>2022-01-27T14:16:04Z</time>
      </trkpt>
      <trkpt lat="45.29603" lon="4.48026">
        <ele>1199.8</ele>
        <time>2022-01-27T14:16:05Z</time>
      </trkpt>
      <trkpt lat="45.29603" lon="4.48029">
        <ele>1200</ele>
        <time>2022-01-27T14:16:07Z</time>
      </trkpt>
      <trkpt lat="45.29601" lon="4.48033">
        <ele>1200</ele>
        <time>2022-01-27T14:16:10Z</time>
      </trkpt>
      <trkpt lat="45.296" lon="4.48037">
        <ele>1200.2</ele>
        <time>2022-01-27T14:16:13Z</time>
      </trkpt>
      <trkpt lat="45.296" lon="4.48038">
        <ele>1200.2</ele>
        <time>2022-01-27T14:16:14Z</time>
      </trkpt>
      <trkpt lat="45.29597" lon="4.48045">
        <ele>1200.4</ele>
        <time>2022-01-27T14:16:19Z</time>
      </trkpt>
      <trkpt lat="45.29595" lon="4.48051">
        <ele>1200.6</ele>
        <time>2022-01-27T14:16:23Z</time>
      </trkpt>
      <trkpt lat="45.29594" lon="4.48052">
        <ele>1200.6</ele>
        <time>2022-01-27T14:16:24Z</time>
      </trkpt>
      <trkpt lat="45.29589" lon="4.48059">
        <ele>1200.8</ele>
        <time>2022-01-27T14:16:31Z</time>
      </trkpt>
      <trkpt lat="45.29589" lon="4.4806">
        <ele>1200.8</ele>
        <time>2022-01-27T14:16:32Z</time>
      </trkpt>
      <trkpt lat="45.29588" lon="4.48061">
        <ele>1200.8</ele>
        <time>2022-01-27T14:16:34Z</time>
      </trkpt>
      <trkpt lat="45.29586" lon="4.48062">
        <ele>1201</ele>
        <time>2022-01-27T14:16:36Z</time>
      </trkpt>
      <trkpt lat="45.29584" lon="4.48063">
        <ele>1201.2</ele>
        <time>2022-01-27T14:16:38Z</time>
      </trkpt>
      <trkpt lat="45.29583" lon="4.48066">
        <ele>1201.2</ele>
        <time>2022-01-27T14:16:40Z</time>
      </trkpt>
      <trkpt lat="45.29581" lon="4.48069">
        <ele>1201.2</ele>
        <time>2022-01-27T14:16:43Z</time>
      </trkpt>
      <trkpt lat="45.29578" lon="4.48076">
        <ele>1201.2</ele>
        <time>2022-01-27T14:16:48Z</time>
      </trkpt>
      <trkpt lat="45.29575" lon="4.48083">
        <ele>1201.4</ele>
        <time>2022-01-27T14:16:53Z</time>
      </trkpt>
      <trkpt lat="45.29571" lon="4.4809">
        <ele>1201.6</ele>
        <time>2022-01-27T14:16:57Z</time>
      </trkpt>
      <trkpt lat="45.2957" lon="4.48095">
        <ele>1201.6</ele>
        <time>2022-01-27T14:17:00Z</time>
      </trkpt>
      <trkpt lat="45.29567" lon="4.48097">
        <ele>1201.6</ele>
        <time>2022-01-27T14:17:03Z</time>
      </trkpt>
      <trkpt lat="45.29562" lon="4.48099">
        <ele>1201.6</ele>
        <time>2022-01-27T14:17:07Z</time>
      </trkpt>
      <trkpt lat="45.29561" lon="4.481">
        <ele>1201.6</ele>
        <time>2022-01-27T14:17:09Z</time>
      </trkpt>
      <trkpt lat="45.29558" lon="4.48101">
        <ele>1201.6</ele>
        <time>2022-01-27T14:17:13Z</time>
      </trkpt>
      <trkpt lat="45.29557" lon="4.48102">
        <ele>1201.4</ele>
        <time>2022-01-27T14:17:22Z</time>
      </trkpt>
      <trkpt lat="45.29557" lon="4.48103">
        <ele>1201.4</ele>
        <time>2022-01-27T14:17:33Z</time>
      </trkpt>
      <trkpt lat="45.29556" lon="4.48103">
        <ele>1201.4</ele>
        <time>2022-01-27T14:17:53Z</time>
      </trkpt>
      <trkpt lat="45.29556" lon="4.48102">
        <ele>1201.2</ele>
        <time>2022-01-27T14:18:03Z</time>
      </trkpt>
      <trkpt lat="45.29556" lon="4.48103">
        <ele>1201</ele>
        <time>2022-01-27T14:18:53Z</time>
      </trkpt>
      <trkpt lat="45.2955" lon="4.48107">
        <ele>1201</ele>
        <time>2022-01-27T14:19:01Z</time>
      </trkpt>
      <trkpt lat="45.29549" lon="4.48109">
        <ele>1201</ele>
        <time>2022-01-27T14:19:03Z</time>
      </trkpt>
      <trkpt lat="45.29547" lon="4.4811">
        <ele>1201</ele>
        <time>2022-01-27T14:19:06Z</time>
      </trkpt>
      <trkpt lat="45.29541" lon="4.48114">
        <ele>1200.8</ele>
        <time>2022-01-27T14:19:13Z</time>
      </trkpt>
      <trkpt lat="45.2954" lon="4.48118">
        <ele>1201.2</ele>
        <time>2022-01-27T14:19:16Z</time>
      </trkpt>
      <trkpt lat="45.29538" lon="4.48121">
        <ele>1201.2</ele>
        <time>2022-01-27T14:19:18Z</time>
      </trkpt>
      <trkpt lat="45.29537" lon="4.48124">
        <ele>1201.2</ele>
        <time>2022-01-27T14:19:21Z</time>
      </trkpt>
      <trkpt lat="45.29536" lon="4.48126">
        <ele>1201.2</ele>
        <time>2022-01-27T14:19:23Z</time>
      </trkpt>
      <trkpt lat="45.29535" lon="4.48127">
        <ele>1201.2</ele>
        <time>2022-01-27T14:19:24Z</time>
      </trkpt>
      <trkpt lat="45.29535" lon="4.48129">
        <ele>1201.2</ele>
        <time>2022-01-27T14:19:26Z</time>
      </trkpt>
      <trkpt lat="45.29534" lon="4.4813">
        <ele>1201.2</ele>
        <time>2022-01-27T14:19:27Z</time>
      </trkpt>
      <trkpt lat="45.29534" lon="4.48131">
        <ele>1201.2</ele>
        <time>2022-01-27T14:19:29Z</time>
      </trkpt>
      <trkpt lat="45.29533" lon="4.48132">
        <ele>1201.2</ele>
        <time>2022-01-27T14:19:31Z</time>
      </trkpt>
      <trkpt lat="45.29533" lon="4.48133">
        <ele>1201.2</ele>
        <time>2022-01-27T14:19:32Z</time>
      </trkpt>
      <trkpt lat="45.29531" lon="4.48136">
        <ele>1201.4</ele>
        <time>2022-01-27T14:19:36Z</time>
      </trkpt>
      <trkpt lat="45.29528" lon="4.48138">
        <ele>1201.2</ele>
        <time>2022-01-27T14:19:41Z</time>
      </trkpt>
      <trkpt lat="45.29526" lon="4.4814">
        <ele>1201.2</ele>
        <time>2022-01-27T14:19:43Z</time>
      </trkpt>
      <trkpt lat="45.29523" lon="4.48143">
        <ele>1201.2</ele>
        <time>2022-01-27T14:19:47Z</time>
      </trkpt>
      <trkpt lat="45.29521" lon="4.48144">
        <ele>1201.2</ele>
        <time>2022-01-27T14:19:50Z</time>
      </trkpt>
      <trkpt lat="45.29522" lon="4.48145">
        <ele>1201.2</ele>
        <time>2022-01-27T14:19:51Z</time>
      </trkpt>
      <trkpt lat="45.29521" lon="4.48145">
        <ele>1201.2</ele>
        <time>2022-01-27T14:19:53Z</time>
      </trkpt>
      <trkpt lat="45.29521" lon="4.48147">
        <ele>1201</ele>
        <time>2022-01-27T14:19:55Z</time>
      </trkpt>
      <trkpt lat="45.29522" lon="4.48154">
        <ele>1201.4</ele>
        <time>2022-01-27T14:20:01Z</time>
      </trkpt>
      <trkpt lat="45.29521" lon="4.48157">
        <ele>1201.4</ele>
        <time>2022-01-27T14:20:03Z</time>
      </trkpt>
      <trkpt lat="45.29521" lon="4.48159">
        <ele>1201.4</ele>
        <time>2022-01-27T14:20:04Z</time>
      </trkpt>
      <trkpt lat="45.2952" lon="4.48165">
        <ele>1201.6</ele>
        <time>2022-01-27T14:20:08Z</time>
      </trkpt>
      <trkpt lat="45.29519" lon="4.48167">
        <ele>1201.8</ele>
        <time>2022-01-27T14:20:09Z</time>
      </trkpt>
      <trkpt lat="45.2952" lon="4.48168">
        <ele>1201.8</ele>
        <time>2022-01-27T14:20:10Z</time>
      </trkpt>
      <trkpt lat="45.2952" lon="4.48169">
        <ele>1202</ele>
        <time>2022-01-27T14:20:13Z</time>
      </trkpt>
      <trkpt lat="45.29518" lon="4.48167">
        <ele>1202.4</ele>
        <time>2022-01-27T14:20:23Z</time>
      </trkpt>
      <trkpt lat="45.29516" lon="4.48162">
        <ele>1202.6</ele>
        <time>2022-01-27T14:20:33Z</time>
      </trkpt>
      <trkpt lat="45.29516" lon="4.48164">
        <ele>1202.8</ele>
        <time>2022-01-27T14:20:53Z</time>
      </trkpt>
      <trkpt lat="45.29515" lon="4.48163">
        <ele>1202.8</ele>
        <time>2022-01-27T14:21:03Z</time>
      </trkpt>
      <trkpt lat="45.29517" lon="4.48166">
        <ele>1202.8</ele>
        <time>2022-01-27T14:21:13Z</time>
      </trkpt>
      <trkpt lat="45.2952" lon="4.48172">
        <ele>1203.2</ele>
        <time>2022-01-27T14:21:20Z</time>
      </trkpt>
      <trkpt lat="45.2952" lon="4.48174">
        <ele>1203.2</ele>
        <time>2022-01-27T14:21:23Z</time>
      </trkpt>
      <trkpt lat="45.29522" lon="4.48176">
        <ele>1203.2</ele>
        <time>2022-01-27T14:21:32Z</time>
      </trkpt>
      <trkpt lat="45.29526" lon="4.48176">
        <ele>1203.4</ele>
        <time>2022-01-27T14:21:43Z</time>
      </trkpt>
      <trkpt lat="45.29526" lon="4.4817">
        <ele>1203.4</ele>
        <time>2022-01-27T14:21:53Z</time>
      </trkpt>
      <trkpt lat="45.29527" lon="4.48163">
        <ele>1203.6</ele>
        <time>2022-01-27T14:22:03Z</time>
      </trkpt>
      <trkpt lat="45.29529" lon="4.4816">
        <ele>1203.6</ele>
        <time>2022-01-27T14:22:05Z</time>
      </trkpt>
      <trkpt lat="45.29531" lon="4.48155">
        <ele>1203.6</ele>
        <time>2022-01-27T14:22:08Z</time>
      </trkpt>
      <trkpt lat="45.29533" lon="4.48154">
        <ele>1203.8</ele>
        <time>2022-01-27T14:22:10Z</time>
      </trkpt>
      <trkpt lat="45.29535" lon="4.48152">
        <ele>1203.6</ele>
        <time>2022-01-27T14:22:13Z</time>
      </trkpt>
      <trkpt lat="45.29536" lon="4.48151">
        <ele>1203.6</ele>
        <time>2022-01-27T14:22:16Z</time>
      </trkpt>
      <trkpt lat="45.29535" lon="4.4815">
        <ele>1203.6</ele>
        <time>2022-01-27T14:22:18Z</time>
      </trkpt>
      <trkpt lat="45.29535" lon="4.48149">
        <ele>1203.6</ele>
        <time>2022-01-27T14:22:21Z</time>
      </trkpt>
      <trkpt lat="45.29537" lon="4.48149">
        <ele>1203.6</ele>
        <time>2022-01-27T14:22:23Z</time>
      </trkpt>
      <trkpt lat="45.29539" lon="4.4815">
        <ele>1203.6</ele>
        <time>2022-01-27T14:22:24Z</time>
      </trkpt>
      <trkpt lat="45.29541" lon="4.4815">
        <ele>1203.6</ele>
        <time>2022-01-27T14:22:26Z</time>
      </trkpt>
      <trkpt lat="45.29544" lon="4.4815">
        <ele>1203.4</ele>
        <time>2022-01-27T14:22:29Z</time>
      </trkpt>
      <trkpt lat="45.29547" lon="4.48148">
        <ele>1203.2</ele>
        <time>2022-01-27T14:22:32Z</time>
      </trkpt>
      <trkpt lat="45.29548" lon="4.48148">
        <ele>1203.2</ele>
        <time>2022-01-27T14:22:33Z</time>
      </trkpt>
      <trkpt lat="45.29556" lon="4.48145">
        <ele>1203.4</ele>
        <time>2022-01-27T14:22:40Z</time>
      </trkpt>
      <trkpt lat="45.29557" lon="4.48145">
        <ele>1203.4</ele>
        <time>2022-01-27T14:22:41Z</time>
      </trkpt>
      <trkpt lat="45.2956" lon="4.48144">
        <ele>1203.4</ele>
        <time>2022-01-27T14:22:43Z</time>
      </trkpt>
      <trkpt lat="45.29566" lon="4.48143">
        <ele>1203.2</ele>
        <time>2022-01-27T14:22:47Z</time>
      </trkpt>
      <trkpt lat="45.29569" lon="4.4814">
        <ele>1203.2</ele>
        <time>2022-01-27T14:22:50Z</time>
      </trkpt>
      <trkpt lat="45.29573" lon="4.48139">
        <ele>1203</ele>
        <time>2022-01-27T14:22:53Z</time>
      </trkpt>
      <trkpt lat="45.2958" lon="4.48138">
        <ele>1202.8</ele>
        <time>2022-01-27T14:23:00Z</time>
      </trkpt>
      <trkpt lat="45.29584" lon="4.48136">
        <ele>1202.6</ele>
        <time>2022-01-27T14:23:03Z</time>
      </trkpt>
      <trkpt lat="45.29599" lon="4.48129">
        <ele>1202.4</ele>
        <time>2022-01-27T14:23:13Z</time>
      </trkpt>
      <trkpt lat="45.29612" lon="4.48123">
        <ele>1202</ele>
        <time>2022-01-27T14:23:23Z</time>
      </trkpt>
      <trkpt lat="45.29617" lon="4.48123">
        <ele>1202.2</ele>
        <time>2022-01-27T14:23:27Z</time>
      </trkpt>
      <trkpt lat="45.29619" lon="4.4812">
        <ele>1202</ele>
        <time>2022-01-27T14:23:31Z</time>
      </trkpt>
      <trkpt lat="45.29619" lon="4.48119">
        <ele>1202</ele>
        <time>2022-01-27T14:23:33Z</time>
      </trkpt>
      <trkpt lat="45.29618" lon="4.48116">
        <ele>1201.8</ele>
        <time>2022-01-27T14:23:40Z</time>
      </trkpt>
      <trkpt lat="45.29618" lon="4.48113">
        <ele>1202.2</ele>
        <time>2022-01-27T14:23:53Z</time>
      </trkpt>
      <trkpt lat="45.29618" lon="4.48111">
        <ele>1202</ele>
        <time>2022-01-27T14:24:03Z</time>
      </trkpt>
      <trkpt lat="45.29618" lon="4.4811">
        <ele>1202</ele>
        <time>2022-01-27T14:24:18Z</time>
      </trkpt>
      <trkpt lat="45.29617" lon="4.48114">
        <ele>1201.8</ele>
        <time>2022-01-27T14:24:32Z</time>
      </trkpt>
      <trkpt lat="45.29618" lon="4.48114">
        <ele>1201.8</ele>
        <time>2022-01-27T14:24:33Z</time>
      </trkpt>
      <trkpt lat="45.29618" lon="4.48118">
        <ele>1202.4</ele>
        <time>2022-01-27T14:24:43Z</time>
      </trkpt>
      <trkpt lat="45.29618" lon="4.48121">
        <ele>1202.4</ele>
        <time>2022-01-27T14:24:53Z</time>
      </trkpt>
      <trkpt lat="45.29618" lon="4.48123">
        <ele>1202.4</ele>
        <time>2022-01-27T14:25:00Z</time>
      </trkpt>
      <trkpt lat="45.29617" lon="4.48122">
        <ele>1202.4</ele>
        <time>2022-01-27T14:25:11Z</time>
      </trkpt>
      <trkpt lat="45.29617" lon="4.48123">
        <ele>1202.4</ele>
        <time>2022-01-27T14:25:23Z</time>
      </trkpt>
      <trkpt lat="45.29619" lon="4.48119">
        <ele>1202.4</ele>
        <time>2022-01-27T14:25:33Z</time>
      </trkpt>
      <trkpt lat="45.29625" lon="4.48115">
        <ele>1201.2</ele>
        <time>2022-01-27T14:25:39Z</time>
      </trkpt>
      <trkpt lat="45.29627" lon="4.48114">
        <ele>1200.8</ele>
        <time>2022-01-27T14:25:40Z</time>
      </trkpt>
      <trkpt lat="45.2963" lon="4.48111">
        <ele>1200.4</ele>
        <time>2022-01-27T14:25:43Z</time>
      </trkpt>
      <trkpt lat="45.29631" lon="4.48111">
        <ele>1200.4</ele>
        <time>2022-01-27T14:25:44Z</time>
      </trkpt>
      <trkpt lat="45.29636" lon="4.4811">
        <ele>1200.2</ele>
        <time>2022-01-27T14:25:48Z</time>
      </trkpt>
      <trkpt lat="45.29638" lon="4.4811">
        <ele>1200.2</ele>
        <time>2022-01-27T14:25:50Z</time>
      </trkpt>
      <trkpt lat="45.29642" lon="4.48109">
        <ele>1199.8</ele>
        <time>2022-01-27T14:25:53Z</time>
      </trkpt>
      <trkpt lat="45.29645" lon="4.48108">
        <ele>1199.6</ele>
        <time>2022-01-27T14:25:55Z</time>
      </trkpt>
      <trkpt lat="45.29648" lon="4.48107">
        <ele>1199.8</ele>
        <time>2022-01-27T14:25:57Z</time>
      </trkpt>
      <trkpt lat="45.2965" lon="4.48107">
        <ele>1199.8</ele>
        <time>2022-01-27T14:25:59Z</time>
      </trkpt>
      <trkpt lat="45.29652" lon="4.48106">
        <ele>1199.8</ele>
        <time>2022-01-27T14:26:01Z</time>
      </trkpt>
      <trkpt lat="45.29655" lon="4.48104">
        <ele>1199.8</ele>
        <time>2022-01-27T14:26:03Z</time>
      </trkpt>
      <trkpt lat="45.29656" lon="4.48103">
        <ele>1199.8</ele>
        <time>2022-01-27T14:26:04Z</time>
      </trkpt>
      <trkpt lat="45.29658" lon="4.48101">
        <ele>1199.8</ele>
        <time>2022-01-27T14:26:06Z</time>
      </trkpt>
      <trkpt lat="45.29663" lon="4.48099">
        <ele>1199.8</ele>
        <time>2022-01-27T14:26:10Z</time>
      </trkpt>
      <trkpt lat="45.29664" lon="4.48099">
        <ele>1199.8</ele>
        <time>2022-01-27T14:26:11Z</time>
      </trkpt>
      <trkpt lat="45.29666" lon="4.48098">
        <ele>1199.8</ele>
        <time>2022-01-27T14:26:13Z</time>
      </trkpt>
      <trkpt lat="45.29669" lon="4.48097">
        <ele>1199.6</ele>
        <time>2022-01-27T14:26:16Z</time>
      </trkpt>
      <trkpt lat="45.29671" lon="4.48096">
        <ele>1199.2</ele>
        <time>2022-01-27T14:26:18Z</time>
      </trkpt>
      <trkpt lat="45.29672" lon="4.48095">
        <ele>1199.2</ele>
        <time>2022-01-27T14:26:20Z</time>
      </trkpt>
      <trkpt lat="45.29674" lon="4.48095">
        <ele>1198.8</ele>
        <time>2022-01-27T14:26:22Z</time>
      </trkpt>
      <trkpt lat="45.29675" lon="4.48095">
        <ele>1198.8</ele>
        <time>2022-01-27T14:26:23Z</time>
      </trkpt>
      <trkpt lat="45.29679" lon="4.48094">
        <ele>1198.6</ele>
        <time>2022-01-27T14:26:26Z</time>
      </trkpt>
      <trkpt lat="45.29682" lon="4.48093">
        <ele>1198.6</ele>
        <time>2022-01-27T14:26:29Z</time>
      </trkpt>
      <trkpt lat="45.29683" lon="4.48092">
        <ele>1198.4</ele>
        <time>2022-01-27T14:26:30Z</time>
      </trkpt>
      <trkpt lat="45.29684" lon="4.48092">
        <ele>1198.4</ele>
        <time>2022-01-27T14:26:31Z</time>
      </trkpt>
      <trkpt lat="45.29686" lon="4.48092">
        <ele>1198.4</ele>
        <time>2022-01-27T14:26:32Z</time>
      </trkpt>
      <trkpt lat="45.29687" lon="4.48091">
        <ele>1198.4</ele>
        <time>2022-01-27T14:26:33Z</time>
      </trkpt>
      <trkpt lat="45.29689" lon="4.48091">
        <ele>1198.2</ele>
        <time>2022-01-27T14:26:35Z</time>
      </trkpt>
      <trkpt lat="45.2969" lon="4.4809">
        <ele>1198.2</ele>
        <time>2022-01-27T14:26:36Z</time>
      </trkpt>
      <trkpt lat="45.29691" lon="4.4809">
        <ele>1198.2</ele>
        <time>2022-01-27T14:26:37Z</time>
      </trkpt>
      <trkpt lat="45.29693" lon="4.48089">
        <ele>1198</ele>
        <time>2022-01-27T14:26:38Z</time>
      </trkpt>
      <trkpt lat="45.29696" lon="4.48089">
        <ele>1197.6</ele>
        <time>2022-01-27T14:26:41Z</time>
      </trkpt>
      <trkpt lat="45.29697" lon="4.48088">
        <ele>1197.4</ele>
        <time>2022-01-27T14:26:42Z</time>
      </trkpt>
      <trkpt lat="45.29699" lon="4.48088">
        <ele>1197.2</ele>
        <time>2022-01-27T14:26:43Z</time>
      </trkpt>
      <trkpt lat="45.29708" lon="4.48082">
        <ele>1197</ele>
        <time>2022-01-27T14:26:51Z</time>
      </trkpt>
      <trkpt lat="45.2971" lon="4.48081">
        <ele>1196.8</ele>
        <time>2022-01-27T14:26:53Z</time>
      </trkpt>
      <trkpt lat="45.29716" lon="4.48078">
        <ele>1196.6</ele>
        <time>2022-01-27T14:26:58Z</time>
      </trkpt>
      <trkpt lat="45.29718" lon="4.48077">
        <ele>1196.4</ele>
        <time>2022-01-27T14:27:00Z</time>
      </trkpt>
      <trkpt lat="45.29722" lon="4.48076">
        <ele>1196</ele>
        <time>2022-01-27T14:27:03Z</time>
      </trkpt>
      <trkpt lat="45.29731" lon="4.48071">
        <ele>1195.6</ele>
        <time>2022-01-27T14:27:10Z</time>
      </trkpt>
      <trkpt lat="45.29732" lon="4.4807">
        <ele>1195.4</ele>
        <time>2022-01-27T14:27:11Z</time>
      </trkpt>
      <trkpt lat="45.29734" lon="4.48069">
        <ele>1195.2</ele>
        <time>2022-01-27T14:27:13Z</time>
      </trkpt>
      <trkpt lat="45.29747" lon="4.48064">
        <ele>1194.4</ele>
        <time>2022-01-27T14:27:23Z</time>
      </trkpt>
      <trkpt lat="45.29748" lon="4.48064">
        <ele>1194.4</ele>
        <time>2022-01-27T14:27:24Z</time>
      </trkpt>
      <trkpt lat="45.2976" lon="4.48065">
        <ele>1193.6</ele>
        <time>2022-01-27T14:27:33Z</time>
      </trkpt>
      <trkpt lat="45.29764" lon="4.48066">
        <ele>1193.4</ele>
        <time>2022-01-27T14:27:36Z</time>
      </trkpt>
      <trkpt lat="45.29767" lon="4.48067">
        <ele>1193.2</ele>
        <time>2022-01-27T14:27:38Z</time>
      </trkpt>
      <trkpt lat="45.29769" lon="4.48068">
        <ele>1193</ele>
        <time>2022-01-27T14:27:40Z</time>
      </trkpt>
      <trkpt lat="45.29772" lon="4.48067">
        <ele>1192.8</ele>
        <time>2022-01-27T14:27:43Z</time>
      </trkpt>
      <trkpt lat="45.29775" lon="4.48066">
        <ele>1192.8</ele>
        <time>2022-01-27T14:27:46Z</time>
      </trkpt>
      <trkpt lat="45.29778" lon="4.48067">
        <ele>1192.6</ele>
        <time>2022-01-27T14:27:50Z</time>
      </trkpt>
      <trkpt lat="45.29781" lon="4.48068">
        <ele>1192.4</ele>
        <time>2022-01-27T14:27:53Z</time>
      </trkpt>
      <trkpt lat="45.29782" lon="4.48068">
        <ele>1192.2</ele>
        <time>2022-01-27T14:27:54Z</time>
      </trkpt>
      <trkpt lat="45.29785" lon="4.48069">
        <ele>1192.2</ele>
        <time>2022-01-27T14:27:56Z</time>
      </trkpt>
      <trkpt lat="45.29787" lon="4.48069">
        <ele>1192.2</ele>
        <time>2022-01-27T14:27:57Z</time>
      </trkpt>
      <trkpt lat="45.29792" lon="4.48071">
        <ele>1191.6</ele>
        <time>2022-01-27T14:28:03Z</time>
      </trkpt>
      <trkpt lat="45.29795" lon="4.48072">
        <ele>1191.2</ele>
        <time>2022-01-27T14:28:06Z</time>
      </trkpt>
      <trkpt lat="45.29797" lon="4.48074">
        <ele>1191</ele>
        <time>2022-01-27T14:28:08Z</time>
      </trkpt>
      <trkpt lat="45.29798" lon="4.48075">
        <ele>1191</ele>
        <time>2022-01-27T14:28:09Z</time>
      </trkpt>
      <trkpt lat="45.29802" lon="4.48078">
        <ele>1190.6</ele>
        <time>2022-01-27T14:28:13Z</time>
      </trkpt>
      <trkpt lat="45.29807" lon="4.4808">
        <ele>1190.4</ele>
        <time>2022-01-27T14:28:17Z</time>
      </trkpt>
      <trkpt lat="45.29809" lon="4.48081">
        <ele>1190</ele>
        <time>2022-01-27T14:28:19Z</time>
      </trkpt>
      <trkpt lat="45.29812" lon="4.48081">
        <ele>1189.8</ele>
        <time>2022-01-27T14:28:21Z</time>
      </trkpt>
      <trkpt lat="45.29815" lon="4.48082">
        <ele>1189.8</ele>
        <time>2022-01-27T14:28:23Z</time>
      </trkpt>
      <trkpt lat="45.29822" lon="4.48082">
        <ele>1189</ele>
        <time>2022-01-27T14:28:29Z</time>
      </trkpt>
      <trkpt lat="45.29826" lon="4.48084">
        <ele>1188.6</ele>
        <time>2022-01-27T14:28:33Z</time>
      </trkpt>
      <trkpt lat="45.29833" lon="4.48089">
        <ele>1188</ele>
        <time>2022-01-27T14:28:39Z</time>
      </trkpt>
      <trkpt lat="45.29837" lon="4.48094">
        <ele>1187.6</ele>
        <time>2022-01-27T14:28:43Z</time>
      </trkpt>
      <trkpt lat="45.29838" lon="4.48097">
        <ele>1187.4</ele>
        <time>2022-01-27T14:28:45Z</time>
      </trkpt>
      <trkpt lat="45.29839" lon="4.48098">
        <ele>1187.4</ele>
        <time>2022-01-27T14:28:46Z</time>
      </trkpt>
      <trkpt lat="45.2984" lon="4.48101">
        <ele>1187</ele>
        <time>2022-01-27T14:28:48Z</time>
      </trkpt>
      <trkpt lat="45.2984" lon="4.48102">
        <ele>1186.8</ele>
        <time>2022-01-27T14:28:49Z</time>
      </trkpt>
      <trkpt lat="45.29843" lon="4.48108">
        <ele>1186.6</ele>
        <time>2022-01-27T14:28:53Z</time>
      </trkpt>
      <trkpt lat="45.29847" lon="4.48116">
        <ele>1186.2</ele>
        <time>2022-01-27T14:28:59Z</time>
      </trkpt>
      <trkpt lat="45.29849" lon="4.48121">
        <ele>1186</ele>
        <time>2022-01-27T14:29:03Z</time>
      </trkpt>
      <trkpt lat="45.29853" lon="4.48129">
        <ele>1185.8</ele>
        <time>2022-01-27T14:29:10Z</time>
      </trkpt>
      <trkpt lat="45.29851" lon="4.48131">
        <ele>1185.6</ele>
        <time>2022-01-27T14:29:13Z</time>
      </trkpt>
      <trkpt lat="45.29851" lon="4.48142">
        <ele>1185.6</ele>
        <time>2022-01-27T14:29:21Z</time>
      </trkpt>
      <trkpt lat="45.29851" lon="4.48143">
        <ele>1185.6</ele>
        <time>2022-01-27T14:29:22Z</time>
      </trkpt>
      <trkpt lat="45.29851" lon="4.48144">
        <ele>1185.6</ele>
        <time>2022-01-27T14:29:23Z</time>
      </trkpt>
      <trkpt lat="45.29851" lon="4.48145">
        <ele>1185.6</ele>
        <time>2022-01-27T14:29:24Z</time>
      </trkpt>
      <trkpt lat="45.29851" lon="4.48147">
        <ele>1185.4</ele>
        <time>2022-01-27T14:29:26Z</time>
      </trkpt>
      <trkpt lat="45.29851" lon="4.48149">
        <ele>1185.4</ele>
        <time>2022-01-27T14:29:27Z</time>
      </trkpt>
      <trkpt lat="45.29851" lon="4.4815">
        <ele>1185.6</ele>
        <time>2022-01-27T14:29:28Z</time>
      </trkpt>
      <trkpt lat="45.29852" lon="4.48151">
        <ele>1185.6</ele>
        <time>2022-01-27T14:29:29Z</time>
      </trkpt>
      <trkpt lat="45.29852" lon="4.48153">
        <ele>1185.6</ele>
        <time>2022-01-27T14:29:30Z</time>
      </trkpt>
      <trkpt lat="45.29853" lon="4.48154">
        <ele>1185.6</ele>
        <time>2022-01-27T14:29:31Z</time>
      </trkpt>
      <trkpt lat="45.29853" lon="4.48155">
        <ele>1185.6</ele>
        <time>2022-01-27T14:29:32Z</time>
      </trkpt>
      <trkpt lat="45.29853" lon="4.48158">
        <ele>1185.4</ele>
        <time>2022-01-27T14:29:36Z</time>
      </trkpt>
      <trkpt lat="45.29854" lon="4.48162">
        <ele>1185.6</ele>
        <time>2022-01-27T14:29:39Z</time>
      </trkpt>
      <trkpt lat="45.29857" lon="4.4817">
        <ele>1185.6</ele>
        <time>2022-01-27T14:29:43Z</time>
      </trkpt>
      <trkpt lat="45.29858" lon="4.48172">
        <ele>1185.6</ele>
        <time>2022-01-27T14:29:44Z</time>
      </trkpt>
      <trkpt lat="45.29859" lon="4.48174">
        <ele>1185.6</ele>
        <time>2022-01-27T14:29:45Z</time>
      </trkpt>
      <trkpt lat="45.29864" lon="4.48184">
        <ele>1185.6</ele>
        <time>2022-01-27T14:29:51Z</time>
      </trkpt>
      <trkpt lat="45.29865" lon="4.48186">
        <ele>1185.4</ele>
        <time>2022-01-27T14:29:53Z</time>
      </trkpt>
      <trkpt lat="45.29868" lon="4.48194">
        <ele>1185.4</ele>
        <time>2022-01-27T14:30:00Z</time>
      </trkpt>
      <trkpt lat="45.29868" lon="4.48195">
        <ele>1185.4</ele>
        <time>2022-01-27T14:30:02Z</time>
      </trkpt>
      <trkpt lat="45.29868" lon="4.48196">
        <ele>1185.4</ele>
        <time>2022-01-27T14:30:04Z</time>
      </trkpt>
      <trkpt lat="45.29868" lon="4.48198">
        <ele>1185.4</ele>
        <time>2022-01-27T14:30:06Z</time>
      </trkpt>
      <trkpt lat="45.29869" lon="4.482">
        <ele>1185.4</ele>
        <time>2022-01-27T14:30:08Z</time>
      </trkpt>
      <trkpt lat="45.2987" lon="4.48203">
        <ele>1185.4</ele>
        <time>2022-01-27T14:30:10Z</time>
      </trkpt>
      <trkpt lat="45.2987" lon="4.48204">
        <ele>1185.4</ele>
        <time>2022-01-27T14:30:11Z</time>
      </trkpt>
      <trkpt lat="45.29872" lon="4.48207">
        <ele>1185.6</ele>
        <time>2022-01-27T14:30:13Z</time>
      </trkpt>
      <trkpt lat="45.29876" lon="4.48218">
        <ele>1185.4</ele>
        <time>2022-01-27T14:30:21Z</time>
      </trkpt>
      <trkpt lat="45.29877" lon="4.4822">
        <ele>1185.4</ele>
        <time>2022-01-27T14:30:23Z</time>
      </trkpt>
      <trkpt lat="45.29878" lon="4.48221">
        <ele>1185.4</ele>
        <time>2022-01-27T14:30:24Z</time>
      </trkpt>
      <trkpt lat="45.29879" lon="4.48225">
        <ele>1185.2</ele>
        <time>2022-01-27T14:30:27Z</time>
      </trkpt>
      <trkpt lat="45.29884" lon="4.48234">
        <ele>1185.4</ele>
        <time>2022-01-27T14:30:33Z</time>
      </trkpt>
      <trkpt lat="45.29887" lon="4.4824">
        <ele>1185.6</ele>
        <time>2022-01-27T14:30:37Z</time>
      </trkpt>
      <trkpt lat="45.29892" lon="4.48248">
        <ele>1185.8</ele>
        <time>2022-01-27T14:30:43Z</time>
      </trkpt>
      <trkpt lat="45.29897" lon="4.48258">
        <ele>1186.2</ele>
        <time>2022-01-27T14:30:50Z</time>
      </trkpt>
      <trkpt lat="45.299" lon="4.48262">
        <ele>1186.2</ele>
        <time>2022-01-27T14:30:53Z</time>
      </trkpt>
      <trkpt lat="45.29902" lon="4.48267">
        <ele>1186.4</ele>
        <time>2022-01-27T14:30:57Z</time>
      </trkpt>
      <trkpt lat="45.29905" lon="4.48274">
        <ele>1186.8</ele>
        <time>2022-01-27T14:31:03Z</time>
      </trkpt>
      <trkpt lat="45.29906" lon="4.48275">
        <ele>1186.8</ele>
        <time>2022-01-27T14:31:04Z</time>
      </trkpt>
      <trkpt lat="45.29911" lon="4.48281">
        <ele>1187</ele>
        <time>2022-01-27T14:31:09Z</time>
      </trkpt>
      <trkpt lat="45.29914" lon="4.48286">
        <ele>1186.8</ele>
        <time>2022-01-27T14:31:13Z</time>
      </trkpt>
      <trkpt lat="45.29918" lon="4.48292">
        <ele>1187.2</ele>
        <time>2022-01-27T14:31:18Z</time>
      </trkpt>
      <trkpt lat="45.29921" lon="4.48298">
        <ele>1187.2</ele>
        <time>2022-01-27T14:31:23Z</time>
      </trkpt>
      <trkpt lat="45.29923" lon="4.48299">
        <ele>1187.2</ele>
        <time>2022-01-27T14:31:24Z</time>
      </trkpt>
      <trkpt lat="45.29928" lon="4.48307">
        <ele>1187.2</ele>
        <time>2022-01-27T14:31:30Z</time>
      </trkpt>
      <trkpt lat="45.29929" lon="4.4831">
        <ele>1187</ele>
        <time>2022-01-27T14:31:33Z</time>
      </trkpt>
      <trkpt lat="45.2993" lon="4.48311">
        <ele>1187</ele>
        <time>2022-01-27T14:31:34Z</time>
      </trkpt>
      <trkpt lat="45.29936" lon="4.48322">
        <ele>1186.4</ele>
        <time>2022-01-27T14:31:43Z</time>
      </trkpt>
      <trkpt lat="45.29939" lon="4.48327">
        <ele>1186</ele>
        <time>2022-01-27T14:31:47Z</time>
      </trkpt>
      <trkpt lat="45.29941" lon="4.48329">
        <ele>1185.8</ele>
        <time>2022-01-27T14:31:49Z</time>
      </trkpt>
      <trkpt lat="45.29941" lon="4.48331">
        <ele>1185.8</ele>
        <time>2022-01-27T14:31:51Z</time>
      </trkpt>
      <trkpt lat="45.29942" lon="4.48332">
        <ele>1185.6</ele>
        <time>2022-01-27T14:31:53Z</time>
      </trkpt>
      <trkpt lat="45.29945" lon="4.48337">
        <ele>1184.8</ele>
        <time>2022-01-27T14:32:00Z</time>
      </trkpt>
      <trkpt lat="45.29945" lon="4.48338">
        <ele>1184.6</ele>
        <time>2022-01-27T14:32:01Z</time>
      </trkpt>
      <trkpt lat="45.29947" lon="4.48338">
        <ele>1184.4</ele>
        <time>2022-01-27T14:32:03Z</time>
      </trkpt>
      <trkpt lat="45.29951" lon="4.48342">
        <ele>1183.8</ele>
        <time>2022-01-27T14:32:08Z</time>
      </trkpt>
      <trkpt lat="45.29952" lon="4.48343">
        <ele>1183.6</ele>
        <time>2022-01-27T14:32:10Z</time>
      </trkpt>
      <trkpt lat="45.29955" lon="4.48346">
        <ele>1183.6</ele>
        <time>2022-01-27T14:32:13Z</time>
      </trkpt>
      <trkpt lat="45.29956" lon="4.48347">
        <ele>1183.6</ele>
        <time>2022-01-27T14:32:14Z</time>
      </trkpt>
      <trkpt lat="45.2996" lon="4.48351">
        <ele>1183</ele>
        <time>2022-01-27T14:32:18Z</time>
      </trkpt>
      <trkpt lat="45.29963" lon="4.48355">
        <ele>1182.8</ele>
        <time>2022-01-27T14:32:23Z</time>
      </trkpt>
      <trkpt lat="45.29963" lon="4.48356">
        <ele>1182.8</ele>
        <time>2022-01-27T14:32:24Z</time>
      </trkpt>
      <trkpt lat="45.29965" lon="4.48357">
        <ele>1182.6</ele>
        <time>2022-01-27T14:32:26Z</time>
      </trkpt>
      <trkpt lat="45.29968" lon="4.48359">
        <ele>1182.4</ele>
        <time>2022-01-27T14:32:29Z</time>
      </trkpt>
      <trkpt lat="45.29971" lon="4.4836">
        <ele>1182</ele>
        <time>2022-01-27T14:32:32Z</time>
      </trkpt>
      <trkpt lat="45.29972" lon="4.4836">
        <ele>1182</ele>
        <time>2022-01-27T14:32:33Z</time>
      </trkpt>
      <trkpt lat="45.29973" lon="4.48361">
        <ele>1182</ele>
        <time>2022-01-27T14:32:34Z</time>
      </trkpt>
      <trkpt lat="45.29975" lon="4.48362">
        <ele>1181.8</ele>
        <time>2022-01-27T14:32:36Z</time>
      </trkpt>
      <trkpt lat="45.29976" lon="4.48362">
        <ele>1181.8</ele>
        <time>2022-01-27T14:32:37Z</time>
      </trkpt>
      <trkpt lat="45.29977" lon="4.48363">
        <ele>1181.8</ele>
        <time>2022-01-27T14:32:38Z</time>
      </trkpt>
      <trkpt lat="45.29979" lon="4.48363">
        <ele>1181.6</ele>
        <time>2022-01-27T14:32:41Z</time>
      </trkpt>
      <trkpt lat="45.29981" lon="4.48364">
        <ele>1181.4</ele>
        <time>2022-01-27T14:32:43Z</time>
      </trkpt>
      <trkpt lat="45.29982" lon="4.48365">
        <ele>1181.4</ele>
        <time>2022-01-27T14:32:44Z</time>
      </trkpt>
      <trkpt lat="45.29988" lon="4.48367">
        <ele>1181.2</ele>
        <time>2022-01-27T14:32:48Z</time>
      </trkpt>
      <trkpt lat="45.2999" lon="4.48368">
        <ele>1181</ele>
        <time>2022-01-27T14:32:50Z</time>
      </trkpt>
      <trkpt lat="45.29993" lon="4.4837">
        <ele>1180.8</ele>
        <time>2022-01-27T14:32:53Z</time>
      </trkpt>
      <trkpt lat="45.29999" lon="4.48376">
        <ele>1180.6</ele>
        <time>2022-01-27T14:33:00Z</time>
      </trkpt>
      <trkpt lat="45.30003" lon="4.48378">
        <ele>1180.2</ele>
        <time>2022-01-27T14:33:03Z</time>
      </trkpt>
      <trkpt lat="45.30009" lon="4.4838">
        <ele>1179.8</ele>
        <time>2022-01-27T14:33:09Z</time>
      </trkpt>
      <trkpt lat="45.30012" lon="4.48382">
        <ele>1179.6</ele>
        <time>2022-01-27T14:33:12Z</time>
      </trkpt>
      <trkpt lat="45.30013" lon="4.48383">
        <ele>1179.6</ele>
        <time>2022-01-27T14:33:13Z</time>
      </trkpt>
      <trkpt lat="45.30014" lon="4.48384">
        <ele>1179.2</ele>
        <time>2022-01-27T14:33:15Z</time>
      </trkpt>
      <trkpt lat="45.30015" lon="4.48387">
        <ele>1179.2</ele>
        <time>2022-01-27T14:33:17Z</time>
      </trkpt>
      <trkpt lat="45.30017" lon="4.48388">
        <ele>1178.8</ele>
        <time>2022-01-27T14:33:19Z</time>
      </trkpt>
      <trkpt lat="45.30022" lon="4.48392">
        <ele>1178.6</ele>
        <time>2022-01-27T14:33:23Z</time>
      </trkpt>
      <trkpt lat="45.30023" lon="4.48394">
        <ele>1178.6</ele>
        <time>2022-01-27T14:33:24Z</time>
      </trkpt>
      <trkpt lat="45.30026" lon="4.48395">
        <ele>1178.4</ele>
        <time>2022-01-27T14:33:27Z</time>
      </trkpt>
      <trkpt lat="45.3003" lon="4.48399">
        <ele>1178.2</ele>
        <time>2022-01-27T14:33:30Z</time>
      </trkpt>
      <trkpt lat="45.30034" lon="4.48401">
        <ele>1178.2</ele>
        <time>2022-01-27T14:33:33Z</time>
      </trkpt>
      <trkpt lat="45.30045" lon="4.48412">
        <ele>1177.8</ele>
        <time>2022-01-27T14:33:41Z</time>
      </trkpt>
      <trkpt lat="45.30048" lon="4.48414">
        <ele>1177.4</ele>
        <time>2022-01-27T14:33:43Z</time>
      </trkpt>
      <trkpt lat="45.30059" lon="4.48422">
        <ele>1176.8</ele>
        <time>2022-01-27T14:33:52Z</time>
      </trkpt>
      <trkpt lat="45.3006" lon="4.48423">
        <ele>1176.8</ele>
        <time>2022-01-27T14:33:53Z</time>
      </trkpt>
      <trkpt lat="45.30063" lon="4.48425">
        <ele>1177</ele>
        <time>2022-01-27T14:33:56Z</time>
      </trkpt>
      <trkpt lat="45.30065" lon="4.48426">
        <ele>1177</ele>
        <time>2022-01-27T14:33:58Z</time>
      </trkpt>
      <trkpt lat="45.30066" lon="4.48427">
        <ele>1177</ele>
        <time>2022-01-27T14:33:59Z</time>
      </trkpt>
      <trkpt lat="45.3007" lon="4.48429">
        <ele>1176.8</ele>
        <time>2022-01-27T14:34:03Z</time>
      </trkpt>
      <trkpt lat="45.30072" lon="4.48431">
        <ele>1176.8</ele>
        <time>2022-01-27T14:34:05Z</time>
      </trkpt>
      <trkpt lat="45.30078" lon="4.48435">
        <ele>1176.8</ele>
        <time>2022-01-27T14:34:10Z</time>
      </trkpt>
      <trkpt lat="45.30079" lon="4.48435">
        <ele>1176.8</ele>
        <time>2022-01-27T14:34:11Z</time>
      </trkpt>
      <trkpt lat="45.30081" lon="4.48437">
        <ele>1177</ele>
        <time>2022-01-27T14:34:13Z</time>
      </trkpt>
      <trkpt lat="45.30086" lon="4.48439">
        <ele>1176.8</ele>
        <time>2022-01-27T14:34:16Z</time>
      </trkpt>
      <trkpt lat="45.3009" lon="4.48442">
        <ele>1176.8</ele>
        <time>2022-01-27T14:34:19Z</time>
      </trkpt>
      <trkpt lat="45.30097" lon="4.48448">
        <ele>1176.8</ele>
        <time>2022-01-27T14:34:23Z</time>
      </trkpt>
      <trkpt lat="45.30109" lon="4.48462">
        <ele>1176.8</ele>
        <time>2022-01-27T14:34:33Z</time>
      </trkpt>
      <trkpt lat="45.3011" lon="4.48464">
        <ele>1176.8</ele>
        <time>2022-01-27T14:34:34Z</time>
      </trkpt>
      <trkpt lat="45.3012" lon="4.48476">
        <ele>1177</ele>
        <time>2022-01-27T14:34:43Z</time>
      </trkpt>
      <trkpt lat="45.30125" lon="4.48485">
        <ele>1176.6</ele>
        <time>2022-01-27T14:34:50Z</time>
      </trkpt>
      <trkpt lat="45.30127" lon="4.48487">
        <ele>1176.6</ele>
        <time>2022-01-27T14:34:52Z</time>
      </trkpt>
      <trkpt lat="45.30128" lon="4.48489">
        <ele>1176.6</ele>
        <time>2022-01-27T14:34:53Z</time>
      </trkpt>
      <trkpt lat="45.30128" lon="4.4849">
        <ele>1176.8</ele>
        <time>2022-01-27T14:34:54Z</time>
      </trkpt>
      <trkpt lat="45.30131" lon="4.48495">
        <ele>1176.8</ele>
        <time>2022-01-27T14:34:57Z</time>
      </trkpt>
      <trkpt lat="45.30134" lon="4.485">
        <ele>1176.8</ele>
        <time>2022-01-27T14:35:01Z</time>
      </trkpt>
      <trkpt lat="45.30134" lon="4.48503">
        <ele>1176.6</ele>
        <time>2022-01-27T14:35:03Z</time>
      </trkpt>
      <trkpt lat="45.30136" lon="4.48506">
        <ele>1176.6</ele>
        <time>2022-01-27T14:35:05Z</time>
      </trkpt>
      <trkpt lat="45.30141" lon="4.48515">
        <ele>1176.6</ele>
        <time>2022-01-27T14:35:13Z</time>
      </trkpt>
      <trkpt lat="45.30143" lon="4.48516">
        <ele>1176.4</ele>
        <time>2022-01-27T14:35:15Z</time>
      </trkpt>
      <trkpt lat="45.30144" lon="4.48519">
        <ele>1176.2</ele>
        <time>2022-01-27T14:35:17Z</time>
      </trkpt>
      <trkpt lat="45.30145" lon="4.4852">
        <ele>1176.2</ele>
        <time>2022-01-27T14:35:18Z</time>
      </trkpt>
      <trkpt lat="45.3015" lon="4.48524">
        <ele>1175.8</ele>
        <time>2022-01-27T14:35:23Z</time>
      </trkpt>
      <trkpt lat="45.30151" lon="4.48525">
        <ele>1175.6</ele>
        <time>2022-01-27T14:35:24Z</time>
      </trkpt>
      <trkpt lat="45.30153" lon="4.48527">
        <ele>1175.4</ele>
        <time>2022-01-27T14:35:27Z</time>
      </trkpt>
      <trkpt lat="45.30155" lon="4.48528">
        <ele>1175.4</ele>
        <time>2022-01-27T14:35:28Z</time>
      </trkpt>
      <trkpt lat="45.30158" lon="4.48532">
        <ele>1174.6</ele>
        <time>2022-01-27T14:35:33Z</time>
      </trkpt>
      <trkpt lat="45.30159" lon="4.48533">
        <ele>1174.6</ele>
        <time>2022-01-27T14:35:34Z</time>
      </trkpt>
      <trkpt lat="45.30164" lon="4.48533">
        <ele>1174.6</ele>
        <time>2022-01-27T14:35:39Z</time>
      </trkpt>
      <trkpt lat="45.30166" lon="4.48534">
        <ele>1174.6</ele>
        <time>2022-01-27T14:35:41Z</time>
      </trkpt>
      <trkpt lat="45.30168" lon="4.48536">
        <ele>1174.6</ele>
        <time>2022-01-27T14:35:43Z</time>
      </trkpt>
      <trkpt lat="45.30169" lon="4.48536">
        <ele>1174.6</ele>
        <time>2022-01-27T14:35:44Z</time>
      </trkpt>
      <trkpt lat="45.3017" lon="4.48537">
        <ele>1174.6</ele>
        <time>2022-01-27T14:35:45Z</time>
      </trkpt>
      <trkpt lat="45.30173" lon="4.4854">
        <ele>1174.2</ele>
        <time>2022-01-27T14:35:48Z</time>
      </trkpt>
      <trkpt lat="45.30178" lon="4.48545">
        <ele>1173.8</ele>
        <time>2022-01-27T14:35:53Z</time>
      </trkpt>
      <trkpt lat="45.3018" lon="4.48546">
        <ele>1173.8</ele>
        <time>2022-01-27T14:35:54Z</time>
      </trkpt>
      <trkpt lat="45.30182" lon="4.48549">
        <ele>1173.8</ele>
        <time>2022-01-27T14:35:56Z</time>
      </trkpt>
      <trkpt lat="45.30185" lon="4.48552">
        <ele>1173.6</ele>
        <time>2022-01-27T14:35:58Z</time>
      </trkpt>
      <trkpt lat="45.30187" lon="4.48554">
        <ele>1173.6</ele>
        <time>2022-01-27T14:36:00Z</time>
      </trkpt>
      <trkpt lat="45.3019" lon="4.48558">
        <ele>1173.4</ele>
        <time>2022-01-27T14:36:03Z</time>
      </trkpt>
      <trkpt lat="45.30192" lon="4.4856">
        <ele>1173.2</ele>
        <time>2022-01-27T14:36:06Z</time>
      </trkpt>
      <trkpt lat="45.30193" lon="4.48561">
        <ele>1173.2</ele>
        <time>2022-01-27T14:36:07Z</time>
      </trkpt>
      <trkpt lat="45.30195" lon="4.48565">
        <ele>1173.2</ele>
        <time>2022-01-27T14:36:13Z</time>
      </trkpt>
      <trkpt lat="45.302" lon="4.4857">
        <ele>1173.2</ele>
        <time>2022-01-27T14:36:21Z</time>
      </trkpt>
      <trkpt lat="45.30203" lon="4.48573">
        <ele>1173</ele>
        <time>2022-01-27T14:36:23Z</time>
      </trkpt>
      <trkpt lat="45.30204" lon="4.48575">
        <ele>1173</ele>
        <time>2022-01-27T14:36:24Z</time>
      </trkpt>
      <trkpt lat="45.30207" lon="4.48577">
        <ele>1173</ele>
        <time>2022-01-27T14:36:26Z</time>
      </trkpt>
      <trkpt lat="45.30212" lon="4.48583">
        <ele>1173.2</ele>
        <time>2022-01-27T14:36:31Z</time>
      </trkpt>
      <trkpt lat="45.30214" lon="4.48584">
        <ele>1173</ele>
        <time>2022-01-27T14:36:33Z</time>
      </trkpt>
      <trkpt lat="45.30219" lon="4.48589">
        <ele>1173.2</ele>
        <time>2022-01-27T14:36:38Z</time>
      </trkpt>
      <trkpt lat="45.30223" lon="4.48593">
        <ele>1173.2</ele>
        <time>2022-01-27T14:36:41Z</time>
      </trkpt>
      <trkpt lat="45.30225" lon="4.48595">
        <ele>1173.2</ele>
        <time>2022-01-27T14:36:43Z</time>
      </trkpt>
      <trkpt lat="45.30227" lon="4.48596">
        <ele>1173</ele>
        <time>2022-01-27T14:36:45Z</time>
      </trkpt>
      <trkpt lat="45.30231" lon="4.48597">
        <ele>1173.2</ele>
        <time>2022-01-27T14:36:53Z</time>
      </trkpt>
      <trkpt lat="45.30233" lon="4.48592">
        <ele>1173.2</ele>
        <time>2022-01-27T14:37:03Z</time>
      </trkpt>
      <trkpt lat="45.30231" lon="4.48591">
        <ele>1173.2</ele>
        <time>2022-01-27T14:37:13Z</time>
      </trkpt>
      <trkpt lat="45.30225" lon="4.48586">
        <ele>1173.4</ele>
        <time>2022-01-27T14:37:23Z</time>
      </trkpt>
      <trkpt lat="45.30228" lon="4.48588">
        <ele>1173.4</ele>
        <time>2022-01-27T14:37:33Z</time>
      </trkpt>
      <trkpt lat="45.30232" lon="4.48597">
        <ele>1173.4</ele>
        <time>2022-01-27T14:37:41Z</time>
      </trkpt>
      <trkpt lat="45.30233" lon="4.48601">
        <ele>1173.4</ele>
        <time>2022-01-27T14:37:43Z</time>
      </trkpt>
      <trkpt lat="45.30234" lon="4.48603">
        <ele>1173.4</ele>
        <time>2022-01-27T14:37:44Z</time>
      </trkpt>
      <trkpt lat="45.30237" lon="4.48608">
        <ele>1173.6</ele>
        <time>2022-01-27T14:37:47Z</time>
      </trkpt>
      <trkpt lat="45.3024" lon="4.48613">
        <ele>1173.4</ele>
        <time>2022-01-27T14:37:50Z</time>
      </trkpt>
      <trkpt lat="45.30241" lon="4.48617">
        <ele>1173.2</ele>
        <time>2022-01-27T14:37:53Z</time>
      </trkpt>
      <trkpt lat="45.30243" lon="4.48622">
        <ele>1173</ele>
        <time>2022-01-27T14:37:56Z</time>
      </trkpt>
      <trkpt lat="45.30244" lon="4.48626">
        <ele>1173</ele>
        <time>2022-01-27T14:37:59Z</time>
      </trkpt>
      <trkpt lat="45.30244" lon="4.48628">
        <ele>1173</ele>
        <time>2022-01-27T14:38:01Z</time>
      </trkpt>
      <trkpt lat="45.30246" lon="4.48631">
        <ele>1173.2</ele>
        <time>2022-01-27T14:38:03Z</time>
      </trkpt>
      <trkpt lat="45.30248" lon="4.48636">
        <ele>1173.2</ele>
        <time>2022-01-27T14:38:06Z</time>
      </trkpt>
      <trkpt lat="45.30249" lon="4.48638">
        <ele>1173.2</ele>
        <time>2022-01-27T14:38:08Z</time>
      </trkpt>
      <trkpt lat="45.30251" lon="4.48642">
        <ele>1173.2</ele>
        <time>2022-01-27T14:38:11Z</time>
      </trkpt>
      <trkpt lat="45.30252" lon="4.48644">
        <ele>1173.2</ele>
        <time>2022-01-27T14:38:13Z</time>
      </trkpt>
      <trkpt lat="45.30252" lon="4.48645">
        <ele>1173.2</ele>
        <time>2022-01-27T14:38:14Z</time>
      </trkpt>
      <trkpt lat="45.30252" lon="4.48647">
        <ele>1173.2</ele>
        <time>2022-01-27T14:38:15Z</time>
      </trkpt>
      <trkpt lat="45.30254" lon="4.48653">
        <ele>1173.2</ele>
        <time>2022-01-27T14:38:19Z</time>
      </trkpt>
      <trkpt lat="45.30254" lon="4.48656">
        <ele>1173.2</ele>
        <time>2022-01-27T14:38:21Z</time>
      </trkpt>
      <trkpt lat="45.30254" lon="4.48659">
        <ele>1173.2</ele>
        <time>2022-01-27T14:38:23Z</time>
      </trkpt>
      <trkpt lat="45.3025" lon="4.48673">
        <ele>1173.4</ele>
        <time>2022-01-27T14:38:32Z</time>
      </trkpt>
      <trkpt lat="45.30249" lon="4.48675">
        <ele>1173.4</ele>
        <time>2022-01-27T14:38:33Z</time>
      </trkpt>
      <trkpt lat="45.30242" lon="4.48687">
        <ele>1173.2</ele>
        <time>2022-01-27T14:38:43Z</time>
      </trkpt>
      <trkpt lat="45.30239" lon="4.48693">
        <ele>1173.2</ele>
        <time>2022-01-27T14:38:48Z</time>
      </trkpt>
      <trkpt lat="45.30237" lon="4.48694">
        <ele>1173.2</ele>
        <time>2022-01-27T14:38:50Z</time>
      </trkpt>
      <trkpt lat="45.30234" lon="4.48697">
        <ele>1173.4</ele>
        <time>2022-01-27T14:38:53Z</time>
      </trkpt>
      <trkpt lat="45.30227" lon="4.48713">
        <ele>1173.4</ele>
        <time>2022-01-27T14:39:03Z</time>
      </trkpt>
      <trkpt lat="45.30226" lon="4.48717">
        <ele>1173.4</ele>
        <time>2022-01-27T14:39:05Z</time>
      </trkpt>
      <trkpt lat="45.30226" lon="4.48721">
        <ele>1173.8</ele>
        <time>2022-01-27T14:39:09Z</time>
      </trkpt>
      <trkpt lat="45.30224" lon="4.48725">
        <ele>1173.8</ele>
        <time>2022-01-27T14:39:12Z</time>
      </trkpt>
      <trkpt lat="45.30224" lon="4.48726">
        <ele>1173.8</ele>
        <time>2022-01-27T14:39:13Z</time>
      </trkpt>
      <trkpt lat="45.30221" lon="4.48732">
        <ele>1173.8</ele>
        <time>2022-01-27T14:39:17Z</time>
      </trkpt>
      <trkpt lat="45.30218" lon="4.48739">
        <ele>1173.8</ele>
        <time>2022-01-27T14:39:23Z</time>
      </trkpt>
      <trkpt lat="45.30218" lon="4.48741">
        <ele>1173.8</ele>
        <time>2022-01-27T14:39:24Z</time>
      </trkpt>
      <trkpt lat="45.30217" lon="4.48745">
        <ele>1173.8</ele>
        <time>2022-01-27T14:39:27Z</time>
      </trkpt>
      <trkpt lat="45.30214" lon="4.48752">
        <ele>1174</ele>
        <time>2022-01-27T14:39:32Z</time>
      </trkpt>
      <trkpt lat="45.30213" lon="4.48753">
        <ele>1174</ele>
        <time>2022-01-27T14:39:33Z</time>
      </trkpt>
      <trkpt lat="45.30212" lon="4.48756">
        <ele>1174</ele>
        <time>2022-01-27T14:39:35Z</time>
      </trkpt>
      <trkpt lat="45.30212" lon="4.48759">
        <ele>1174.2</ele>
        <time>2022-01-27T14:39:37Z</time>
      </trkpt>
      <trkpt lat="45.3021" lon="4.48764">
        <ele>1174.2</ele>
        <time>2022-01-27T14:39:40Z</time>
      </trkpt>
      <trkpt lat="45.30209" lon="4.48765">
        <ele>1174.2</ele>
        <time>2022-01-27T14:39:41Z</time>
      </trkpt>
      <trkpt lat="45.30208" lon="4.48768">
        <ele>1174.4</ele>
        <time>2022-01-27T14:39:43Z</time>
      </trkpt>
      <trkpt lat="45.30208" lon="4.48772">
        <ele>1174.6</ele>
        <time>2022-01-27T14:39:46Z</time>
      </trkpt>
      <trkpt lat="45.30203" lon="4.48781">
        <ele>1174.8</ele>
        <time>2022-01-27T14:39:53Z</time>
      </trkpt>
      <trkpt lat="45.30203" lon="4.48782">
        <ele>1174.8</ele>
        <time>2022-01-27T14:39:54Z</time>
      </trkpt>
      <trkpt lat="45.30199" lon="4.48789">
        <ele>1175.2</ele>
        <time>2022-01-27T14:40:00Z</time>
      </trkpt>
      <trkpt lat="45.30197" lon="4.48792">
        <ele>1175.4</ele>
        <time>2022-01-27T14:40:02Z</time>
      </trkpt>
      <trkpt lat="45.30197" lon="4.48793">
        <ele>1175.4</ele>
        <time>2022-01-27T14:40:03Z</time>
      </trkpt>
      <trkpt lat="45.30194" lon="4.48803">
        <ele>1176</ele>
        <time>2022-01-27T14:40:09Z</time>
      </trkpt>
      <trkpt lat="45.30192" lon="4.4881">
        <ele>1176.2</ele>
        <time>2022-01-27T14:40:13Z</time>
      </trkpt>
      <trkpt lat="45.3019" lon="4.48813">
        <ele>1176.4</ele>
        <time>2022-01-27T14:40:16Z</time>
      </trkpt>
      <trkpt lat="45.30188" lon="4.48818">
        <ele>1176.6</ele>
        <time>2022-01-27T14:40:19Z</time>
      </trkpt>
      <trkpt lat="45.30184" lon="4.48822">
        <ele>1177</ele>
        <time>2022-01-27T14:40:23Z</time>
      </trkpt>
      <trkpt lat="45.30182" lon="4.48824">
        <ele>1177.4</ele>
        <time>2022-01-27T14:40:25Z</time>
      </trkpt>
      <trkpt lat="45.30181" lon="4.48827">
        <ele>1177.4</ele>
        <time>2022-01-27T14:40:27Z</time>
      </trkpt>
      <trkpt lat="45.30179" lon="4.4883">
        <ele>1177.6</ele>
        <time>2022-01-27T14:40:30Z</time>
      </trkpt>
      <trkpt lat="45.30178" lon="4.48834">
        <ele>1177.8</ele>
        <time>2022-01-27T14:40:33Z</time>
      </trkpt>
      <trkpt lat="45.30171" lon="4.48846">
        <ele>1178.2</ele>
        <time>2022-01-27T14:40:43Z</time>
      </trkpt>
      <trkpt lat="45.30169" lon="4.48849">
        <ele>1178.4</ele>
        <time>2022-01-27T14:40:46Z</time>
      </trkpt>
      <trkpt lat="45.30168" lon="4.4885">
        <ele>1178.4</ele>
        <time>2022-01-27T14:40:48Z</time>
      </trkpt>
      <trkpt lat="45.30167" lon="4.48856">
        <ele>1178.4</ele>
        <time>2022-01-27T14:40:52Z</time>
      </trkpt>
      <trkpt lat="45.30166" lon="4.48858">
        <ele>1178.6</ele>
        <time>2022-01-27T14:40:53Z</time>
      </trkpt>
      <trkpt lat="45.30165" lon="4.48873">
        <ele>1179</ele>
        <time>2022-01-27T14:41:03Z</time>
      </trkpt>
      <trkpt lat="45.30162" lon="4.48879">
        <ele>1179.2</ele>
        <time>2022-01-27T14:41:08Z</time>
      </trkpt>
      <trkpt lat="45.30161" lon="4.48881">
        <ele>1179.2</ele>
        <time>2022-01-27T14:41:10Z</time>
      </trkpt>
      <trkpt lat="45.3016" lon="4.48882">
        <ele>1179.2</ele>
        <time>2022-01-27T14:41:11Z</time>
      </trkpt>
      <trkpt lat="45.30158" lon="4.48883">
        <ele>1179.2</ele>
        <time>2022-01-27T14:41:12Z</time>
      </trkpt>
      <trkpt lat="45.30157" lon="4.48884">
        <ele>1179.4</ele>
        <time>2022-01-27T14:41:13Z</time>
      </trkpt>
      <trkpt lat="45.30156" lon="4.48885">
        <ele>1179.4</ele>
        <time>2022-01-27T14:41:14Z</time>
      </trkpt>
      <trkpt lat="45.30155" lon="4.48887">
        <ele>1179.4</ele>
        <time>2022-01-27T14:41:15Z</time>
      </trkpt>
      <trkpt lat="45.30155" lon="4.48888">
        <ele>1179.6</ele>
        <time>2022-01-27T14:41:16Z</time>
      </trkpt>
      <trkpt lat="45.30154" lon="4.4889">
        <ele>1179.6</ele>
        <time>2022-01-27T14:41:17Z</time>
      </trkpt>
      <trkpt lat="45.30154" lon="4.48891">
        <ele>1179.6</ele>
        <time>2022-01-27T14:41:18Z</time>
      </trkpt>
      <trkpt lat="45.30153" lon="4.48893">
        <ele>1179.6</ele>
        <time>2022-01-27T14:41:19Z</time>
      </trkpt>
      <trkpt lat="45.30152" lon="4.48895">
        <ele>1179.6</ele>
        <time>2022-01-27T14:41:21Z</time>
      </trkpt>
      <trkpt lat="45.3015" lon="4.48899">
        <ele>1179.8</ele>
        <time>2022-01-27T14:41:23Z</time>
      </trkpt>
      <trkpt lat="45.30149" lon="4.489">
        <ele>1179.8</ele>
        <time>2022-01-27T14:41:24Z</time>
      </trkpt>
      <trkpt lat="45.30149" lon="4.48905">
        <ele>1179.8</ele>
        <time>2022-01-27T14:41:27Z</time>
      </trkpt>
      <trkpt lat="45.30147" lon="4.48913">
        <ele>1179.8</ele>
        <time>2022-01-27T14:41:32Z</time>
      </trkpt>
      <trkpt lat="45.30147" lon="4.48919">
        <ele>1179.8</ele>
        <time>2022-01-27T14:41:39Z</time>
      </trkpt>
      <trkpt lat="45.30148" lon="4.48921">
        <ele>1179.8</ele>
        <time>2022-01-27T14:41:41Z</time>
      </trkpt>
      <trkpt lat="45.30148" lon="4.48924">
        <ele>1179.8</ele>
        <time>2022-01-27T14:41:43Z</time>
      </trkpt>
      <trkpt lat="45.30147" lon="4.48929">
        <ele>1179.8</ele>
        <time>2022-01-27T14:41:47Z</time>
      </trkpt>
      <trkpt lat="45.30147" lon="4.4893">
        <ele>1179.6</ele>
        <time>2022-01-27T14:41:48Z</time>
      </trkpt>
      <trkpt lat="45.30149" lon="4.48938">
        <ele>1179.6</ele>
        <time>2022-01-27T14:41:53Z</time>
      </trkpt>
      <trkpt lat="45.3015" lon="4.48941">
        <ele>1179.6</ele>
        <time>2022-01-27T14:41:55Z</time>
      </trkpt>
      <trkpt lat="45.30151" lon="4.48943">
        <ele>1179.8</ele>
        <time>2022-01-27T14:41:57Z</time>
      </trkpt>
      <trkpt lat="45.30152" lon="4.48944">
        <ele>1179.8</ele>
        <time>2022-01-27T14:41:59Z</time>
      </trkpt>
      <trkpt lat="45.30153" lon="4.48944">
        <ele>1180</ele>
        <time>2022-01-27T14:42:00Z</time>
      </trkpt>
      <trkpt lat="45.30154" lon="4.48944">
        <ele>1180</ele>
        <time>2022-01-27T14:42:02Z</time>
      </trkpt>
      <trkpt lat="45.30155" lon="4.48945">
        <ele>1180</ele>
        <time>2022-01-27T14:42:03Z</time>
      </trkpt>
      <trkpt lat="45.30157" lon="4.48945">
        <ele>1180</ele>
        <time>2022-01-27T14:42:05Z</time>
      </trkpt>
      <trkpt lat="45.30159" lon="4.48945">
        <ele>1180.2</ele>
        <time>2022-01-27T14:42:08Z</time>
      </trkpt>
      <trkpt lat="45.30161" lon="4.48945">
        <ele>1180.4</ele>
        <time>2022-01-27T14:42:10Z</time>
      </trkpt>
      <trkpt lat="45.30163" lon="4.48944">
        <ele>1180.4</ele>
        <time>2022-01-27T14:42:12Z</time>
      </trkpt>
      <trkpt lat="45.30164" lon="4.48945">
        <ele>1180.4</ele>
        <time>2022-01-27T14:42:13Z</time>
      </trkpt>
      <trkpt lat="45.30166" lon="4.48945">
        <ele>1180.4</ele>
        <time>2022-01-27T14:42:15Z</time>
      </trkpt>
      <trkpt lat="45.30173" lon="4.48949">
        <ele>1180.2</ele>
        <time>2022-01-27T14:42:23Z</time>
      </trkpt>
      <trkpt lat="45.30178" lon="4.48951">
        <ele>1180.2</ele>
        <time>2022-01-27T14:42:28Z</time>
      </trkpt>
      <trkpt lat="45.30182" lon="4.48952">
        <ele>1180.2</ele>
        <time>2022-01-27T14:42:30Z</time>
      </trkpt>
      <trkpt lat="45.30186" lon="4.48952">
        <ele>1180.2</ele>
        <time>2022-01-27T14:42:33Z</time>
      </trkpt>
      <trkpt lat="45.30192" lon="4.48955">
        <ele>1180.4</ele>
        <time>2022-01-27T14:42:40Z</time>
      </trkpt>
      <trkpt lat="45.30195" lon="4.48953">
        <ele>1180.4</ele>
        <time>2022-01-27T14:42:43Z</time>
      </trkpt>
      <trkpt lat="45.30202" lon="4.48949">
        <ele>1180.4</ele>
        <time>2022-01-27T14:42:51Z</time>
      </trkpt>
      <trkpt lat="45.30203" lon="4.48947">
        <ele>1180.2</ele>
        <time>2022-01-27T14:42:53Z</time>
      </trkpt>
      <trkpt lat="45.30204" lon="4.48947">
        <ele>1180</ele>
        <time>2022-01-27T14:42:54Z</time>
      </trkpt>
      <trkpt lat="45.30206" lon="4.48943">
        <ele>1179.8</ele>
        <time>2022-01-27T14:42:57Z</time>
      </trkpt>
      <trkpt lat="45.30208" lon="4.48934">
        <ele>1179.8</ele>
        <time>2022-01-27T14:43:03Z</time>
      </trkpt>
      <trkpt lat="45.30208" lon="4.48933">
        <ele>1179.8</ele>
        <time>2022-01-27T14:43:04Z</time>
      </trkpt>
      <trkpt lat="45.30209" lon="4.48928">
        <ele>1179.6</ele>
        <time>2022-01-27T14:43:09Z</time>
      </trkpt>
      <trkpt lat="45.30207" lon="4.48927">
        <ele>1179.6</ele>
        <time>2022-01-27T14:43:12Z</time>
      </trkpt>
      <trkpt lat="45.30207" lon="4.48926">
        <ele>1179.6</ele>
        <time>2022-01-27T14:43:13Z</time>
      </trkpt>
      <trkpt lat="45.30208" lon="4.48926">
        <ele>1179.6</ele>
        <time>2022-01-27T14:43:14Z</time>
      </trkpt>
      <trkpt lat="45.3021" lon="4.48923">
        <ele>1179.4</ele>
        <time>2022-01-27T14:43:23Z</time>
      </trkpt>
      <trkpt lat="45.30211" lon="4.48924">
        <ele>1179.4</ele>
        <time>2022-01-27T14:43:30Z</time>
      </trkpt>
      <trkpt lat="45.30211" lon="4.48923">
        <ele>1179.4</ele>
        <time>2022-01-27T14:43:42Z</time>
      </trkpt>
      <trkpt lat="45.30211" lon="4.48925">
        <ele>1179.4</ele>
        <time>2022-01-27T14:43:47Z</time>
      </trkpt>
      <trkpt lat="45.30211" lon="4.48931">
        <ele>1179.4</ele>
        <time>2022-01-27T14:43:53Z</time>
      </trkpt>
      <trkpt lat="45.30214" lon="4.48936">
        <ele>1179.2</ele>
        <time>2022-01-27T14:43:59Z</time>
      </trkpt>
      <trkpt lat="45.30216" lon="4.48936">
        <ele>1179</ele>
        <time>2022-01-27T14:44:03Z</time>
      </trkpt>
      <trkpt lat="45.30215" lon="4.48943">
        <ele>1179</ele>
        <time>2022-01-27T14:44:09Z</time>
      </trkpt>
      <trkpt lat="45.30214" lon="4.48945">
        <ele>1179</ele>
        <time>2022-01-27T14:44:11Z</time>
      </trkpt>
      <trkpt lat="45.30214" lon="4.48946">
        <ele>1179</ele>
        <time>2022-01-27T14:44:12Z</time>
      </trkpt>
      <trkpt lat="45.30213" lon="4.48947">
        <ele>1179</ele>
        <time>2022-01-27T14:44:13Z</time>
      </trkpt>
      <trkpt lat="45.30213" lon="4.4895">
        <ele>1179</ele>
        <time>2022-01-27T14:44:15Z</time>
      </trkpt>
      <trkpt lat="45.30213" lon="4.48952">
        <ele>1179</ele>
        <time>2022-01-27T14:44:16Z</time>
      </trkpt>
      <trkpt lat="45.30209" lon="4.48956">
        <ele>1179.2</ele>
        <time>2022-01-27T14:44:20Z</time>
      </trkpt>
      <trkpt lat="45.30207" lon="4.48957">
        <ele>1179.2</ele>
        <time>2022-01-27T14:44:22Z</time>
      </trkpt>
      <trkpt lat="45.30206" lon="4.48958">
        <ele>1179.2</ele>
        <time>2022-01-27T14:44:23Z</time>
      </trkpt>
      <trkpt lat="45.30206" lon="4.48959">
        <ele>1179.4</ele>
        <time>2022-01-27T14:44:24Z</time>
      </trkpt>
      <trkpt lat="45.30204" lon="4.48961">
        <ele>1179.6</ele>
        <time>2022-01-27T14:44:26Z</time>
      </trkpt>
      <trkpt lat="45.30203" lon="4.48962">
        <ele>1179.6</ele>
        <time>2022-01-27T14:44:28Z</time>
      </trkpt>
      <trkpt lat="45.30198" lon="4.48966">
        <ele>1180</ele>
        <time>2022-01-27T14:44:32Z</time>
      </trkpt>
      <trkpt lat="45.30197" lon="4.48966">
        <ele>1180</ele>
        <time>2022-01-27T14:44:33Z</time>
      </trkpt>
      <trkpt lat="45.30193" lon="4.48966">
        <ele>1180</ele>
        <time>2022-01-27T14:44:35Z</time>
      </trkpt>
      <trkpt lat="45.30189" lon="4.48966">
        <ele>1179.8</ele>
        <time>2022-01-27T14:44:38Z</time>
      </trkpt>
      <trkpt lat="45.30187" lon="4.48966">
        <ele>1179.6</ele>
        <time>2022-01-27T14:44:40Z</time>
      </trkpt>
      <trkpt lat="45.30185" lon="4.48966">
        <ele>1179.6</ele>
        <time>2022-01-27T14:44:41Z</time>
      </trkpt>
      <trkpt lat="45.30183" lon="4.48966">
        <ele>1179.6</ele>
        <time>2022-01-27T14:44:43Z</time>
      </trkpt>
      <trkpt lat="45.30175" lon="4.48965">
        <ele>1179.8</ele>
        <time>2022-01-27T14:44:49Z</time>
      </trkpt>
      <trkpt lat="45.30171" lon="4.48964">
        <ele>1180</ele>
        <time>2022-01-27T14:44:52Z</time>
      </trkpt>
      <trkpt lat="45.3017" lon="4.48964">
        <ele>1180</ele>
        <time>2022-01-27T14:44:53Z</time>
      </trkpt>
      <trkpt lat="45.3016" lon="4.48962">
        <ele>1180</ele>
        <time>2022-01-27T14:45:01Z</time>
      </trkpt>
      <trkpt lat="45.30156" lon="4.48961">
        <ele>1180</ele>
        <time>2022-01-27T14:45:03Z</time>
      </trkpt>
      <trkpt lat="45.30154" lon="4.4896">
        <ele>1180</ele>
        <time>2022-01-27T14:45:05Z</time>
      </trkpt>
      <trkpt lat="45.30144" lon="4.48959">
        <ele>1180</ele>
        <time>2022-01-27T14:45:13Z</time>
      </trkpt>
      <trkpt lat="45.30141" lon="4.48955">
        <ele>1179.8</ele>
        <time>2022-01-27T14:45:16Z</time>
      </trkpt>
      <trkpt lat="45.30138" lon="4.48942">
        <ele>1179.6</ele>
        <time>2022-01-27T14:45:23Z</time>
      </trkpt>
      <trkpt lat="45.30138" lon="4.48941">
        <ele>1179.6</ele>
        <time>2022-01-27T14:45:24Z</time>
      </trkpt>
      <trkpt lat="45.30138" lon="4.48934">
        <ele>1179.6</ele>
        <time>2022-01-27T14:45:28Z</time>
      </trkpt>
      <trkpt lat="45.30137" lon="4.4893">
        <ele>1179.6</ele>
        <time>2022-01-27T14:45:31Z</time>
      </trkpt>
      <trkpt lat="45.30137" lon="4.48926">
        <ele>1179.4</ele>
        <time>2022-01-27T14:45:33Z</time>
      </trkpt>
      <trkpt lat="45.30141" lon="4.48909">
        <ele>1179</ele>
        <time>2022-01-27T14:45:43Z</time>
      </trkpt>
      <trkpt lat="45.30144" lon="4.48899">
        <ele>1179.2</ele>
        <time>2022-01-27T14:45:47Z</time>
      </trkpt>
      <trkpt lat="45.30148" lon="4.48886">
        <ele>1179</ele>
        <time>2022-01-27T14:45:53Z</time>
      </trkpt>
      <trkpt lat="45.30153" lon="4.4887">
        <ele>1178.6</ele>
        <time>2022-01-27T14:46:03Z</time>
      </trkpt>
      <trkpt lat="45.30156" lon="4.48859">
        <ele>1178.4</ele>
        <time>2022-01-27T14:46:11Z</time>
      </trkpt>
      <trkpt lat="45.30158" lon="4.48857">
        <ele>1178.2</ele>
        <time>2022-01-27T14:46:13Z</time>
      </trkpt>
      <trkpt lat="45.3016" lon="4.48855">
        <ele>1178</ele>
        <time>2022-01-27T14:46:15Z</time>
      </trkpt>
      <trkpt lat="45.30166" lon="4.48847">
        <ele>1177.6</ele>
        <time>2022-01-27T14:46:22Z</time>
      </trkpt>
      <trkpt lat="45.30166" lon="4.48846">
        <ele>1177.6</ele>
        <time>2022-01-27T14:46:23Z</time>
      </trkpt>
      <trkpt lat="45.30168" lon="4.48841">
        <ele>1177.6</ele>
        <time>2022-01-27T14:46:27Z</time>
      </trkpt>
      <trkpt lat="45.30169" lon="4.48836">
        <ele>1177.4</ele>
        <time>2022-01-27T14:46:30Z</time>
      </trkpt>
      <trkpt lat="45.3017" lon="4.48831">
        <ele>1177.2</ele>
        <time>2022-01-27T14:46:33Z</time>
      </trkpt>
      <trkpt lat="45.30173" lon="4.4882">
        <ele>1176.6</ele>
        <time>2022-01-27T14:46:40Z</time>
      </trkpt>
      <trkpt lat="45.30174" lon="4.48816">
        <ele>1176.4</ele>
        <time>2022-01-27T14:46:43Z</time>
      </trkpt>
      <trkpt lat="45.30175" lon="4.48814">
        <ele>1176.4</ele>
        <time>2022-01-27T14:46:45Z</time>
      </trkpt>
      <trkpt lat="45.30176" lon="4.48811">
        <ele>1176.2</ele>
        <time>2022-01-27T14:46:47Z</time>
      </trkpt>
      <trkpt lat="45.30176" lon="4.4881">
        <ele>1176.2</ele>
        <time>2022-01-27T14:46:48Z</time>
      </trkpt>
      <trkpt lat="45.30177" lon="4.48803">
        <ele>1176</ele>
        <time>2022-01-27T14:46:52Z</time>
      </trkpt>
      <trkpt lat="45.30178" lon="4.48801">
        <ele>1175.8</ele>
        <time>2022-01-27T14:46:53Z</time>
      </trkpt>
      <trkpt lat="45.30179" lon="4.48799">
        <ele>1175.8</ele>
        <time>2022-01-27T14:46:54Z</time>
      </trkpt>
      <trkpt lat="45.30182" lon="4.4879">
        <ele>1175.4</ele>
        <time>2022-01-27T14:47:00Z</time>
      </trkpt>
      <trkpt lat="45.30183" lon="4.48786">
        <ele>1175.2</ele>
        <time>2022-01-27T14:47:03Z</time>
      </trkpt>
      <trkpt lat="45.30184" lon="4.48786">
        <ele>1175.2</ele>
        <time>2022-01-27T14:47:04Z</time>
      </trkpt>
      <trkpt lat="45.30186" lon="4.48779">
        <ele>1174.8</ele>
        <time>2022-01-27T14:47:09Z</time>
      </trkpt>
      <trkpt lat="45.30188" lon="4.48775">
        <ele>1174.6</ele>
        <time>2022-01-27T14:47:13Z</time>
      </trkpt>
      <trkpt lat="45.30189" lon="4.48772">
        <ele>1174.4</ele>
        <time>2022-01-27T14:47:15Z</time>
      </trkpt>
      <trkpt lat="45.30192" lon="4.48766">
        <ele>1174.2</ele>
        <time>2022-01-27T14:47:20Z</time>
      </trkpt>
      <trkpt lat="45.30193" lon="4.48766">
        <ele>1174.2</ele>
        <time>2022-01-27T14:47:22Z</time>
      </trkpt>
      <trkpt lat="45.30193" lon="4.48765">
        <ele>1174.2</ele>
        <time>2022-01-27T14:47:23Z</time>
      </trkpt>
      <trkpt lat="45.30197" lon="4.48761">
        <ele>1173.8</ele>
        <time>2022-01-27T14:47:29Z</time>
      </trkpt>
      <trkpt lat="45.30201" lon="4.48754">
        <ele>1173.8</ele>
        <time>2022-01-27T14:47:33Z</time>
      </trkpt>
      <trkpt lat="45.30202" lon="4.48752">
        <ele>1173.8</ele>
        <time>2022-01-27T14:47:34Z</time>
      </trkpt>
      <trkpt lat="45.30204" lon="4.48747">
        <ele>1173.8</ele>
        <time>2022-01-27T14:47:38Z</time>
      </trkpt>
      <trkpt lat="45.30206" lon="4.48745">
        <ele>1173.8</ele>
        <time>2022-01-27T14:47:39Z</time>
      </trkpt>
      <trkpt lat="45.30207" lon="4.48743">
        <ele>1173.8</ele>
        <time>2022-01-27T14:47:42Z</time>
      </trkpt>
      <trkpt lat="45.30208" lon="4.48742">
        <ele>1173.8</ele>
        <time>2022-01-27T14:47:43Z</time>
      </trkpt>
      <trkpt lat="45.30208" lon="4.48741">
        <ele>1173.6</ele>
        <time>2022-01-27T14:47:44Z</time>
      </trkpt>
      <trkpt lat="45.30209" lon="4.4874">
        <ele>1173.6</ele>
        <time>2022-01-27T14:47:45Z</time>
      </trkpt>
      <trkpt lat="45.3021" lon="4.4874">
        <ele>1173.6</ele>
        <time>2022-01-27T14:47:46Z</time>
      </trkpt>
      <trkpt lat="45.3021" lon="4.48739">
        <ele>1173.6</ele>
        <time>2022-01-27T14:47:47Z</time>
      </trkpt>
      <trkpt lat="45.3021" lon="4.48736">
        <ele>1173.4</ele>
        <time>2022-01-27T14:47:49Z</time>
      </trkpt>
      <trkpt lat="45.30212" lon="4.48734">
        <ele>1173.4</ele>
        <time>2022-01-27T14:47:51Z</time>
      </trkpt>
      <trkpt lat="45.30212" lon="4.48733">
        <ele>1173.4</ele>
        <time>2022-01-27T14:47:52Z</time>
      </trkpt>
      <trkpt lat="45.30214" lon="4.48731">
        <ele>1173.4</ele>
        <time>2022-01-27T14:47:53Z</time>
      </trkpt>
      <trkpt lat="45.30214" lon="4.48729">
        <ele>1173.4</ele>
        <time>2022-01-27T14:47:54Z</time>
      </trkpt>
      <trkpt lat="45.30215" lon="4.48727">
        <ele>1173.4</ele>
        <time>2022-01-27T14:47:55Z</time>
      </trkpt>
      <trkpt lat="45.30218" lon="4.48721">
        <ele>1173.6</ele>
        <time>2022-01-27T14:47:59Z</time>
      </trkpt>
      <trkpt lat="45.30222" lon="4.48715">
        <ele>1173.4</ele>
        <time>2022-01-27T14:48:03Z</time>
      </trkpt>
      <trkpt lat="45.30225" lon="4.4871">
        <ele>1173.6</ele>
        <time>2022-01-27T14:48:07Z</time>
      </trkpt>
      <trkpt lat="45.3023" lon="4.48701">
        <ele>1173.4</ele>
        <time>2022-01-27T14:48:13Z</time>
      </trkpt>
      <trkpt lat="45.3023" lon="4.48699">
        <ele>1173.2</ele>
        <time>2022-01-27T14:48:14Z</time>
      </trkpt>
      <trkpt lat="45.30233" lon="4.48693">
        <ele>1173.4</ele>
        <time>2022-01-27T14:48:17Z</time>
      </trkpt>
      <trkpt lat="45.30236" lon="4.48684">
        <ele>1173.2</ele>
        <time>2022-01-27T14:48:22Z</time>
      </trkpt>
      <trkpt lat="45.30236" lon="4.48683">
        <ele>1173.2</ele>
        <time>2022-01-27T14:48:23Z</time>
      </trkpt>
      <trkpt lat="45.30238" lon="4.48679">
        <ele>1173.2</ele>
        <time>2022-01-27T14:48:26Z</time>
      </trkpt>
      <trkpt lat="45.30239" lon="4.48675">
        <ele>1173.2</ele>
        <time>2022-01-27T14:48:29Z</time>
      </trkpt>
      <trkpt lat="45.30241" lon="4.48669">
        <ele>1173.4</ele>
        <time>2022-01-27T14:48:33Z</time>
      </trkpt>
      <trkpt lat="45.30241" lon="4.48659">
        <ele>1173.4</ele>
        <time>2022-01-27T14:48:39Z</time>
      </trkpt>
      <trkpt lat="45.30241" lon="4.48658">
        <ele>1173.4</ele>
        <time>2022-01-27T14:48:40Z</time>
      </trkpt>
      <trkpt lat="45.30242" lon="4.48656">
        <ele>1173.4</ele>
        <time>2022-01-27T14:48:42Z</time>
      </trkpt>
      <trkpt lat="45.30242" lon="4.48655">
        <ele>1173.4</ele>
        <time>2022-01-27T14:48:43Z</time>
      </trkpt>
      <trkpt lat="45.30245" lon="4.48649">
        <ele>1173.2</ele>
        <time>2022-01-27T14:48:48Z</time>
      </trkpt>
      <trkpt lat="45.30246" lon="4.48646">
        <ele>1173.2</ele>
        <time>2022-01-27T14:48:50Z</time>
      </trkpt>
      <trkpt lat="45.30247" lon="4.48642">
        <ele>1173.4</ele>
        <time>2022-01-27T14:48:53Z</time>
      </trkpt>
      <trkpt lat="45.30249" lon="4.48637">
        <ele>1173.2</ele>
        <time>2022-01-27T14:48:57Z</time>
      </trkpt>
      <trkpt lat="45.3025" lon="4.48633">
        <ele>1173.2</ele>
        <time>2022-01-27T14:49:00Z</time>
      </trkpt>
      <trkpt lat="45.30252" lon="4.48629">
        <ele>1173.4</ele>
        <time>2022-01-27T14:49:03Z</time>
      </trkpt>
      <trkpt lat="45.30254" lon="4.48623">
        <ele>1173.4</ele>
        <time>2022-01-27T14:49:07Z</time>
      </trkpt>
      <trkpt lat="45.30256" lon="4.48613">
        <ele>1173.2</ele>
        <time>2022-01-27T14:49:13Z</time>
      </trkpt>
      <trkpt lat="45.30259" lon="4.48609">
        <ele>1173.2</ele>
        <time>2022-01-27T14:49:16Z</time>
      </trkpt>
      <trkpt lat="45.3026" lon="4.48603">
        <ele>1173.2</ele>
        <time>2022-01-27T14:49:20Z</time>
      </trkpt>
      <trkpt lat="45.30262" lon="4.486">
        <ele>1173.2</ele>
        <time>2022-01-27T14:49:23Z</time>
      </trkpt>
      <trkpt lat="45.30265" lon="4.48587">
        <ele>1173.6</ele>
        <time>2022-01-27T14:49:32Z</time>
      </trkpt>
      <trkpt lat="45.30265" lon="4.48585">
        <ele>1173.4</ele>
        <time>2022-01-27T14:49:33Z</time>
      </trkpt>
      <trkpt lat="45.30267" lon="4.48572">
        <ele>1173.4</ele>
        <time>2022-01-27T14:49:39Z</time>
      </trkpt>
      <trkpt lat="45.30267" lon="4.4857">
        <ele>1173.2</ele>
        <time>2022-01-27T14:49:41Z</time>
      </trkpt>
      <trkpt lat="45.30267" lon="4.48569">
        <ele>1173.4</ele>
        <time>2022-01-27T14:49:43Z</time>
      </trkpt>
      <trkpt lat="45.30269" lon="4.48565">
        <ele>1173.4</ele>
        <time>2022-01-27T14:49:46Z</time>
      </trkpt>
      <trkpt lat="45.30271" lon="4.48559">
        <ele>1173.6</ele>
        <time>2022-01-27T14:49:50Z</time>
      </trkpt>
      <trkpt lat="45.30274" lon="4.48555">
        <ele>1173.8</ele>
        <time>2022-01-27T14:49:53Z</time>
      </trkpt>
      <trkpt lat="45.30277" lon="4.4855">
        <ele>1174</ele>
        <time>2022-01-27T14:49:57Z</time>
      </trkpt>
      <trkpt lat="45.30281" lon="4.48541">
        <ele>1174</ele>
        <time>2022-01-27T14:50:03Z</time>
      </trkpt>
      <trkpt lat="45.30281" lon="4.48539">
        <ele>1174</ele>
        <time>2022-01-27T14:50:04Z</time>
      </trkpt>
      <trkpt lat="45.30282" lon="4.48536">
        <ele>1174</ele>
        <time>2022-01-27T14:50:06Z</time>
      </trkpt>
      <trkpt lat="45.30282" lon="4.48533">
        <ele>1173.8</ele>
        <time>2022-01-27T14:50:08Z</time>
      </trkpt>
      <trkpt lat="45.30286" lon="4.48526">
        <ele>1174</ele>
        <time>2022-01-27T14:50:13Z</time>
      </trkpt>
      <trkpt lat="45.30287" lon="4.48525">
        <ele>1174</ele>
        <time>2022-01-27T14:50:14Z</time>
      </trkpt>
      <trkpt lat="45.30289" lon="4.4852">
        <ele>1174.2</ele>
        <time>2022-01-27T14:50:17Z</time>
      </trkpt>
      <trkpt lat="45.3029" lon="4.48518">
        <ele>1174.2</ele>
        <time>2022-01-27T14:50:18Z</time>
      </trkpt>
      <trkpt lat="45.3029" lon="4.48514">
        <ele>1174.4</ele>
        <time>2022-01-27T14:50:20Z</time>
      </trkpt>
      <trkpt lat="45.3029" lon="4.48511">
        <ele>1174.4</ele>
        <time>2022-01-27T14:50:21Z</time>
      </trkpt>
      <trkpt lat="45.30291" lon="4.48506">
        <ele>1174.2</ele>
        <time>2022-01-27T14:50:23Z</time>
      </trkpt>
      <trkpt lat="45.30293" lon="4.48499">
        <ele>1174.2</ele>
        <time>2022-01-27T14:50:28Z</time>
      </trkpt>
      <trkpt lat="45.30294" lon="4.48497">
        <ele>1174.2</ele>
        <time>2022-01-27T14:50:29Z</time>
      </trkpt>
      <trkpt lat="45.30295" lon="4.48492">
        <ele>1174.2</ele>
        <time>2022-01-27T14:50:31Z</time>
      </trkpt>
      <trkpt lat="45.30295" lon="4.48489">
        <ele>1174.2</ele>
        <time>2022-01-27T14:50:33Z</time>
      </trkpt>
      <trkpt lat="45.30298" lon="4.48483">
        <ele>1174.2</ele>
        <time>2022-01-27T14:50:37Z</time>
      </trkpt>
      <trkpt lat="45.30301" lon="4.48477">
        <ele>1174.2</ele>
        <time>2022-01-27T14:50:41Z</time>
      </trkpt>
      <trkpt lat="45.30302" lon="4.48475">
        <ele>1174.4</ele>
        <time>2022-01-27T14:50:43Z</time>
      </trkpt>
      <trkpt lat="45.30306" lon="4.48468">
        <ele>1174.4</ele>
        <time>2022-01-27T14:50:49Z</time>
      </trkpt>
      <trkpt lat="45.30307" lon="4.48467">
        <ele>1174.4</ele>
        <time>2022-01-27T14:50:50Z</time>
      </trkpt>
      <trkpt lat="45.30308" lon="4.48462">
        <ele>1174.4</ele>
        <time>2022-01-27T14:50:53Z</time>
      </trkpt>
      <trkpt lat="45.30309" lon="4.48461">
        <ele>1174.4</ele>
        <time>2022-01-27T14:50:54Z</time>
      </trkpt>
      <trkpt lat="45.3031" lon="4.48456">
        <ele>1174.6</ele>
        <time>2022-01-27T14:50:57Z</time>
      </trkpt>
      <trkpt lat="45.30313" lon="4.48445">
        <ele>1175</ele>
        <time>2022-01-27T14:51:03Z</time>
      </trkpt>
      <trkpt lat="45.30314" lon="4.48442">
        <ele>1175</ele>
        <time>2022-01-27T14:51:05Z</time>
      </trkpt>
      <trkpt lat="45.30315" lon="4.48439">
        <ele>1175</ele>
        <time>2022-01-27T14:51:07Z</time>
      </trkpt>
      <trkpt lat="45.30316" lon="4.48432">
        <ele>1174.8</ele>
        <time>2022-01-27T14:51:11Z</time>
      </trkpt>
      <trkpt lat="45.30317" lon="4.48428">
        <ele>1174.6</ele>
        <time>2022-01-27T14:51:13Z</time>
      </trkpt>
      <trkpt lat="45.30318" lon="4.48425">
        <ele>1174.6</ele>
        <time>2022-01-27T14:51:15Z</time>
      </trkpt>
      <trkpt lat="45.30323" lon="4.48412">
        <ele>1174.8</ele>
        <time>2022-01-27T14:51:23Z</time>
      </trkpt>
      <trkpt lat="45.30327" lon="4.48405">
        <ele>1174.8</ele>
        <time>2022-01-27T14:51:29Z</time>
      </trkpt>
      <trkpt lat="45.3033" lon="4.48399">
        <ele>1175</ele>
        <time>2022-01-27T14:51:33Z</time>
      </trkpt>
      <trkpt lat="45.30332" lon="4.48392">
        <ele>1175.2</ele>
        <time>2022-01-27T14:51:38Z</time>
      </trkpt>
      <trkpt lat="45.30332" lon="4.4839">
        <ele>1175.4</ele>
        <time>2022-01-27T14:51:39Z</time>
      </trkpt>
      <trkpt lat="45.30334" lon="4.48385">
        <ele>1175.6</ele>
        <time>2022-01-27T14:51:43Z</time>
      </trkpt>
      <trkpt lat="45.30339" lon="4.48369">
        <ele>1175.4</ele>
        <time>2022-01-27T14:51:53Z</time>
      </trkpt>
      <trkpt lat="45.30344" lon="4.48344">
        <ele>1175.6</ele>
        <time>2022-01-27T14:52:03Z</time>
      </trkpt>
      <trkpt lat="45.30346" lon="4.48334">
        <ele>1175.8</ele>
        <time>2022-01-27T14:52:09Z</time>
      </trkpt>
      <trkpt lat="45.30347" lon="4.48333">
        <ele>1175.6</ele>
        <time>2022-01-27T14:52:10Z</time>
      </trkpt>
      <trkpt lat="45.30348" lon="4.48328">
        <ele>1175.4</ele>
        <time>2022-01-27T14:52:13Z</time>
      </trkpt>
      <trkpt lat="45.30351" lon="4.48321">
        <ele>1175.6</ele>
        <time>2022-01-27T14:52:17Z</time>
      </trkpt>
      <trkpt lat="45.30352" lon="4.48317">
        <ele>1175.8</ele>
        <time>2022-01-27T14:52:20Z</time>
      </trkpt>
      <trkpt lat="45.30354" lon="4.48312">
        <ele>1175.6</ele>
        <time>2022-01-27T14:52:23Z</time>
      </trkpt>
      <trkpt lat="45.30359" lon="4.48295">
        <ele>1175.4</ele>
        <time>2022-01-27T14:52:33Z</time>
      </trkpt>
      <trkpt lat="45.30363" lon="4.48277">
        <ele>1174.6</ele>
        <time>2022-01-27T14:52:43Z</time>
      </trkpt>
      <trkpt lat="45.30366" lon="4.48261">
        <ele>1174.6</ele>
        <time>2022-01-27T14:52:53Z</time>
      </trkpt>
      <trkpt lat="45.30372" lon="4.48245">
        <ele>1174.6</ele>
        <time>2022-01-27T14:53:03Z</time>
      </trkpt>
      <trkpt lat="45.30377" lon="4.48229">
        <ele>1174.8</ele>
        <time>2022-01-27T14:53:13Z</time>
      </trkpt>
      <trkpt lat="45.30379" lon="4.48219">
        <ele>1174.4</ele>
        <time>2022-01-27T14:53:19Z</time>
      </trkpt>
      <trkpt lat="45.3038" lon="4.48211">
        <ele>1174.2</ele>
        <time>2022-01-27T14:53:23Z</time>
      </trkpt>
      <trkpt lat="45.30386" lon="4.48193">
        <ele>1174.4</ele>
        <time>2022-01-27T14:53:33Z</time>
      </trkpt>
      <trkpt lat="45.30393" lon="4.4818">
        <ele>1175</ele>
        <time>2022-01-27T14:53:43Z</time>
      </trkpt>
      <trkpt lat="45.30398" lon="4.48162">
        <ele>1174.6</ele>
        <time>2022-01-27T14:53:53Z</time>
      </trkpt>
      <trkpt lat="45.30403" lon="4.48143">
        <ele>1174.6</ele>
        <time>2022-01-27T14:54:03Z</time>
      </trkpt>
      <trkpt lat="45.30403" lon="4.48132">
        <ele>1175.2</ele>
        <time>2022-01-27T14:54:09Z</time>
      </trkpt>
      <trkpt lat="45.30404" lon="4.48129">
        <ele>1175.4</ele>
        <time>2022-01-27T14:54:11Z</time>
      </trkpt>
      <trkpt lat="45.30405" lon="4.48126">
        <ele>1175.6</ele>
        <time>2022-01-27T14:54:13Z</time>
      </trkpt>
      <trkpt lat="45.30409" lon="4.48112">
        <ele>1175.8</ele>
        <time>2022-01-27T14:54:23Z</time>
      </trkpt>
      <trkpt lat="45.3041" lon="4.48108">
        <ele>1175.6</ele>
        <time>2022-01-27T14:54:26Z</time>
      </trkpt>
      <trkpt lat="45.30412" lon="4.48097">
        <ele>1175.8</ele>
        <time>2022-01-27T14:54:33Z</time>
      </trkpt>
      <trkpt lat="45.30412" lon="4.48086">
        <ele>1175.8</ele>
        <time>2022-01-27T14:54:38Z</time>
      </trkpt>
      <trkpt lat="45.30414" lon="4.48075">
        <ele>1175.8</ele>
        <time>2022-01-27T14:54:43Z</time>
      </trkpt>
      <trkpt lat="45.30414" lon="4.48068">
        <ele>1175.8</ele>
        <time>2022-01-27T14:54:46Z</time>
      </trkpt>
      <trkpt lat="45.30417" lon="4.4806">
        <ele>1175.8</ele>
        <time>2022-01-27T14:54:51Z</time>
      </trkpt>
      <trkpt lat="45.30418" lon="4.48057">
        <ele>1176</ele>
        <time>2022-01-27T14:54:53Z</time>
      </trkpt>
      <trkpt lat="45.30419" lon="4.48055">
        <ele>1176</ele>
        <time>2022-01-27T14:54:54Z</time>
      </trkpt>
      <trkpt lat="45.30423" lon="4.48045">
        <ele>1176</ele>
        <time>2022-01-27T14:55:01Z</time>
      </trkpt>
      <trkpt lat="45.30423" lon="4.48042">
        <ele>1175.8</ele>
        <time>2022-01-27T14:55:03Z</time>
      </trkpt>
      <trkpt lat="45.30427" lon="4.48024">
        <ele>1175.2</ele>
        <time>2022-01-27T14:55:13Z</time>
      </trkpt>
      <trkpt lat="45.30429" lon="4.48016">
        <ele>1175</ele>
        <time>2022-01-27T14:55:18Z</time>
      </trkpt>
      <trkpt lat="45.30429" lon="4.4801">
        <ele>1175</ele>
        <time>2022-01-27T14:55:21Z</time>
      </trkpt>
      <trkpt lat="45.30429" lon="4.48006">
        <ele>1175</ele>
        <time>2022-01-27T14:55:23Z</time>
      </trkpt>
      <trkpt lat="45.3043" lon="4.47999">
        <ele>1175.4</ele>
        <time>2022-01-27T14:55:26Z</time>
      </trkpt>
      <trkpt lat="45.30435" lon="4.47987">
        <ele>1174.6</ele>
        <time>2022-01-27T14:55:33Z</time>
      </trkpt>
      <trkpt lat="45.30435" lon="4.47985">
        <ele>1174.4</ele>
        <time>2022-01-27T14:55:34Z</time>
      </trkpt>
      <trkpt lat="45.30437" lon="4.47971">
        <ele>1174</ele>
        <time>2022-01-27T14:55:43Z</time>
      </trkpt>
      <trkpt lat="45.30438" lon="4.47951">
        <ele>1173.6</ele>
        <time>2022-01-27T14:55:53Z</time>
      </trkpt>
      <trkpt lat="45.3044" lon="4.47936">
        <ele>1173.4</ele>
        <time>2022-01-27T14:56:01Z</time>
      </trkpt>
      <trkpt lat="45.3044" lon="4.47933">
        <ele>1173.2</ele>
        <time>2022-01-27T14:56:03Z</time>
      </trkpt>
      <trkpt lat="45.30444" lon="4.4792">
        <ele>1173</ele>
        <time>2022-01-27T14:56:13Z</time>
      </trkpt>
      <trkpt lat="45.30447" lon="4.47903">
        <ele>1172.6</ele>
        <time>2022-01-27T14:56:23Z</time>
      </trkpt>
      <trkpt lat="45.30448" lon="4.47899">
        <ele>1172.2</ele>
        <time>2022-01-27T14:56:25Z</time>
      </trkpt>
      <trkpt lat="45.30451" lon="4.47888">
        <ele>1172</ele>
        <time>2022-01-27T14:56:33Z</time>
      </trkpt>
      <trkpt lat="45.30452" lon="4.47886">
        <ele>1172</ele>
        <time>2022-01-27T14:56:34Z</time>
      </trkpt>
      <trkpt lat="45.30452" lon="4.47882">
        <ele>1172</ele>
        <time>2022-01-27T14:56:37Z</time>
      </trkpt>
      <trkpt lat="45.30454" lon="4.47873">
        <ele>1171.6</ele>
        <time>2022-01-27T14:56:43Z</time>
      </trkpt>
      <trkpt lat="45.30454" lon="4.47871">
        <ele>1171.4</ele>
        <time>2022-01-27T14:56:44Z</time>
      </trkpt>
      <trkpt lat="45.30454" lon="4.47869">
        <ele>1171.4</ele>
        <time>2022-01-27T14:56:46Z</time>
      </trkpt>
      <trkpt lat="45.30455" lon="4.47867">
        <ele>1171.2</ele>
        <time>2022-01-27T14:56:50Z</time>
      </trkpt>
      <trkpt lat="45.30455" lon="4.47866">
        <ele>1171.4</ele>
        <time>2022-01-27T14:56:51Z</time>
      </trkpt>
      <trkpt lat="45.30456" lon="4.47864">
        <ele>1171.4</ele>
        <time>2022-01-27T14:56:53Z</time>
      </trkpt>
      <trkpt lat="45.30458" lon="4.47857">
        <ele>1171.2</ele>
        <time>2022-01-27T14:56:59Z</time>
      </trkpt>
      <trkpt lat="45.30462" lon="4.47853">
        <ele>1171.2</ele>
        <time>2022-01-27T14:57:03Z</time>
      </trkpt>
      <trkpt lat="45.30471" lon="4.47845">
        <ele>1171.2</ele>
        <time>2022-01-27T14:57:12Z</time>
      </trkpt>
      <trkpt lat="45.30471" lon="4.47844">
        <ele>1171.2</ele>
        <time>2022-01-27T14:57:13Z</time>
      </trkpt>
      <trkpt lat="45.30481" lon="4.47834">
        <ele>1171</ele>
        <time>2022-01-27T14:57:23Z</time>
      </trkpt>
      <trkpt lat="45.30484" lon="4.47827">
        <ele>1170.8</ele>
        <time>2022-01-27T14:57:27Z</time>
      </trkpt>
      <trkpt lat="45.30489" lon="4.4782">
        <ele>1171</ele>
        <time>2022-01-27T14:57:33Z</time>
      </trkpt>
      <trkpt lat="45.30493" lon="4.47816">
        <ele>1171</ele>
        <time>2022-01-27T14:57:37Z</time>
      </trkpt>
      <trkpt lat="45.30498" lon="4.47808">
        <ele>1171.4</ele>
        <time>2022-01-27T14:57:43Z</time>
      </trkpt>
      <trkpt lat="45.30506" lon="4.47798">
        <ele>1171.6</ele>
        <time>2022-01-27T14:57:52Z</time>
      </trkpt>
      <trkpt lat="45.30506" lon="4.47797">
        <ele>1171.6</ele>
        <time>2022-01-27T14:57:53Z</time>
      </trkpt>
      <trkpt lat="45.30514" lon="4.47787">
        <ele>1171.8</ele>
        <time>2022-01-27T14:58:03Z</time>
      </trkpt>
      <trkpt lat="45.30523" lon="4.47779">
        <ele>1171.8</ele>
        <time>2022-01-27T14:58:13Z</time>
      </trkpt>
      <trkpt lat="45.30527" lon="4.47776">
        <ele>1172</ele>
        <time>2022-01-27T14:58:18Z</time>
      </trkpt>
      <trkpt lat="45.30532" lon="4.47772">
        <ele>1172.2</ele>
        <time>2022-01-27T14:58:23Z</time>
      </trkpt>
      <trkpt lat="45.30534" lon="4.47772">
        <ele>1172.2</ele>
        <time>2022-01-27T14:58:25Z</time>
      </trkpt>
      <trkpt lat="45.30537" lon="4.47769">
        <ele>1172.2</ele>
        <time>2022-01-27T14:58:28Z</time>
      </trkpt>
      <trkpt lat="45.30542" lon="4.47765">
        <ele>1172.2</ele>
        <time>2022-01-27T14:58:33Z</time>
      </trkpt>
      <trkpt lat="45.30551" lon="4.47759">
        <ele>1172.4</ele>
        <time>2022-01-27T14:58:41Z</time>
      </trkpt>
      <trkpt lat="45.30552" lon="4.47757">
        <ele>1172.6</ele>
        <time>2022-01-27T14:58:43Z</time>
      </trkpt>
      <trkpt lat="45.30555" lon="4.47755">
        <ele>1172.4</ele>
        <time>2022-01-27T14:58:46Z</time>
      </trkpt>
      <trkpt lat="45.30559" lon="4.47752">
        <ele>1172.4</ele>
        <time>2022-01-27T14:58:50Z</time>
      </trkpt>
      <trkpt lat="45.30562" lon="4.47749">
        <ele>1172.4</ele>
        <time>2022-01-27T14:58:53Z</time>
      </trkpt>
      <trkpt lat="45.30567" lon="4.47744">
        <ele>1172.4</ele>
        <time>2022-01-27T14:58:59Z</time>
      </trkpt>
      <trkpt lat="45.30571" lon="4.4774">
        <ele>1172.6</ele>
        <time>2022-01-27T14:59:03Z</time>
      </trkpt>
      <trkpt lat="45.30572" lon="4.47739">
        <ele>1172.6</ele>
        <time>2022-01-27T14:59:05Z</time>
      </trkpt>
      <trkpt lat="45.30579" lon="4.47737">
        <ele>1173</ele>
        <time>2022-01-27T14:59:13Z</time>
      </trkpt>
      <trkpt lat="45.30584" lon="4.47734">
        <ele>1173</ele>
        <time>2022-01-27T14:59:18Z</time>
      </trkpt>
      <trkpt lat="45.30588" lon="4.47731">
        <ele>1173.2</ele>
        <time>2022-01-27T14:59:22Z</time>
      </trkpt>
      <trkpt lat="45.30589" lon="4.47731">
        <ele>1173.2</ele>
        <time>2022-01-27T14:59:23Z</time>
      </trkpt>
      <trkpt lat="45.30594" lon="4.47729">
        <ele>1173.2</ele>
        <time>2022-01-27T14:59:27Z</time>
      </trkpt>
      <trkpt lat="45.30599" lon="4.47725">
        <ele>1173.4</ele>
        <time>2022-01-27T14:59:31Z</time>
      </trkpt>
      <trkpt lat="45.30601" lon="4.47724">
        <ele>1173.4</ele>
        <time>2022-01-27T14:59:33Z</time>
      </trkpt>
      <trkpt lat="45.30611" lon="4.47716">
        <ele>1173.6</ele>
        <time>2022-01-27T14:59:43Z</time>
      </trkpt>
      <trkpt lat="45.30622" lon="4.4771">
        <ele>1173.6</ele>
        <time>2022-01-27T14:59:53Z</time>
      </trkpt>
      <trkpt lat="45.30628" lon="4.47707">
        <ele>1174</ele>
        <time>2022-01-27T14:59:57Z</time>
      </trkpt>
      <trkpt lat="45.30629" lon="4.47706">
        <ele>1174</ele>
        <time>2022-01-27T14:59:58Z</time>
      </trkpt>
      <trkpt lat="45.30632" lon="4.47704">
        <ele>1174.2</ele>
        <time>2022-01-27T15:00:00Z</time>
      </trkpt>
      <trkpt lat="45.30637" lon="4.47702">
        <ele>1174</ele>
        <time>2022-01-27T15:00:03Z</time>
      </trkpt>
      <trkpt lat="45.30647" lon="4.47695">
        <ele>1174</ele>
        <time>2022-01-27T15:00:12Z</time>
      </trkpt>
      <trkpt lat="45.30648" lon="4.47694">
        <ele>1174.2</ele>
        <time>2022-01-27T15:00:13Z</time>
      </trkpt>
      <trkpt lat="45.3065" lon="4.47692">
        <ele>1174.4</ele>
        <time>2022-01-27T15:00:15Z</time>
      </trkpt>
      <trkpt lat="45.30657" lon="4.47688">
        <ele>1174.8</ele>
        <time>2022-01-27T15:00:20Z</time>
      </trkpt>
      <trkpt lat="45.30659" lon="4.47687">
        <ele>1175</ele>
        <time>2022-01-27T15:00:21Z</time>
      </trkpt>
      <trkpt lat="45.30661" lon="4.47685">
        <ele>1175</ele>
        <time>2022-01-27T15:00:23Z</time>
      </trkpt>
      <trkpt lat="45.30668" lon="4.47678">
        <ele>1175.4</ele>
        <time>2022-01-27T15:00:29Z</time>
      </trkpt>
      <trkpt lat="45.30671" lon="4.47675">
        <ele>1175.4</ele>
        <time>2022-01-27T15:00:32Z</time>
      </trkpt>
      <trkpt lat="45.30672" lon="4.47674">
        <ele>1175.4</ele>
        <time>2022-01-27T15:00:33Z</time>
      </trkpt>
      <trkpt lat="45.3068" lon="4.47659">
        <ele>1176</ele>
        <time>2022-01-27T15:00:43Z</time>
      </trkpt>
      <trkpt lat="45.30682" lon="4.47652">
        <ele>1176.4</ele>
        <time>2022-01-27T15:00:48Z</time>
      </trkpt>
      <trkpt lat="45.30685" lon="4.47645">
        <ele>1175.8</ele>
        <time>2022-01-27T15:00:53Z</time>
      </trkpt>
      <trkpt lat="45.30686" lon="4.47642">
        <ele>1176.2</ele>
        <time>2022-01-27T15:00:55Z</time>
      </trkpt>
      <trkpt lat="45.30689" lon="4.47636">
        <ele>1176.4</ele>
        <time>2022-01-27T15:01:00Z</time>
      </trkpt>
    </trkseg>
  </trk>
</gpx>